GFSSE_sfc_thetae_000.txt.gz
Theta_e
349 355 363 362 362 362 364 365 366 367 366 365 366 369 369 370 369 369 369 369 367 367 366 366 365 363 362 362 361 361 360 359 358 357 357 358 359 356 354 354 355 350 353
355 357 363 364 365 366 366 367 367 367 367 367 368 369 370 369 370 369 370 368 367 367 365 365 364 363 363 362 359 358 359 357 356 355 356 358 358 356 355 355 354 351 354
356 359 361 366 367 366 366 366 366 368 368 367 368 369 370 370 370 369 369 366 367 365 364 364 364 363 361 361 360 358 356 358 356 355 354 354 355 356 357 356 354 355 354
357 358 361 366 368 367 367 367 367 369 369 370 370 370 371 371 370 369 365 364 364 364 363 362 361 361 360 359 359 359 357 356 355 353 352 354 353 355 355 354 354 355 351
356 359 361 368 368 367 368 369 369 369 369 370 371 370 371 369 368 365 364 363 364 363 362 361 359 359 359 358 357 358 357 358 357 353 353 350 349 355 355 353 351 354 352
358 361 367 369 368 368 370 370 369 369 368 370 370 369 368 367 364 364 364 364 364 363 361 360 359 359 358 358 358 358 357 358 355 352 353 353 352 354 355 354 353 354 354
357 362 362 367 368 367 370 371 371 370 369 369 369 368 369 368 365 365 364 363 362 361 360 359 358 358 358 358 359 358 357 358 351 351 351 351 353 358 357 357 353 354 352
358 363 362 367 368 369 369 369 371 370 369 369 368 368 369 368 366 364 363 362 360 359 358 358 359 360 360 360 360 359 358 356 353 351 351 351 357 359 355 355 356 355 352
362 362 364 363 364 369 371 371 370 369 369 369 369 368 367 366 364 363 363 362 361 360 359 359 360 361 362 362 362 360 358 357 353 352 354 353 361 359 356 355 355 355 354
358 362 362 362 363 364 365 370 368 369 369 367 367 366 366 365 363 362 362 364 362 362 360 359 361 362 362 361 361 360 360 359 353 352 350 353 360 361 356 354 355 356 356
355 357 358 361 361 362 364 366 369 368 368 368 366 367 367 356 354 346 354 355 358 361 362 360 361 361 363 360 360 361 361 355 351 353 352 356 360 362 358 356 353 354 356
351 353 356 356 357 360 365 358 358 362 362 360 360 359 356 352 351 354 352 350 354 361 361 360 360 359 357 350 347 355 354 354 351 352 351 358 360 361 359 359 355 352 353
351 353 354 357 357 358 360 357 357 357 358 357 356 355 354 352 351 350 348 350 350 356 353 357 355 353 352 348 347 344 347 350 349 352 351 357 360 361 361 359 357 355 354
349 351 355 356 356 356 357 358 357 355 355 355 354 354 352 349 346 349 348 350 349 350 349 350 349 349 348 347 346 348 347 344 341 351 352 359 358 360 362 360 359 357 356
347 350 353 357 355 355 355 356 355 356 356 355 354 355 353 349 348 351 348 350 349 349 346 347 345 346 346 347 348 348 347 347 344 345 351 361 360 360 362 362 362 359 358
348 352 355 355 355 354 353 352 352 352 352 353 351 353 353 350 348 349 347 346 346 347 348 347 346 345 345 344 345 346 346 347 346 342 351 353 361 360 362 365 364 363 359
345 352 352 352 356 354 353 354 351 354 353 350 350 351 350 352 350 347 344 343 344 345 346 346 344 343 342 344 342 344 345 345 345 344 345 352 353 362 360 362 365 364 364
345 350 352 356 356 352 353 354 354 353 351 351 350 350 350 351 351 347 342 343 345 344 344 341 338 338 338 339 339 339 340 341 343 344 345 347 352 354 358 359 360 364 364
344 348 349 353 354 354 354 355 354 353 352 351 351 348 350 349 350 346 343 345 344 341 340 339 338 337 337 337 338 339 337 337 340 345 344 345 347 351 351 356 357 358 363
344 346 345 346 352 354 353 354 353 352 349 351 350 347 350 347 351 350 345 344 344 342 340 340 338 337 337 336 340 341 339 339 339 339 341 343 344 347 351 351 351 353 358
345 345 345 346 349 352 349 347 346 344 345 347 348 350 350 348 349 346 346 345 344 341 340 340 337 336 335 336 333 331 332 336 336 338 340 340 342 344 345 349 350 350 353
343 344 347 346 350 350 350 347 348 347 348 349 350 351 350 348 349 347 346 344 341 339 337 336 335 334 334 336 331 325 321 325 330 333 336 338 340 341 342 345 345 349 348
343 347 348 349 351 351 351 350 349 347 345 342 343 344 341 339 340 341 339 336 336 336 334 334 334 333 330 333 333 328 321 317 323 328 331 334 336 337 338 340 342 345 346
346 351 350 352 352 352 350 350 345 339 330 332 336 338 334 334 337 337 336 337 337 335 334 334 338 334 332 328 331 334 329 328 320 319 326 329 332 333 335 337 341 343 342
348 352 352 352 352 352 348 349 336 326 328 333 333 331 329 330 334 336 339 336 334 334 333 334 333 332 332 330 328 328 326 326 324 320 316 321 326 329 332 335 337 339 341
349 352 353 350 347 342 339 331 325 327 327 329 328 325 327 324 333 337 336 333 333 331 332 332 333 332 331 330 329 327 324 321 320 319 317 318 320 325 329 331 333 336 340

GFSSE_sfc_thetae_003.txt.gz
Theta_e
347 353 360 362 362 362 360 359 360 360 360 361 365 366 366 366 368 368 367 365 365 365 365 363 361 361 361 360 360 359 358 358 357 356 358 358 355 354 354 354 353 349 353
350 355 362 362 361 361 361 361 361 362 363 365 367 367 368 366 368 368 365 364 365 365 363 362 360 361 360 358 357 357 357 356 356 355 357 358 356 354 353 355 353 351 351
353 354 357 363 363 364 364 364 364 364 363 367 367 368 368 367 367 366 365 364 364 362 362 362 361 360 360 359 357 355 354 355 355 354 356 354 354 354 355 354 354 353 354
356 356 359 363 366 365 364 364 366 365 365 368 368 370 369 368 369 367 364 363 362 362 361 360 359 357 357 358 357 357 355 354 354 354 353 354 352 354 355 352 351 352 354
355 357 361 366 365 366 366 368 368 368 368 369 369 369 369 368 366 363 362 361 361 361 360 359 357 356 356 356 356 357 357 356 354 352 352 350 349 354 353 352 349 351 349
356 360 364 367 366 367 367 370 369 369 369 369 370 370 367 366 364 363 362 362 361 360 358 357 356 356 355 356 357 356 356 357 355 350 349 351 351 354 355 351 351 352 352
358 360 362 369 369 370 370 368 369 368 369 370 369 366 366 364 363 363 362 362 360 359 358 358 357 357 357 356 357 358 355 357 350 349 349 350 351 356 356 355 353 354 355
359 360 362 367 368 369 369 369 369 368 366 368 365 365 365 365 365 363 361 360 358 357 357 357 358 358 358 359 359 358 357 356 354 349 350 350 355 358 356 356 354 353 353
361 360 360 361 364 367 370 370 369 367 366 365 365 366 365 365 364 362 361 360 359 358 358 359 360 360 360 361 361 359 358 357 351 350 351 347 359 358 355 355 357 354 354
360 360 359 360 360 362 364 368 366 367 365 364 365 364 364 364 361 361 362 362 360 361 361 360 360 361 360 360 360 358 358 359 350 350 351 352 358 358 357 355 356 356 354
357 357 359 360 359 360 360 363 365 365 366 366 364 365 366 354 354 351 354 357 356 360 361 358 359 359 358 358 359 358 357 351 349 351 351 354 357 359 358 355 355 356 356
351 355 356 358 359 359 364 359 359 357 358 356 356 357 354 350 349 350 352 352 352 357 360 358 357 358 357 349 346 349 347 350 350 347 351 355 358 358 359 356 354 354 357
350 354 355 355 357 357 358 357 356 356 354 354 355 354 352 349 348 348 345 347 348 353 352 352 352 350 348 347 347 345 345 346 346 350 352 356 359 358 361 359 355 353 354
350 352 354 356 356 356 356 355 354 354 353 353 352 353 350 344 344 343 345 346 346 348 346 346 346 346 347 347 346 346 346 346 343 342 350 358 359 358 360 361 358 356 354
349 352 354 357 355 356 354 355 354 353 353 353 353 352 351 345 343 346 346 346 345 346 344 344 344 344 343 343 345 345 345 345 346 343 347 359 360 360 359 361 361 358 356
349 350 354 356 355 354 352 351 352 353 352 352 350 352 352 347 345 346 344 344 343 344 344 345 343 342 341 342 343 343 342 343 345 344 342 349 361 362 361 360 362 361 357
348 350 353 355 353 353 352 347 347 349 349 349 350 350 351 350 347 346 343 340 341 343 342 342 340 338 338 339 338 341 340 341 342 344 343 346 351 360 363 362 360 360 361
347 350 353 357 355 353 351 350 350 351 349 349 348 347 348 350 348 345 340 341 342 341 341 339 336 335 335 335 335 336 337 338 339 342 343 343 348 352 357 362 360 359 360
345 350 351 353 354 352 352 352 349 350 349 349 349 347 347 347 349 345 340 340 341 340 339 337 335 334 333 334 335 336 336 336 337 341 340 341 342 347 350 355 358 358 358
345 349 351 352 352 352 352 350 350 349 349 349 348 346 346 347 348 345 345 343 342 339 337 335 334 334 333 333 337 337 335 336 336 336 338 341 341 342 346 349 349 350 356
342 346 346 346 350 351 348 346 345 345 345 345 347 349 347 346 348 345 343 342 341 338 337 337 335 333 332 333 330 330 330 330 331 333 336 338 339 341 343 347 347 347 349
340 343 343 345 347 351 348 345 346 345 345 345 347 349 349 347 347 345 343 341 341 337 335 334 334 331 332 334 328 323 320 324 326 329 330 335 335 338 340 342 344 346 347
340 342 344 344 347 350 349 346 346 346 344 342 342 345 346 347 347 344 342 339 334 334 332 332 332 330 328 331 331 325 317 315 321 326 328 329 330 330 333 337 340 343 344
340 344 345 345 348 349 349 345 344 342 337 334 336 341 339 338 336 338 336 334 335 333 332 332 336 333 330 326 328 332 328 326 318 316 323 325 327 327 329 332 335 337 340
342 345 346 347 348 349 349 348 345 336 330 330 332 335 331 331 332 333 334 336 333 332 331 332 331 331 330 328 326 325 324 323 322 317 313 317 322 325 328 330 330 333 337
344 347 348 347 349 349 349 348 341 332 328 329 329 328 324 324 326 332 336 332 331 330 330 330 330 330 329 329 327 325 321 318 317 317 315 315 316 320 324 326 327 330 334

GFSSE_sfc_thetae_006.txt.gz
Theta_e
347 351 359 361 360 359 360 360 359 360 360 362 363 364 365 365 366 366 366 365 364 364 363 362 361 361 361 360 359 358 359 358 357 356 357 356 354 354 354 354 353 351 355
349 353 360 362 360 360 359 359 360 360 362 364 365 366 365 365 364 365 365 364 364 363 362 360 361 361 359 357 357 356 356 356 356 357 358 357 354 352 354 352 353 349 351
350 353 357 364 361 360 361 360 360 360 363 365 366 366 365 365 365 364 363 363 363 361 361 361 361 360 359 357 355 352 354 355 355 356 358 355 354 355 353 353 353 354 353
353 353 355 363 363 362 362 364 363 362 364 366 366 367 366 366 364 364 363 362 361 361 360 360 359 357 357 356 355 355 353 352 355 355 355 354 352 355 354 351 354 353 353
354 356 358 363 364 364 364 364 367 366 366 365 367 366 366 366 364 363 361 361 360 360 359 357 357 356 356 355 355 356 355 354 353 352 353 353 353 353 354 350 353 351 353
355 357 363 364 364 365 365 367 365 366 367 367 368 365 365 364 362 361 360 360 359 358 356 356 356 356 356 356 357 357 355 354 353 351 352 353 354 354 353 348 351 349 350
355 358 360 366 366 365 365 365 368 367 367 368 367 365 364 364 362 361 361 359 358 357 357 356 357 357 358 357 358 358 357 356 352 351 352 352 354 355 354 353 352 352 352
357 359 360 365 366 366 367 366 367 367 367 368 365 364 364 363 363 361 360 358 357 356 357 357 358 359 359 359 360 358 357 357 355 352 352 353 354 356 356 354 352 354 354
360 358 359 361 363 366 368 367 367 366 364 365 363 365 364 363 363 362 361 359 358 357 358 359 359 360 360 360 359 358 357 358 356 353 352 352 354 356 354 355 353 352 353
358 359 358 359 360 360 360 364 364 364 364 364 364 364 364 363 362 361 360 360 360 360 362 361 358 358 359 356 357 356 354 354 355 353 355 352 354 357 357 354 357 354 353
355 357 358 358 356 359 360 361 363 364 363 362 361 363 363 357 357 359 354 358 359 359 359 361 358 358 359 357 356 356 356 356 354 354 354 354 356 356 359 355 356 355 354
349 354 356 357 358 359 363 360 358 358 359 359 359 358 358 355 354 347 355 355 355 354 359 359 357 359 355 352 350 351 348 351 354 354 353 355 356 356 358 356 356 354 356
350 354 355 356 357 358 359 358 357 357 356 357 357 357 356 352 351 352 348 349 352 354 353 354 352 351 351 350 350 349 349 350 350 349 352 355 358 357 358 358 354 355 356
348 352 354 355 356 356 356 357 354 355 356 354 354 355 353 348 348 347 348 350 350 351 349 349 349 349 349 349 348 348 349 350 349 349 349 356 358 358 359 357 359 355 354
347 350 352 354 355 357 354 355 355 353 355 355 354 354 353 348 344 346 349 350 349 350 349 348 349 347 346 347 347 347 347 348 349 348 347 351 359 359 358 359 358 359 355
348 350 352 354 355 355 354 354 354 354 354 354 353 354 354 349 347 347 348 347 347 349 347 349 347 345 343 344 344 345 345 345 347 346 347 349 354 359 361 360 358 358 359
348 350 351 353 356 353 353 351 351 353 353 352 352 353 351 350 348 347 347 346 347 346 346 345 344 341 341 342 341 342 342 343 344 345 347 349 351 353 356 361 361 360 358
349 348 351 355 355 353 353 351 351 351 351 351 352 352 351 353 351 348 346 344 346 346 344 343 341 340 340 339 339 340 340 342 342 343 345 346 349 349 354 355 360 359 358
348 348 349 354 354 353 350 350 352 352 351 351 352 350 350 351 352 349 345 345 346 345 344 342 340 339 339 339 339 341 341 341 342 342 343 344 345 347 348 351 356 358 357
347 349 350 352 353 351 352 351 350 350 351 351 351 349 350 350 351 349 346 346 346 344 342 341 340 340 339 338 338 338 339 338 340 340 340 343 344 346 346 349 355 353 355
343 347 348 349 352 351 349 348 348 347 349 349 349 350 350 349 350 348 347 345 345 343 342 342 340 339 338 338 336 335 334 334 336 335 339 340 338 340 346 350 352 353 353
340 345 347 349 350 352 349 348 349 348 348 349 349 350 350 350 349 347 346 345 345 343 340 339 338 336 337 339 334 328 326 329 332 334 336 336 334 336 337 342 345 346 348
338 342 345 346 349 351 350 348 348 348 347 346 347 349 350 349 349 348 346 345 342 339 338 338 337 336 334 336 337 332 324 321 327 331 333 333 333 334 336 338 339 340 344
339 342 344 345 347 348 350 347 346 344 343 343 342 347 347 347 346 344 342 340 338 338 337 337 340 338 336 332 335 336 334 331 325 322 328 329 330 330 333 335 336 338 340
340 341 343 344 344 348 349 349 346 342 342 334 336 341 340 339 337 339 338 338 339 337 336 337 338 337 336 334 332 332 331 329 328 323 319 323 325 330 332 332 334 336 336
340 342 343 343 344 347 348 348 346 343 335 332 333 336 333 332 332 335 337 339 338 336 336 336 336 336 335 335 334 332 329 326 325 325 322 321 322 325 329 331 332 331 332

GFSSE_sfc_thetae_009.txt.gz
Theta_e
348 354 359 359 359 359 358 359 359 361 361 364 364 366 365 365 364 364 365 363 364 363 362 361 362 361 361 360 359 359 358 356 356 356 356 356 355 354 354 352 352 349 354
353 356 360 362 360 360 360 359 361 361 363 364 365 366 364 363 363 364 364 364 364 362 361 361 361 360 358 357 357 357 356 356 355 357 357 355 354 354 354 353 349 348 352
353 356 358 362 361 361 360 359 361 361 363 365 366 365 363 361 362 362 363 363 362 362 361 361 360 360 359 358 357 355 354 353 354 355 357 353 353 354 353 353 353 350 354
354 356 356 361 362 361 361 361 361 363 363 365 366 365 363 363 362 362 362 361 361 361 361 360 359 358 358 358 358 357 356 353 354 353 354 352 349 355 352 354 354 354 354
356 358 359 361 362 361 361 361 362 364 363 363 363 364 363 363 363 362 361 360 360 360 359 358 358 358 357 357 358 357 356 355 353 353 356 357 354 353 353 351 351 353 351
356 357 361 363 364 363 362 362 364 366 364 366 364 364 364 363 361 360 359 359 359 359 358 357 357 357 358 358 358 358 357 355 354 355 358 357 355 353 352 347 352 350 353
355 359 361 364 364 364 364 364 367 366 364 366 364 364 363 362 361 360 360 359 359 358 357 357 357 358 359 359 360 358 358 355 356 356 356 358 358 352 353 350 351 350 351
355 358 361 363 364 365 365 365 366 366 364 365 364 364 363 362 361 360 359 357 357 356 357 358 359 360 359 360 360 358 356 357 355 355 356 357 355 354 355 353 352 353 353
357 358 361 363 365 366 368 365 366 366 365 364 364 364 363 363 362 360 359 358 358 357 359 360 359 358 359 359 358 356 357 357 357 357 354 358 355 355 355 355 352 353 353
357 359 361 363 364 365 363 364 364 365 364 364 363 363 363 363 362 361 362 359 359 360 360 361 359 357 358 357 357 355 356 355 356 359 357 359 352 356 356 356 353 353 352
356 360 361 360 364 366 364 363 363 363 362 363 362 362 361 363 361 359 356 358 358 358 358 359 357 358 358 355 356 356 354 356 356 358 361 356 355 356 356 355 354 356 352
351 356 360 362 362 363 358 364 365 361 359 360 363 363 361 362 364 359 354 356 355 355 357 358 358 357 355 356 356 354 355 356 355 356 357 355 356 356 356 357 355 355 355
351 354 359 361 364 363 364 363 366 362 362 361 363 362 365 362 362 360 359 357 356 357 359 358 358 357 357 356 354 353 354 355 356 356 356 352 356 356 356 357 357 357 354
350 354 356 360 363 364 364 360 362 358 360 358 360 364 365 364 358 359 357 359 362 360 360 358 357 358 356 354 353 352 353 352 352 354 357 353 356 358 357 357 358 358 355
349 354 357 360 362 363 363 360 359 361 357 358 361 361 360 363 359 359 358 359 361 360 359 359 359 356 355 351 352 351 349 351 352 351 353 354 353 357 357 358 357 357 356
350 353 358 360 363 364 362 364 362 361 364 361 361 360 363 360 366 362 357 359 359 360 359 359 357 354 351 351 349 350 348 348 350 350 349 354 351 354 357 359 359 357 357
352 353 354 357 362 363 364 366 363 362 361 358 359 363 363 363 363 363 362 361 360 359 358 356 355 355 351 350 347 347 347 348 346 349 349 350 353 353 354 356 361 361 359
353 353 354 354 357 360 362 363 361 361 361 360 367 368 363 363 364 364 364 362 359 358 356 355 353 351 351 348 346 345 347 346 348 348 348 349 348 349 354 353 355 360 359
356 356 356 359 359 362 364 363 365 364 363 365 362 362 363 362 363 364 364 361 358 356 358 356 353 351 345 344 343 344 345 345 347 345 347 350 351 350 349 356 352 353 356
356 358 359 358 362 365 366 365 366 364 365 365 360 361 362 362 360 360 360 358 357 356 355 354 352 352 347 346 343 342 344 347 345 346 346 346 344 351 353 355 356 357 353
355 356 358 358 361 362 359 359 359 356 360 359 364 362 361 361 360 361 360 358 357 353 354 353 351 347 345 349 343 338 343 345 342 343 345 341 338 341 346 349 352 354 356
353 355 357 359 362 363 360 361 360 360 360 360 361 362 362 360 361 359 358 355 354 351 352 350 349 345 345 349 340 339 330 336 342 341 340 334 335 337 338 343 345 347 349
350 353 356 360 362 363 364 362 361 361 361 358 358 358 359 360 360 359 357 354 353 350 344 350 348 346 341 346 345 338 329 327 332 341 340 335 334 333 336 338 341 343 341
349 352 356 359 361 362 364 360 360 355 353 355 356 357 358 360 358 358 356 352 352 347 349 349 348 349 347 340 343 345 343 340 329 327 333 333 331 329 333 332 333 335 334
349 350 353 358 361 362 363 363 358 358 357 357 354 356 360 359 358 354 352 350 349 347 350 348 349 347 346 342 341 340 340 339 338 329 321 324 330 332 331 331 332 332 332
348 349 351 356 359 359 360 361 360 359 358 353 350 348 351 353 351 350 348 349 350 349 348 345 347 345 345 345 343 340 335 330 329 328 325 326 325 328 329 330 331 332 331

GFSSE_sfc_thetae_012.txt.gz
Theta_e
350 358 359 359 360 360 359 358 359 360 364 366 366 366 366 364 366 365 364 364 364 363 363 362 361 360 360 360 359 358 357 357 356 357 357 356 355 354 353 351 352 349 354
353 358 360 362 359 360 360 360 360 361 363 364 366 364 363 364 364 364 364 364 363 362 362 362 361 360 360 359 357 357 357 355 354 357 356 356 355 354 352 352 352 352 353
355 358 359 360 360 359 360 361 362 363 362 365 364 362 361 362 363 364 364 362 362 362 362 361 359 359 359 358 358 357 356 354 353 355 351 351 352 354 353 353 351 352 355
354 356 358 361 361 359 360 361 363 361 361 363 362 361 361 362 362 363 362 361 362 361 360 360 359 359 358 358 358 357 357 355 353 352 354 348 348 354 351 354 354 355 355
355 355 359 361 361 362 361 361 363 362 363 363 362 361 361 361 363 362 361 361 361 360 359 358 358 358 359 359 358 358 357 355 352 355 356 353 350 353 351 353 355 354 351
356 356 358 361 362 362 362 362 363 363 363 363 362 362 363 363 361 360 361 360 360 358 358 358 357 358 359 358 359 359 357 355 355 356 359 354 353 354 349 352 352 353 354
356 357 358 363 363 363 363 363 364 363 363 363 363 363 363 361 361 360 360 359 358 357 357 358 359 359 359 359 359 357 357 357 356 359 356 358 356 354 351 352 349 350 353
356 358 362 364 364 364 364 365 365 364 364 364 364 363 362 361 360 360 359 357 357 356 357 359 359 359 359 359 359 355 355 358 356 357 358 360 356 353 356 353 353 352 353
357 359 361 363 366 365 365 366 365 364 364 363 363 363 362 361 360 359 359 358 357 358 359 360 357 357 357 357 356 355 355 354 358 357 356 359 356 355 356 355 354 355 354
357 359 359 362 362 364 364 365 365 364 362 362 362 361 361 361 360 360 360 358 358 359 358 360 357 357 357 357 357 357 356 359 355 357 358 357 354 357 355 357 353 353 354
354 356 360 360 364 365 361 361 363 363 363 362 362 362 360 359 362 358 358 356 358 357 357 357 356 358 356 356 355 356 358 357 355 355 357 356 353 355 357 357 355 355 352
354 356 357 360 361 360 357 363 364 360 358 357 358 360 357 362 363 359 358 355 355 355 356 357 356 357 358 357 356 357 354 355 357 357 356 356 355 357 357 358 355 357 355
353 355 356 359 362 360 359 360 359 358 358 359 363 360 359 361 363 361 362 359 359 356 359 358 358 358 357 356 355 354 354 353 354 356 356 353 353 356 357 357 358 357 355
352 354 357 359 361 361 361 359 359 357 357 355 356 363 362 357 360 361 359 362 361 362 359 361 359 359 358 357 354 353 353 352 350 351 357 355 352 356 358 358 359 358 357
351 354 356 360 363 363 363 358 358 357 356 355 357 360 358 357 360 358 361 362 359 361 360 358 359 358 357 354 354 352 349 350 351 349 350 356 352 353 358 358 357 358 357
351 353 357 359 363 364 362 363 359 359 357 358 356 357 362 358 365 358 358 357 358 360 360 359 359 356 355 354 352 350 347 345 346 349 347 350 353 352 355 358 358 359 358
352 354 357 360 362 363 364 364 362 359 358 357 356 363 365 367 363 361 360 356 357 363 362 360 360 358 353 352 350 348 345 344 343 346 346 345 350 356 355 355 358 361 361
353 354 357 357 359 362 363 363 361 359 359 367 360 362 362 364 364 362 357 357 357 358 360 357 357 352 349 346 342 341 342 344 346 345 345 347 346 343 355 356 354 357 359
355 357 357 358 357 360 365 364 363 365 366 363 363 363 363 363 363 361 358 360 361 360 358 357 352 351 342 340 338 338 345 345 347 343 348 351 351 350 345 356 352 352 355
357 359 359 358 361 364 371 368 365 360 360 360 367 369 366 363 362 361 359 359 359 359 356 353 351 348 344 341 337 340 345 349 348 349 347 346 346 351 352 355 353 354 352
357 359 361 361 364 367 357 355 356 354 357 358 360 364 364 363 363 363 358 358 359 355 354 353 346 343 338 345 339 339 342 344 347 347 346 340 340 343 348 353 353 353 355
355 359 361 363 365 366 360 366 360 359 357 359 360 364 364 363 364 361 361 358 359 352 353 348 346 340 341 346 337 336 331 336 339 343 343 336 336 338 340 345 349 353 352
353 358 361 364 366 367 367 364 364 364 363 358 358 359 362 364 364 363 362 358 356 349 340 347 346 344 337 345 344 336 328 328 331 338 340 334 335 334 336 338 341 341 342
352 357 362 364 366 367 369 368 366 356 350 350 353 353 355 361 361 360 360 357 351 344 347 347 346 346 345 339 340 343 343 340 328 328 333 333 334 332 333 334 334 335 336
352 355 359 364 366 368 368 370 362 361 354 353 353 356 358 360 358 355 359 352 349 345 349 350 347 347 344 338 338 340 341 338 339 328 324 330 333 333 335 335 335 334 334
351 353 356 363 368 367 367 367 366 363 359 352 354 351 348 350 353 357 357 351 350 348 349 348 347 346 345 344 340 341 335 331 331 328 325 329 329 333 334 335 334 335 336

GFSSE_sfc_thetae_015.txt.gz
Theta_e
349 356 359 359 359 359 359 359 363 366 367 367 368 368 367 366 367 367 366 364 363 363 362 362 361 360 359 359 359 359 358 356 358 356 356 356 356 355 350 350 351 350 356
354 357 360 360 360 360 360 359 360 363 366 367 367 367 366 365 364 365 364 363 362 362 361 361 361 360 359 359 358 358 357 356 356 355 355 356 357 353 351 352 352 352 354
353 356 358 360 360 361 361 363 363 362 364 364 364 365 363 364 365 364 363 363 363 362 361 360 359 359 359 359 358 358 356 354 352 354 355 354 352 353 354 353 354 355 356
352 355 356 362 361 361 361 361 363 360 361 361 363 362 362 363 363 362 361 362 361 361 360 359 358 359 359 359 358 358 356 354 351 354 356 350 349 353 355 354 356 356 356
351 354 359 361 360 361 362 362 363 362 361 361 361 361 361 362 362 361 361 360 360 359 358 358 359 359 359 359 359 358 356 354 352 355 355 351 351 351 353 353 354 354 352
350 354 360 362 361 362 362 363 363 363 363 360 360 361 362 362 361 360 360 359 359 359 359 359 360 359 359 359 359 357 355 354 354 355 358 350 350 353 353 353 355 356 355
355 356 357 363 362 362 363 364 364 364 363 361 361 362 362 361 360 361 359 357 357 358 359 360 360 360 359 358 357 356 355 356 358 357 355 357 352 355 352 352 351 355 355
355 355 358 363 363 363 363 364 363 362 362 362 362 362 361 360 359 359 357 357 357 357 358 360 358 358 358 357 356 355 356 357 357 357 356 357 356 357 354 354 351 351 355
356 355 360 361 364 364 364 363 363 364 363 362 362 362 361 360 359 358 357 356 357 358 360 359 357 357 357 355 355 354 357 358 358 358 356 357 358 356 357 354 356 355 354
354 356 358 360 360 362 363 364 363 363 361 360 361 361 361 362 361 359 359 358 356 357 356 358 356 356 356 356 356 356 358 360 358 356 357 356 358 357 357 355 355 355 355
352 355 355 356 358 364 363 365 364 363 360 360 361 362 360 358 359 362 361 357 356 356 355 356 356 358 357 358 357 358 360 355 353 353 356 357 357 358 357 357 354 354 355
350 352 355 356 357 358 354 362 360 357 356 357 357 361 356 362 363 358 359 358 356 357 358 358 359 360 360 357 357 360 353 352 355 356 355 360 358 357 358 359 356 357 354
352 354 356 358 361 357 362 357 357 357 357 357 361 360 358 359 358 360 357 358 360 359 356 359 357 358 357 354 352 352 351 352 348 354 357 359 356 355 358 359 359 357 358
352 352 353 358 360 359 357 356 355 354 354 354 357 363 362 358 360 360 360 359 362 359 357 360 358 361 356 356 353 353 351 349 346 347 358 359 355 355 358 359 360 358 357
349 352 353 357 362 362 363 356 357 355 353 354 355 361 359 356 363 358 359 358 360 359 356 358 359 357 358 355 354 352 349 348 347 345 348 359 356 354 359 359 359 358 359
351 352 355 357 362 363 364 366 359 361 359 355 361 357 362 359 365 366 363 355 356 362 359 359 358 357 358 357 352 351 346 345 344 344 343 354 359 355 358 359 359 359 359
351 354 355 357 360 363 364 363 360 357 356 357 356 361 364 364 362 364 359 357 360 363 362 360 358 358 355 353 346 344 342 343 342 344 344 342 353 359 359 359 360 361 360
352 354 357 355 357 361 364 364 360 357 360 359 357 361 363 366 365 364 358 356 361 360 359 361 355 354 349 343 341 340 340 343 346 346 344 344 343 344 357 360 357 359 358
353 355 356 358 357 360 368 364 363 367 364 361 362 357 364 365 365 363 359 359 362 357 361 356 355 350 343 340 337 336 341 344 344 343 344 345 348 346 345 359 359 356 357
353 356 358 357 363 366 373 368 366 359 361 360 358 363 365 363 364 364 358 360 359 362 357 359 352 347 344 341 337 337 342 345 344 344 343 343 344 347 349 350 354 352 355
353 356 359 362 370 363 358 361 356 355 357 356 356 363 366 364 365 364 360 361 360 356 356 352 347 345 338 344 338 340 340 343 343 343 343 339 340 342 346 348 353 355 355
352 358 363 366 371 368 361 363 360 358 355 355 356 364 363 363 366 361 364 358 361 353 355 350 347 339 338 344 337 334 330 339 342 339 341 337 337 338 341 345 349 353 354
352 357 364 370 372 371 371 366 365 368 360 356 354 358 361 362 362 364 362 361 359 354 342 348 346 344 337 341 344 336 329 328 333 339 340 336 336 335 337 340 341 341 344
352 356 365 370 373 371 373 366 368 356 350 349 352 352 356 360 358 362 361 357 356 348 355 348 345 346 344 338 338 339 342 339 330 329 335 334 334 333 334 334 335 336 337
351 353 360 371 373 374 374 370 361 362 352 351 350 362 364 364 357 354 356 357 353 344 351 350 346 347 344 339 336 337 340 335 336 328 324 329 333 333 334 333 332 332 335
350 352 359 370 373 374 374 372 372 371 361 352 355 352 349 350 352 356 355 355 352 350 350 348 348 346 346 345 341 339 332 330 330 329 326 330 329 332 333 334 334 333 333

GFSSE_sfc_thetae_018.txt.gz
Theta_e
348 353 358 359 359 359 363 364 366 368 368 368 368 368 368 368 368 367 366 366 366 365 365 364 363 360 360 360 360 358 357 358 357 356 356 356 356 352 352 353 349 351 357
353 354 360 359 359 359 361 365 366 367 368 367 368 368 367 367 367 367 366 366 365 365 364 363 362 360 360 359 359 358 357 355 356 356 356 356 352 354 354 354 358 351 355
351 355 356 361 361 360 362 365 365 366 367 367 367 367 367 367 367 366 365 365 364 363 360 360 360 360 359 359 358 357 356 353 352 353 355 353 349 356 354 354 356 357 356
351 353 355 362 362 362 364 365 365 365 365 366 366 366 367 367 366 364 362 361 361 360 360 359 360 360 360 359 358 357 355 353 354 355 355 352 344 357 355 356 357 356 356
350 354 357 362 364 364 364 365 365 365 364 365 365 365 366 365 364 362 361 360 359 359 359 360 360 360 359 360 358 356 355 353 354 356 356 351 343 352 355 357 355 356 357
353 353 361 363 363 365 364 365 364 365 364 364 364 365 365 363 361 361 360 358 358 359 360 361 360 360 359 359 357 355 355 354 356 355 356 353 347 356 356 357 357 355 355
351 353 357 364 365 365 365 365 365 363 362 364 364 364 363 362 360 361 358 357 357 358 360 361 359 359 358 357 355 355 356 356 357 356 352 350 348 356 355 355 357 355 356
350 351 355 363 365 365 365 366 365 363 362 363 362 363 362 361 360 359 356 356 357 358 360 361 358 358 357 355 355 357 357 357 356 355 353 352 356 357 353 351 355 356 355
352 354 356 358 362 364 366 364 364 363 363 363 362 361 360 360 360 358 357 356 356 359 359 359 357 356 356 354 357 358 359 362 356 355 352 346 358 358 355 355 352 356 354
353 354 358 359 358 361 361 364 363 362 362 360 360 360 360 361 361 360 362 359 356 356 356 357 356 356 355 357 359 359 357 358 355 352 352 352 358 359 357 355 357 355 355
351 353 355 355 361 363 362 360 363 362 360 359 360 362 363 357 361 361 363 361 358 358 355 357 359 361 361 362 364 365 361 355 344 342 353 356 360 360 358 356 355 356 357
348 350 351 355 358 360 355 363 364 358 355 356 358 362 359 355 362 360 360 359 359 359 356 361 364 363 362 358 356 362 357 352 343 352 347 355 359 360 360 358 356 354 356
347 349 352 358 359 358 360 359 357 357 357 358 365 361 366 356 354 357 360 355 359 360 356 357 359 355 361 357 357 353 351 351 351 354 351 357 361 360 360 360 358 358 355
349 351 354 358 359 362 357 355 357 357 358 357 361 368 370 364 363 356 363 357 359 359 356 362 358 357 359 358 352 347 350 348 348 355 356 361 360 358 360 360 360 357 359
346 353 356 360 362 367 362 363 358 363 355 357 362 364 361 365 354 360 363 361 364 360 361 356 359 357 356 358 354 350 349 347 346 345 354 361 360 360 361 360 360 359 359
349 351 358 360 364 370 364 370 364 349 366 352 355 361 370 368 369 365 364 360 356 362 365 363 361 361 360 359 355 354 347 346 348 345 346 356 360 360 362 360 360 360 360
350 353 357 358 361 365 368 371 371 367 360 354 361 365 362 369 369 371 365 363 362 359 361 366 361 362 357 355 354 350 343 346 345 346 345 345 355 361 362 363 362 360 359
351 355 359 354 359 361 365 369 364 359 365 362 358 367 362 371 371 370 365 361 358 358 360 354 357 355 353 351 345 343 343 345 346 346 347 345 347 351 358 361 362 362 360
354 359 359 360 359 362 367 365 364 364 362 366 366 358 365 362 368 366 361 362 363 364 362 359 357 353 348 345 339 342 344 343 345 342 345 345 346 347 352 358 359 360 359
354 359 360 361 368 365 363 368 368 364 359 358 367 362 362 367 368 365 363 360 366 365 360 360 352 353 348 344 340 338 345 346 346 346 344 341 344 344 350 349 352 354 357
353 357 359 361 367 367 364 357 360 358 363 362 366 364 362 369 370 366 362 365 366 357 359 352 353 346 344 346 343 337 343 344 344 344 340 339 341 342 346 351 348 351 351
352 355 360 361 369 366 364 364 362 360 359 361 353 365 366 365 368 366 365 361 357 358 353 354 349 344 345 348 340 338 331 339 342 337 342 337 337 340 341 344 348 350 352
351 356 360 363 366 364 368 364 366 366 360 359 360 363 360 367 366 363 363 364 362 358 354 352 350 348 340 347 344 339 333 330 335 342 341 335 336 336 340 341 339 339 345
351 357 362 364 365 367 366 363 362 355 355 360 363 361 364 364 364 365 366 363 362 358 354 352 351 347 348 339 346 343 342 338 331 328 336 335 335 333 333 335 336 335 335
352 355 361 365 367 366 368 364 362 360 357 357 356 365 362 368 363 363 365 362 358 352 357 353 350 348 349 344 341 341 341 340 338 331 327 328 334 335 336 334 331 335 334
351 355 357 365 366 366 367 365 366 359 356 356 361 357 359 357 358 364 359 361 357 353 354 352 351 350 348 349 346 345 337 336 333 334 329 328 330 333 335 335 334 335 336

GFSSE_sfc_thetae_021.txt.gz
Theta_e
346 352 358 358 358 361 363 367 369 368 368 369 369 369 368 367 366 367 367 366 364 365 362 361 360 359 359 359 358 357 359 357 357 356 356 354 352 353 354 353 357 353 354
349 352 359 361 361 363 366 366 368 368 369 369 369 368 368 366 364 366 366 364 363 364 361 361 360 359 359 358 357 357 358 358 356 356 356 352 353 354 356 357 356 352 353
350 354 355 361 362 363 364 366 366 367 368 368 368 368 367 365 365 365 363 363 364 362 360 360 360 359 358 358 357 355 356 355 354 353 354 349 350 354 355 356 358 356 355
351 351 354 362 363 363 365 367 366 365 365 367 367 368 367 365 365 364 362 362 361 360 359 359 359 359 359 358 358 357 356 354 353 355 353 350 349 354 357 358 356 356 354
349 351 355 363 364 364 364 366 366 366 364 365 366 368 367 365 363 362 361 360 360 360 360 359 359 358 359 359 358 356 356 355 357 355 350 341 344 354 357 357 357 357 357
350 355 362 364 362 365 365 365 364 364 365 366 366 368 366 365 362 361 359 359 359 359 360 360 360 358 358 358 358 356 357 357 357 353 346 349 346 356 355 357 356 357 356
350 355 358 366 366 366 364 364 365 363 363 366 367 367 366 365 362 360 358 358 357 358 359 359 357 357 356 357 356 355 355 357 354 351 352 346 350 358 358 358 356 356 357
351 354 357 364 366 367 365 364 365 363 363 366 367 366 366 365 364 362 359 357 356 357 359 358 356 357 356 355 356 357 356 355 353 351 351 350 355 357 355 356 356 357 357
350 352 355 358 361 366 367 365 364 364 364 366 366 365 365 364 361 361 362 358 357 357 357 357 356 357 359 358 360 360 358 354 343 346 351 347 358 356 352 354 356 355 356
350 352 353 355 356 357 359 364 363 364 363 363 364 362 362 360 360 359 363 362 357 356 356 357 359 362 362 363 362 357 359 353 341 342 348 346 356 357 357 354 355 354 355
349 350 353 354 354 355 355 358 364 363 363 363 362 364 363 355 354 358 360 361 357 358 358 359 363 364 364 365 361 360 358 343 342 338 347 355 358 358 356 357 357 356 355
346 350 352 353 354 355 357 355 355 356 353 352 353 353 355 352 350 358 360 363 359 359 362 362 363 364 362 354 353 358 354 343 344 343 343 351 360 360 358 356 356 357 357
345 350 351 353 354 353 352 354 355 353 350 349 350 353 353 354 351 350 352 351 352 358 351 355 356 354 350 352 350 345 344 340 346 345 345 355 360 360 360 357 356 355 357
344 346 349 352 353 352 355 353 353 351 350 349 352 355 352 352 347 351 352 348 352 352 351 353 351 350 351 348 346 344 344 347 351 349 348 357 360 362 361 360 358 358 355
344 346 349 352 351 353 351 348 349 350 352 351 354 354 351 351 350 348 353 352 351 351 353 350 354 350 348 349 348 345 342 335 339 350 350 361 360 362 361 361 359 358 359
345 347 351 351 352 353 350 352 354 350 352 352 353 354 354 351 349 353 350 351 353 353 355 352 349 348 348 350 350 350 346 336 337 338 350 352 360 359 361 361 361 359 359
345 348 350 350 356 353 351 355 354 355 347 345 354 355 355 354 352 352 352 349 353 354 354 352 350 350 350 351 347 347 339 335 338 337 339 348 352 358 359 362 362 360 360
345 348 351 355 354 355 353 356 353 350 353 351 348 355 356 356 356 352 353 351 351 353 350 347 346 345 347 342 333 331 332 334 337 339 337 341 348 350 357 360 360 360 359
347 350 350 351 351 351 355 358 353 351 353 350 354 354 355 357 357 352 353 353 352 351 348 348 344 343 335 332 332 330 333 338 336 339 338 337 338 346 349 357 358 358 357
349 350 349 351 351 350 357 355 355 352 354 356 353 349 352 356 358 353 351 352 351 347 347 344 343 342 334 333 336 333 334 334 333 338 339 339 336 348 349 347 348 350 357
350 348 350 350 353 353 353 353 351 347 353 350 352 355 355 356 356 353 349 351 351 348 346 344 339 331 331 335 329 333 333 337 333 335 332 330 330 340 344 345 347 348 351
347 348 348 350 357 354 354 351 351 350 352 352 353 357 358 356 356 352 351 350 349 349 347 338 334 331 333 338 327 326 325 331 335 334 329 328 329 333 341 343 344 344 346
345 348 349 350 356 356 354 354 353 352 352 348 351 353 356 357 358 354 353 351 350 346 340 336 334 333 329 337 328 328 322 321 330 333 328 326 328 328 331 331 331 337 343
345 350 350 352 357 354 356 351 348 345 344 348 352 352 357 357 356 355 353 351 346 343 339 336 337 332 333 327 334 334 329 325 321 322 328 325 325 325 324 329 327 328 341
346 348 353 353 354 355 355 352 351 347 347 350 346 349 354 352 353 356 353 351 343 340 341 338 334 332 335 334 332 333 328 328 325 320 318 322 329 326 324 325 327 326 332
346 349 354 353 353 357 352 354 353 349 348 346 346 350 351 351 348 353 352 346 342 336 339 338 337 335 333 335 332 332 325 324 324 322 318 318 322 326 327 328 324 327 326

GFSSE_sfc_thetae_024.txt.gz
Theta_e
344 350 357 358 359 361 365 366 367 368 369 368 368 367 366 365 365 364 364 362 362 361 360 360 359 359 359 357 358 359 358 358 356 356 353 351 354 355 355 357 357 349 351
348 352 359 359 361 364 365 367 368 368 367 368 367 366 364 363 363 363 363 362 361 360 360 360 359 359 358 358 358 358 358 357 357 356 353 351 353 354 355 357 355 348 355
348 353 355 360 363 364 366 367 367 367 366 367 367 364 363 363 363 363 362 361 360 360 359 360 359 358 358 358 357 356 355 355 355 354 353 349 349 355 358 356 353 354 356
351 351 354 360 363 365 366 366 367 365 364 367 366 364 363 363 363 362 361 360 359 360 359 359 359 358 358 357 357 356 355 355 354 355 350 350 346 355 356 357 354 354 354
349 352 354 362 364 365 365 366 366 365 363 364 364 362 362 362 362 360 360 359 359 360 359 359 357 357 357 357 357 356 355 357 356 355 350 343 344 355 357 356 353 356 356
349 353 359 363 362 364 364 364 363 363 362 364 364 362 362 362 361 359 359 359 359 360 360 358 357 356 356 357 356 357 359 357 353 346 342 350 347 355 355 357 356 356 355
350 354 357 364 364 364 364 363 363 362 362 364 364 362 362 361 360 359 358 358 358 359 360 356 356 355 356 357 357 357 358 358 348 347 348 348 349 359 358 356 356 355 352
352 355 357 363 365 364 362 362 362 361 362 364 364 363 362 362 360 358 357 357 357 357 358 357 355 356 356 357 358 360 359 356 350 347 350 347 355 359 357 357 355 355 352
354 355 356 357 358 363 365 363 362 361 362 363 363 363 363 361 359 357 357 356 356 357 357 357 355 356 357 357 360 359 355 349 345 349 351 346 358 356 355 355 356 356 353
351 353 353 354 356 358 360 364 363 362 362 363 363 362 362 361 360 359 362 360 357 356 356 356 357 359 357 356 358 358 354 349 344 346 348 348 354 352 353 356 356 356 355
348 351 353 353 354 355 355 359 363 363 363 363 362 363 364 354 354 357 359 360 362 358 357 356 359 361 358 359 351 356 358 339 341 344 349 352 353 357 355 353 356 354 355
345 348 352 353 353 353 357 354 354 355 355 353 354 352 355 352 351 356 359 363 361 359 359 360 360 361 357 350 352 360 346 339 342 339 343 354 356 358 356 358 355 355 356
346 349 350 351 353 352 352 352 352 352 351 349 349 350 350 352 350 352 348 352 351 357 349 353 354 351 351 349 345 342 347 339 343 345 342 352 357 359 358 356 357 356 356
345 349 350 351 352 351 350 353 352 351 349 346 347 348 349 349 345 346 348 349 347 350 351 350 350 348 350 347 347 340 342 340 346 345 344 355 358 359 358 357 356 356 357
345 348 349 351 351 350 350 350 348 349 348 347 347 350 350 349 345 346 348 351 350 349 349 348 351 349 347 348 347 343 339 344 349 347 343 355 359 361 359 358 358 357 356
345 346 350 350 351 350 350 346 347 348 349 349 351 351 351 350 346 347 347 349 352 351 352 351 348 346 346 348 350 349 344 336 345 346 347 352 359 360 360 362 359 358 359
344 346 347 349 350 350 349 347 349 351 352 349 351 351 352 349 349 350 349 346 350 349 354 350 346 345 348 346 342 340 336 333 337 343 346 347 351 359 360 361 360 359 357
344 344 347 350 350 349 347 349 351 350 347 348 351 352 352 353 351 350 349 349 348 349 347 344 344 342 337 332 328 328 330 332 336 337 340 343 347 347 356 360 361 360 357
345 345 347 348 348 351 348 353 349 347 350 346 349 352 352 354 354 349 349 349 350 349 346 346 341 340 332 328 329 330 332 335 335 337 337 339 344 346 345 355 357 358 356
344 348 348 347 349 352 350 352 348 346 349 350 349 351 354 355 355 350 349 350 348 345 345 341 340 340 331 332 335 331 331 331 333 332 337 334 340 345 349 346 346 349 354
345 347 347 348 348 349 350 349 347 344 348 348 349 348 349 353 354 350 349 349 348 344 344 340 335 328 327 331 325 327 331 331 330 332 329 329 339 341 344 345 346 347 351
346 347 347 347 347 347 350 350 348 347 348 349 349 352 350 354 354 351 347 347 348 346 343 336 330 327 329 332 324 323 322 326 330 330 328 331 333 341 342 343 342 343 342
345 345 346 348 349 348 349 350 348 349 348 347 348 351 355 354 354 352 348 348 347 345 339 333 332 327 326 331 325 325 320 318 329 330 324 328 327 329 333 335 340 343 339
343 346 347 349 350 350 351 351 348 346 343 344 346 349 352 355 354 352 350 348 342 343 335 333 335 333 326 324 329 331 325 323 320 321 325 323 323 325 327 326 327 340 336
343 345 346 349 353 353 351 350 349 344 344 344 346 348 349 352 352 352 350 347 341 339 336 335 331 332 332 329 329 330 326 326 319 318 316 320 324 323 321 324 325 330 337
342 345 346 346 351 353 351 350 349 346 343 342 343 344 348 350 350 351 350 347 339 337 338 334 331 331 333 332 330 328 323 321 320 320 316 315 317 322 323 323 324 324 332

GFSSE_sfc_thetae_027.txt.gz
Theta_e
345 351 357 357 357 361 363 364 367 367 367 366 366 364 363 363 363 362 361 361 360 360 359 359 359 359 357 358 357 357 357 356 355 352 351 355 355 356 356 356 353 347 355
347 351 357 358 361 362 362 366 366 367 365 365 365 363 362 361 362 362 362 361 360 359 359 359 359 359 358 357 357 357 358 356 355 353 351 354 354 354 356 356 351 348 353
347 351 355 361 361 362 363 365 365 364 364 364 363 362 362 362 362 361 361 360 359 359 358 359 359 358 358 357 356 356 355 354 354 353 353 348 349 357 357 354 353 356 355
349 350 354 361 362 363 363 365 365 364 364 363 363 362 362 362 361 360 360 359 358 358 358 358 358 358 357 357 355 355 355 355 355 354 348 347 349 357 355 353 354 355 355
349 351 354 361 362 363 363 364 365 364 363 362 362 362 362 361 360 359 359 359 358 359 359 358 357 357 357 357 355 353 355 356 357 354 346 342 346 354 357 353 353 356 355
349 352 357 361 362 363 362 362 362 362 363 362 361 361 362 361 359 358 358 358 358 359 358 358 357 357 357 357 355 354 357 355 356 348 342 350 347 356 356 354 356 356 356
348 351 355 362 364 363 362 361 361 361 362 362 361 361 361 360 358 358 358 357 357 359 359 357 358 357 357 356 355 355 357 353 346 346 348 347 348 357 357 356 356 355 356
349 352 355 361 362 362 362 361 361 360 362 362 361 361 361 360 358 358 357 356 356 358 358 357 357 357 354 355 358 359 359 355 349 348 349 348 355 357 357 356 355 352 354
353 353 353 354 357 362 362 361 361 360 362 362 362 361 361 360 359 358 356 356 356 356 356 356 355 355 355 356 357 357 358 355 346 347 349 347 358 358 356 355 355 353 353
352 353 352 352 352 354 355 362 361 360 361 362 362 362 361 360 358 357 361 357 356 356 355 355 355 355 356 358 356 358 353 349 345 346 347 345 358 355 354 355 355 356 351
350 351 351 352 352 354 356 357 361 361 361 362 361 361 362 353 352 356 358 359 359 357 356 356 355 357 358 358 354 358 356 340 340 343 347 350 356 353 354 356 355 356 354
344 349 351 351 353 354 358 354 354 354 353 354 355 353 354 351 350 355 358 360 357 358 358 359 356 358 354 350 350 356 350 338 340 339 341 353 356 356 354 353 356 354 354
344 348 351 351 353 352 353 350 351 351 351 350 350 350 349 351 348 351 349 352 350 355 349 351 351 348 351 347 343 342 345 336 338 339 341 351 356 358 356 356 355 355 356
343 346 350 351 352 350 348 351 351 350 348 347 346 347 347 347 346 346 346 348 346 347 350 350 348 349 346 348 345 341 344 336 339 344 342 352 357 358 356 355 356 356 356
343 345 348 350 350 351 346 349 347 347 348 346 344 345 348 346 344 344 346 348 347 348 350 348 350 347 344 347 345 339 340 339 341 345 341 354 357 359 357 356 356 356 357
344 345 348 348 349 349 347 345 346 346 347 346 345 346 350 348 346 345 344 348 349 351 351 351 348 345 344 347 349 345 338 339 344 346 343 344 357 357 360 357 356 356 356
344 347 347 348 349 348 347 347 345 346 348 347 348 348 348 349 346 345 345 345 347 348 351 351 344 346 344 339 332 331 332 336 337 347 343 345 348 357 357 361 361 359 354
345 346 347 350 349 348 348 346 347 346 349 350 347 350 350 350 347 347 346 345 347 348 348 343 342 339 333 330 326 328 330 332 335 340 343 344 346 347 353 358 360 358 356
344 345 346 348 347 348 347 347 347 348 347 347 347 349 350 350 350 348 348 348 347 345 346 344 339 337 329 329 328 330 330 335 336 335 336 337 343 345 343 353 356 357 355
344 344 346 347 347 349 346 347 346 345 346 346 347 349 350 351 353 348 347 348 348 345 344 339 337 337 329 329 333 329 330 329 332 333 335 335 337 343 346 343 344 347 355
343 343 344 344 345 347 345 346 343 341 343 346 347 349 350 352 352 349 347 347 346 343 342 339 334 328 325 330 323 323 329 329 329 329 327 333 341 343 343 342 343 346 348
341 343 344 344 344 347 348 348 347 344 344 346 347 347 348 351 352 350 346 346 346 343 341 337 330 325 327 330 322 321 320 324 326 326 330 336 337 341 341 342 341 342 341
338 342 344 345 345 347 349 347 345 346 346 345 345 346 349 349 352 351 347 346 345 343 340 333 330 326 325 329 324 324 318 317 323 328 323 328 333 334 336 338 339 340 337
339 343 345 346 346 346 348 348 346 343 341 343 345 347 350 353 352 351 348 347 345 343 338 332 332 327 325 325 327 328 323 323 319 318 322 323 322 327 327 328 335 339 335
341 343 345 346 346 346 345 347 346 343 345 343 343 345 346 349 351 351 348 346 342 341 336 333 331 331 326 325 326 326 323 323 319 318 314 318 321 321 322 324 324 336 335
341 344 345 344 345 346 346 347 346 345 342 341 340 342 344 347 348 349 348 345 340 338 335 333 331 331 332 330 328 327 321 319 319 318 315 315 316 319 321 319 323 323 335

GFSSE_sfc_thetae_030.txt.gz
Theta_e
348 351 357 357 359 361 362 364 366 367 367 366 365 364 363 363 362 361 361 360 360 360 360 360 358 357 358 357 358 356 356 355 352 352 354 354 357 356 357 353 354 353 358
349 352 357 358 362 362 362 365 365 365 365 365 365 364 362 361 361 361 360 360 360 360 359 359 358 357 357 356 357 357 356 356 353 350 355 356 356 355 356 352 352 352 357
346 351 353 361 362 363 365 365 364 363 363 363 363 362 361 361 361 360 360 359 359 358 359 359 359 358 357 356 356 355 355 354 354 352 355 351 351 356 355 353 355 353 354
348 351 352 361 363 363 364 364 365 362 362 362 362 362 362 361 361 360 359 358 358 359 358 358 358 358 357 355 354 354 355 355 354 353 351 350 353 356 354 356 356 356 356
348 351 354 361 363 363 362 363 365 363 362 362 362 362 362 361 360 358 358 358 358 359 358 358 358 359 357 355 353 353 355 356 357 351 348 348 352 355 355 354 354 356 356
349 350 359 362 362 363 362 364 364 362 362 362 362 362 361 360 359 358 358 358 359 360 358 358 358 358 356 355 353 356 356 355 358 350 347 353 353 357 352 356 357 357 356
348 351 356 364 363 364 362 362 362 362 362 361 362 361 360 359 358 357 357 357 358 360 359 358 357 356 355 355 353 355 355 355 350 348 350 351 353 358 356 357 356 357 357
349 352 354 362 363 362 361 361 361 362 362 361 361 361 360 358 358 357 356 356 357 359 359 357 357 356 354 353 355 357 355 352 349 349 350 351 355 357 356 356 354 356 356
351 352 353 354 358 362 361 361 360 361 362 362 361 361 360 359 356 356 356 356 357 357 358 356 355 355 355 354 356 355 357 354 348 351 350 352 358 358 357 354 353 351 356
351 352 351 351 353 354 355 361 360 361 362 362 361 360 359 358 357 356 360 357 358 356 355 356 355 355 355 355 356 356 354 352 348 350 350 351 357 357 356 355 356 351 354
350 350 350 350 350 353 354 356 359 360 360 361 360 360 357 355 355 357 359 360 359 356 355 356 356 356 357 357 355 356 354 346 346 347 350 351 356 355 354 356 355 353 353
345 349 350 350 350 353 357 355 354 354 354 355 357 357 357 355 353 356 359 362 357 358 355 357 357 355 354 354 354 355 352 343 343 346 348 351 355 353 354 356 354 356 355
344 349 351 350 352 353 355 353 353 352 353 353 354 354 353 355 352 352 354 354 353 355 354 352 353 351 354 351 347 347 350 340 342 341 341 353 355 356 355 354 356 354 354
343 347 351 351 352 352 351 351 351 351 350 350 351 350 349 349 348 350 351 351 351 350 353 354 352 353 350 352 347 347 348 340 341 345 344 350 356 356 354 357 355 354 354
341 346 349 351 351 352 348 350 350 350 350 349 348 347 349 349 348 348 348 350 350 351 351 351 353 351 349 350 349 345 345 344 344 346 346 350 355 357 355 356 358 356 355
342 344 348 349 351 351 349 347 348 348 349 348 347 346 348 349 349 348 348 349 353 353 354 352 351 351 350 350 351 349 344 345 346 348 348 346 356 357 357 355 355 356 356
342 344 346 348 349 349 348 345 345 347 349 347 347 348 349 350 350 350 349 348 351 352 353 352 350 350 342 338 336 336 339 343 341 349 349 347 350 353 357 358 356 356 354
344 344 346 349 348 347 347 346 345 345 346 347 348 351 351 351 350 349 350 348 351 352 352 348 348 345 339 337 333 335 337 338 338 346 349 348 350 350 351 357 360 357 354
344 345 345 347 346 347 347 346 347 346 346 348 349 349 350 351 351 350 350 351 351 351 350 348 345 343 335 335 336 336 337 337 338 341 345 348 347 351 348 351 356 355 353
344 346 346 347 347 347 347 346 346 347 348 348 347 349 351 352 352 351 351 352 351 349 349 345 344 340 336 335 333 334 335 336 338 340 341 341 344 350 349 349 352 351 354
343 344 345 345 347 347 344 343 344 344 345 348 348 351 352 353 354 352 350 351 351 349 348 345 341 337 333 335 331 332 334 333 335 333 335 344 347 348 348 348 349 352 351
341 342 344 345 346 347 347 346 346 346 345 348 350 351 352 353 354 353 350 350 349 347 346 343 339 333 332 334 329 328 327 332 333 330 335 341 344 346 346 347 348 348 348
340 342 343 345 346 346 348 347 346 347 347 346 347 349 349 352 354 354 351 350 349 348 344 342 337 334 332 334 330 331 325 324 329 332 329 335 341 342 343 345 345 344 344
340 342 344 345 345 346 348 346 346 345 343 345 346 348 349 351 351 354 351 350 349 348 346 342 337 333 334 333 333 331 329 331 325 324 329 330 331 337 338 339 343 345 342
341 341 343 344 345 345 346 347 345 345 346 345 346 348 349 352 353 353 352 350 349 348 346 340 337 337 333 333 332 330 329 326 326 325 322 326 329 329 332 333 333 342 342
341 340 342 343 344 345 346 347 346 345 343 342 343 345 346 349 351 352 351 350 349 347 344 340 338 338 335 335 334 333 330 329 326 324 323 323 325 328 329 329 330 332 342

GFSSE_sfc_thetae_033.txt.gz
Theta_e
348 353 358 358 359 361 364 364 365 368 368 367 365 363 363 363 361 361 360 360 359 360 359 359 358 358 357 358 356 356 355 353 353 354 356 357 355 356 354 356 357 354 358
351 354 358 359 360 362 363 364 365 367 366 365 365 364 362 361 361 360 360 360 360 359 359 358 358 357 356 357 357 357 356 354 351 354 355 356 356 356 353 353 353 356 358
349 354 356 360 362 362 363 366 366 365 364 365 364 361 361 361 361 360 360 359 359 359 359 358 358 358 356 356 356 356 355 355 352 354 353 353 353 355 352 353 355 357 357
351 353 356 360 364 363 365 366 366 363 363 363 362 361 361 361 360 360 359 359 360 359 359 359 359 358 356 355 354 355 355 355 353 354 353 353 352 354 355 356 355 356 355
350 353 360 362 365 364 364 364 365 364 362 363 362 362 361 360 359 359 359 359 360 360 358 358 358 358 356 354 353 352 355 356 355 350 352 356 353 353 355 356 356 357 355
350 354 360 364 363 364 364 364 362 362 362 362 362 361 361 359 358 359 359 360 361 359 358 358 358 357 356 355 353 355 353 356 357 350 349 355 356 355 354 356 356 357 355
350 356 358 365 365 364 363 363 362 361 361 362 362 361 360 359 358 358 358 359 360 360 358 357 356 356 356 355 354 355 356 357 356 351 352 354 356 356 356 357 357 357 357
350 354 356 362 364 363 363 362 362 361 361 361 362 361 359 359 358 358 357 358 359 359 357 357 356 356 355 357 356 357 354 353 352 350 353 355 355 355 357 356 357 357 356
352 354 355 356 361 362 362 361 361 362 361 361 360 361 360 358 357 357 357 357 357 357 356 356 356 356 356 357 357 357 357 353 352 352 349 354 355 355 357 354 355 356 355
352 353 356 355 356 358 359 361 360 361 361 361 361 360 359 358 356 356 357 356 357 355 355 356 355 355 355 356 357 358 354 353 352 353 353 355 355 357 355 355 351 355 352
350 352 354 354 359 361 360 359 360 360 361 361 360 359 360 363 362 359 359 360 357 356 355 356 355 356 358 357 355 357 355 351 351 354 352 352 355 356 356 356 353 355 350
347 350 353 354 356 358 356 360 361 358 356 358 359 362 362 362 361 359 361 360 356 356 356 356 357 357 356 359 358 357 360 352 349 354 354 351 354 355 354 356 356 353 353
346 349 352 354 357 356 356 357 358 356 356 358 362 361 361 362 362 361 362 361 363 357 360 358 360 358 357 355 350 357 358 351 350 350 350 352 354 354 353 356 354 355 354
346 348 351 354 356 357 356 356 357 356 356 355 356 362 360 356 359 361 361 362 362 360 356 358 358 360 359 358 352 351 352 351 351 351 349 350 354 354 354 354 356 354 354
345 347 351 354 356 357 358 356 356 357 355 354 356 358 356 356 359 361 361 359 360 356 356 364 358 357 358 356 355 352 350 353 353 354 353 350 354 354 352 354 356 356 355
346 347 351 353 356 357 357 358 358 358 357 356 354 355 357 356 360 360 360 358 358 360 361 357 362 355 356 356 356 354 352 353 353 354 354 352 353 354 354 353 354 356 356
346 349 350 353 356 357 357 357 358 357 356 353 353 357 357 357 360 362 360 358 362 364 365 363 356 355 344 341 344 346 347 350 351 353 355 353 351 352 352 354 354 354 355
347 349 351 351 354 355 356 357 356 356 355 353 353 353 356 358 361 361 359 357 360 363 367 362 353 355 350 342 339 346 349 347 343 350 353 355 355 353 351 352 355 354 353
349 350 350 352 353 354 357 356 356 356 353 352 353 353 357 358 361 359 358 359 362 361 364 360 357 354 347 345 345 346 346 345 347 347 350 354 355 355 354 350 356 355 351
350 352 352 352 354 355 355 355 354 353 351 351 352 354 359 360 361 361 359 361 361 358 359 359 357 353 347 346 340 343 344 347 348 349 348 348 353 356 355 355 354 352 352
350 351 353 353 357 354 351 349 348 346 349 353 357 360 361 361 363 363 360 361 361 358 359 360 355 350 344 348 341 342 343 344 344 344 346 351 351 353 354 354 355 356 355
349 351 354 355 358 355 353 353 351 351 351 355 359 361 362 362 364 363 362 360 361 358 359 357 353 348 346 347 340 341 334 338 341 341 345 350 351 351 350 351 352 354 353
349 351 354 358 359 358 358 354 353 355 355 354 356 358 360 363 364 364 364 361 362 360 355 357 353 349 341 345 342 339 332 331 338 342 342 349 351 348 348 347 347 351 350
349 352 356 357 359 358 361 356 356 349 346 350 355 357 359 363 363 364 364 362 363 359 359 357 353 350 344 340 341 342 343 343 332 329 338 344 348 345 347 346 345 347 347
348 349 352 357 359 360 360 359 355 354 351 353 354 360 364 363 363 362 364 363 362 360 361 359 354 350 344 342 340 339 341 339 342 335 329 333 340 341 345 344 344 346 347
348 349 350 355 357 359 359 359 359 358 357 352 354 353 354 355 357 361 362 363 363 361 360 359 357 352 347 345 344 342 338 335 333 335 333 334 333 336 338 339 341 340 345

GFSSE_sfc_thetae_036.txt.gz
Theta_e
351 355 357 356 358 361 363 366 367 368 366 365 363 362 364 362 361 361 360 360 358 359 359 359 358 359 358 357 357 355 354 353 354 357 357 356 355 356 357 357 357 354 359
351 355 355 358 361 363 363 365 368 367 365 364 363 364 362 361 361 360 361 360 360 358 358 358 358 358 358 357 357 357 356 352 354 355 357 356 357 355 353 353 358 358 359
349 353 357 361 362 364 365 366 366 364 363 364 364 362 362 361 361 361 359 359 360 359 358 359 358 357 357 357 357 355 356 353 354 352 354 351 354 353 351 355 359 358 359
350 357 358 362 364 364 365 366 366 363 363 362 362 362 361 361 361 360 359 361 360 360 360 359 359 357 356 355 354 355 356 354 354 353 353 350 350 353 354 354 356 357 358
351 356 360 362 364 364 364 365 365 363 362 362 362 362 361 361 360 359 360 360 360 359 359 359 358 358 356 354 353 353 355 355 351 352 353 357 350 354 354 356 357 356 353
351 355 359 362 363 364 363 363 362 362 362 362 362 361 360 360 360 360 361 360 360 359 359 358 358 357 355 355 355 354 354 357 355 347 352 354 355 355 355 354 356 356 353
351 356 359 365 365 365 364 363 363 362 363 362 361 360 360 359 359 359 360 361 360 358 358 357 357 357 357 356 356 356 356 356 353 348 353 355 353 355 356 356 357 356 355
351 352 357 364 364 365 364 362 362 362 362 362 361 361 360 359 359 358 358 359 359 358 357 357 356 356 357 357 358 357 355 353 353 348 352 355 355 355 357 357 357 357 356
351 350 354 357 362 364 363 362 362 362 362 362 361 360 360 359 358 358 357 357 357 357 356 356 357 357 357 357 358 357 355 350 355 349 349 352 356 355 357 358 358 357 357
350 350 352 355 356 359 360 362 362 362 361 361 361 360 359 359 357 358 357 357 356 355 356 355 356 357 357 357 359 356 355 353 355 353 350 356 356 355 355 353 356 354 356
348 349 351 351 356 359 358 359 361 361 362 361 361 359 359 362 361 360 359 358 356 355 355 355 355 356 358 360 359 357 357 350 353 353 353 356 355 356 355 355 353 353 352
347 348 349 351 353 356 353 359 360 356 356 357 359 361 362 363 363 360 359 358 356 355 356 356 357 358 357 354 354 360 353 350 351 353 353 355 354 354 354 355 354 355 350
348 347 349 352 356 355 354 356 355 354 355 358 362 362 364 365 364 363 361 358 360 359 357 357 357 356 356 357 350 345 348 350 346 348 350 353 352 353 353 354 355 353 353
348 349 351 353 356 355 354 354 354 351 353 352 355 362 365 359 361 365 362 361 361 359 359 358 355 358 359 356 349 344 344 348 345 346 351 353 354 351 352 354 355 355 354
347 350 352 355 357 358 357 353 352 353 351 352 355 359 360 360 364 362 362 361 361 360 357 356 359 355 356 352 349 347 345 345 348 348 350 354 355 353 352 354 354 354 355
349 349 352 354 358 358 357 359 355 355 353 353 352 355 361 360 366 364 362 360 361 362 359 357 357 354 356 355 352 349 346 345 351 350 347 351 354 354 352 353 355 357 357
349 351 352 354 357 358 359 359 358 354 353 352 352 358 361 362 364 366 359 359 359 362 362 360 362 358 354 351 349 348 343 346 347 350 347 349 351 354 353 352 354 355 357
350 352 353 353 354 358 358 359 356 355 354 352 351 355 360 361 365 366 361 362 362 361 360 360 362 352 352 347 344 346 346 344 348 347 346 350 350 350 351 354 353 353 353
350 352 353 355 354 356 360 359 358 359 356 352 352 354 360 362 364 364 360 363 369 364 361 361 356 354 347 348 344 346 346 347 347 343 347 350 351 351 350 352 354 353 352
351 353 355 355 358 360 358 360 357 354 354 351 352 354 360 361 363 365 361 362 361 363 358 358 359 354 348 344 339 340 344 345 348 345 344 345 349 352 350 354 352 352 351
352 353 355 356 360 358 356 353 351 348 350 349 353 358 363 364 367 369 362 365 365 358 361 363 358 355 347 347 340 339 342 344 347 343 349 345 345 348 348 350 354 351 352
350 354 357 358 361 361 357 357 352 350 348 349 354 360 366 367 368 368 369 363 365 362 364 364 361 351 349 347 342 342 332 335 339 342 349 346 345 343 343 346 347 352 353
349 353 357 361 363 362 364 357 356 353 351 349 354 358 364 366 368 370 368 367 366 365 358 362 359 355 345 344 346 340 332 330 333 340 345 344 345 343 342 344 345 349 349
350 354 359 362 364 363 366 360 362 349 346 348 354 358 359 367 366 368 369 368 370 362 364 362 360 358 354 340 342 342 347 346 332 330 339 344 344 343 345 343 343 345 345
350 352 357 362 367 369 366 365 357 358 350 351 352 366 369 368 367 365 368 369 368 365 365 365 362 361 353 344 341 341 343 339 343 335 331 336 342 342 343 343 344 343 345
350 352 356 363 367 368 366 364 368 365 361 352 357 355 356 358 360 365 366 368 369 367 366 365 366 362 358 351 343 344 338 336 335 336 333 337 336 340 341 342 342 342 343

GFSSE_sfc_thetae_039.txt.gz
Theta_e
348 355 358 357 361 363 364 366 367 366 364 364 362 363 362 362 362 361 360 359 360 360 359 359 359 359 357 357 356 355 352 354 357 358 358 356 356 357 356 356 358 354 360
352 356 358 360 363 364 366 366 367 365 364 363 364 362 361 362 361 361 361 360 359 359 359 359 359 359 357 358 358 357 353 353 354 356 357 358 356 352 355 358 359 358 359
349 355 358 362 364 364 365 366 365 363 363 364 363 362 362 362 361 359 360 361 360 360 360 359 358 357 357 357 356 356 355 352 354 354 357 353 351 350 354 357 360 360 359
344 353 358 362 364 365 365 365 366 363 364 363 363 362 361 361 360 360 361 360 360 361 360 359 357 356 355 355 355 357 355 350 353 353 354 351 345 353 351 357 357 357 357
350 355 360 362 364 365 365 364 365 363 363 363 362 362 361 360 360 361 360 361 360 360 359 359 357 356 355 354 353 354 356 351 352 354 350 355 353 354 355 354 354 355 356
354 354 360 363 365 364 363 363 363 363 363 362 362 361 360 360 360 362 361 361 359 359 359 358 357 356 356 355 356 354 356 356 354 348 354 354 353 356 355 354 356 354 355
352 355 359 364 365 364 363 363 363 363 363 362 361 360 360 360 360 361 361 361 360 359 359 358 358 358 357 357 356 355 356 355 351 352 354 352 351 357 356 357 357 355 355
354 354 359 364 365 364 363 363 363 363 362 361 361 360 360 359 359 359 360 360 360 359 358 357 356 357 358 358 357 356 354 356 347 350 355 352 357 357 357 358 357 356 356
351 354 356 358 362 364 363 362 362 362 362 361 361 360 360 360 359 358 358 358 358 359 357 357 356 357 358 358 358 354 351 354 350 348 351 353 358 356 358 358 357 357 357
349 350 351 353 356 359 360 362 362 361 361 361 361 360 360 360 360 359 359 358 357 357 357 357 357 357 357 359 359 356 354 357 352 346 355 354 358 356 354 357 356 357 357
345 347 348 350 355 359 358 360 361 361 361 361 360 360 360 362 362 361 361 357 356 356 356 357 357 357 357 358 361 358 358 351 352 351 352 359 358 356 356 351 356 353 356
343 345 347 350 352 354 351 358 359 356 355 356 357 360 357 362 361 358 360 359 358 358 358 358 358 361 357 354 356 359 356 348 351 350 351 360 358 357 356 355 355 350 352
346 345 347 350 354 352 354 353 353 352 353 356 364 362 362 360 359 354 357 356 357 359 354 358 354 357 352 352 348 352 347 348 345 348 352 355 355 355 356 356 355 354 350
346 346 347 351 354 353 353 351 351 350 352 352 357 363 365 359 360 363 356 360 355 355 356 356 355 355 353 353 344 342 342 344 343 349 352 354 354 354 355 356 355 355 355
345 346 347 352 358 358 358 352 352 351 350 351 355 361 362 361 361 358 360 357 364 358 356 359 357 354 349 352 350 350 342 344 344 347 348 356 355 354 355 355 356 354 355
347 347 349 352 357 358 359 362 354 353 352 351 352 356 362 360 363 364 360 360 361 357 351 356 359 355 353 351 347 348 344 344 346 349 348 352 357 354 354 355 356 357 356
347 349 350 353 356 358 359 359 356 353 352 351 351 359 361 363 363 365 358 363 359 360 362 363 357 357 350 349 350 350 342 346 347 345 347 348 352 358 356 354 355 357 357
348 350 352 351 353 357 359 358 355 353 352 351 351 356 361 363 364 364 359 358 364 361 357 358 354 351 352 346 344 345 343 343 344 345 346 352 349 348 355 357 354 355 356
350 352 352 354 353 356 363 359 358 362 354 352 351 353 364 363 365 364 360 359 366 360 355 354 352 351 343 343 342 342 343 343 344 341 344 347 346 349 347 358 357 355 353
350 353 355 354 362 365 361 363 356 353 353 353 351 353 364 362 364 365 362 363 362 357 359 359 358 349 345 341 337 341 342 344 346 343 341 345 344 349 350 353 352 351 357
349 352 358 359 366 360 355 353 352 349 352 351 352 358 361 362 365 368 363 361 362 361 360 356 356 351 344 344 340 339 341 344 345 341 344 340 343 345 346 347 350 352 351
348 354 361 363 368 365 359 361 355 356 350 350 351 363 361 364 367 367 372 357 365 362 362 358 357 350 345 343 345 342 336 336 341 339 345 342 344 341 341 344 346 349 353
349 356 359 365 368 366 366 362 362 359 355 348 350 353 360 364 366 371 367 365 365 362 363 363 358 354 345 340 350 349 338 334 332 338 341 343 343 340 341 343 345 347 348
349 354 363 367 369 368 370 361 362 350 345 346 349 351 358 367 366 367 367 364 367 363 367 363 357 358 355 343 339 341 349 350 336 331 338 341 343 341 344 342 343 344 345
349 350 358 368 370 370 369 367 358 357 348 348 349 362 367 373 367 364 370 371 370 363 371 364 363 362 355 348 341 339 344 337 343 343 334 336 340 341 344 343 343 343 345
347 349 356 366 369 372 371 369 370 362 359 350 352 352 354 356 362 370 368 373 373 369 366 363 367 364 361 355 346 343 338 336 335 335 334 340 338 344 341 343 343 342 344

GFSSE_sfc_thetae_042.txt.gz
Theta_e
350 352 358 359 362 366 366 366 366 366 366 365 365 364 364 363 363 364 363 362 362 361 360 361 360 358 358 358 358 353 354 357 358 358 357 358 359 358 358 358 358 355 361
350 355 360 363 365 367 366 367 366 366 365 365 365 364 364 362 363 362 363 361 361 361 360 361 359 358 358 358 357 355 352 354 356 357 358 356 354 356 359 362 360 358 360
349 353 358 365 365 365 366 365 366 365 365 365 364 365 363 362 362 363 362 361 361 361 360 359 359 359 358 358 356 355 351 354 354 354 355 351 347 355 358 359 360 360 359
349 353 357 364 365 365 365 366 365 365 363 365 365 363 363 361 363 363 361 361 362 361 360 359 358 357 357 356 357 356 352 351 352 353 352 352 342 354 359 358 358 358 358
348 353 359 364 364 364 366 366 366 365 364 363 363 363 361 361 362 361 361 360 360 360 360 359 358 357 356 355 355 354 354 351 351 353 353 354 348 354 356 356 357 357 359
351 355 362 364 364 365 366 366 365 364 363 363 362 361 361 362 363 362 362 360 360 360 359 359 358 357 356 357 356 354 355 356 354 352 351 354 352 356 356 358 357 358 356
350 356 360 365 365 366 366 365 365 364 362 363 362 361 361 361 361 362 362 360 360 360 359 359 359 358 357 358 356 354 357 356 353 350 347 351 355 360 357 358 354 356 355
351 353 358 364 366 366 364 364 365 363 362 362 361 360 360 360 360 361 362 361 360 359 359 358 358 358 358 359 357 355 354 357 354 354 350 352 359 360 358 357 357 356 356
351 353 357 359 362 364 365 363 363 362 362 362 361 360 360 360 359 360 360 361 360 359 359 359 358 358 357 358 357 354 354 356 355 354 351 352 360 360 359 357 357 358 357
350 352 355 357 355 357 358 362 362 362 361 361 361 360 360 360 360 359 362 362 359 360 359 358 358 357 358 358 358 355 353 358 350 351 350 353 359 358 359 358 358 357 357
348 349 350 350 357 360 359 359 362 361 360 361 360 360 362 363 359 359 364 363 358 356 357 357 357 359 360 361 360 358 354 350 350 350 352 358 360 356 354 358 355 357 357
341 344 347 350 353 355 351 360 361 357 356 359 359 338 340 360 362 360 360 365 358 356 356 359 354 360 357 352 357 361 357 351 352 348 353 360 360 358 355 355 352 354 357
345 342 346 351 356 353 353 355 356 355 356 353 351 347 349 358 364 359 357 354 347 356 355 356 352 356 357 354 352 353 354 352 351 348 355 361 361 358 357 356 355 350 352
344 344 346 352 356 355 354 351 354 353 353 356 359 360 366 357 354 353 355 353 349 353 355 355 357 355 356 357 350 346 341 343 347 347 354 359 360 358 357 356 356 355 352
344 344 347 353 358 363 363 353 353 358 355 358 362 365 362 355 358 356 358 354 357 356 356 360 357 356 344 353 351 351 343 345 347 344 350 358 359 359 359 357 355 356 355
345 345 350 354 359 366 366 374 356 365 356 359 358 361 367 359 361 365 359 358 360 353 355 360 362 359 356 352 346 352 343 347 348 347 348 354 359 358 359 358 357 355 356
346 347 350 354 356 363 365 368 367 365 351 357 359 366 367 370 371 371 362 359 354 363 363 359 361 352 348 352 348 347 349 347 342 347 347 348 354 359 359 359 360 360 357
346 349 352 348 354 356 361 364 363 358 360 359 359 363 366 371 372 363 351 357 357 367 361 361 350 357 352 351 348 349 343 347 347 347 345 348 349 348 357 360 359 360 357
348 352 353 355 354 356 363 361 360 361 362 362 363 362 366 368 370 367 356 352 355 365 357 358 354 355 351 345 338 347 347 339 339 342 345 347 350 346 348 358 358 359 356
351 355 354 355 360 359 359 362 358 356 359 360 363 363 367 367 368 366 355 354 362 353 363 361 358 352 352 344 339 342 344 340 340 342 344 345 350 350 348 350 354 352 358
351 354 354 357 362 359 356 354 354 351 356 359 361 366 368 369 369 368 365 359 366 359 356 364 354 356 351 347 343 343 345 346 347 344 341 339 347 344 347 353 348 350 350
348 353 356 357 362 361 358 358 357 359 355 356 360 366 368 368 371 371 365 367 363 362 364 360 361 355 350 351 342 335 333 340 341 339 345 346 343 347 345 345 349 352 348
349 352 356 357 362 362 361 361 363 362 363 357 355 356 362 368 369 369 369 366 364 368 363 366 359 359 343 346 351 337 334 332 335 342 343 340 342 341 340 345 346 350 348
348 353 357 359 360 363 364 359 359 351 348 350 354 356 359 363 365 368 367 365 369 366 360 362 364 362 357 345 344 347 351 350 338 331 341 342 345 342 345 343 343 344 343
349 352 356 359 361 363 360 364 357 355 352 352 355 357 362 364 368 368 368 368 371 365 365 363 364 361 363 355 346 343 346 346 346 336 333 337 342 345 347 345 342 343 346
349 353 355 359 360 363 363 360 364 356 356 349 351 353 357 363 363 369 369 368 369 368 368 366 370 366 363 361 356 349 343 339 339 337 335 337 337 343 345 344 343 344 345

GFSSE_sfc_thetae_045.txt.gz
Theta_e
346 352 361 363 363 363 364 364 365 365 363 366 365 364 362 363 363 365 364 362 362 362 361 360 358 359 359 359 354 354 358 358 359 358 359 360 360 360 359 359 360 355 360
348 353 363 365 366 364 365 366 365 365 364 364 365 363 364 362 362 362 363 361 361 362 361 361 358 359 360 358 357 353 356 356 358 358 356 358 360 360 362 359 361 357 360
349 354 361 365 366 366 365 366 365 364 363 363 364 365 362 362 363 362 361 361 361 360 360 360 359 359 359 357 357 354 355 356 356 356 356 345 353 359 360 361 361 360 360
350 354 358 365 365 364 365 366 365 362 363 363 365 364 362 364 364 361 361 362 361 360 359 358 358 358 357 357 357 356 352 356 356 354 350 350 351 358 359 359 359 359 358
349 356 358 365 366 365 365 365 366 364 362 362 364 362 362 365 362 362 361 361 360 360 359 359 358 357 357 356 354 355 354 353 355 354 350 345 344 356 357 357 358 358 358
352 357 363 365 365 366 365 365 364 363 362 364 364 362 363 363 362 361 361 361 360 360 359 359 358 358 357 356 353 353 354 354 356 351 349 352 348 358 359 359 359 358 359
353 357 360 365 366 366 365 364 364 363 362 363 363 362 362 362 363 362 361 361 361 360 360 359 359 358 358 356 353 354 355 355 351 349 351 351 353 360 359 356 356 355 358
353 356 358 363 366 366 363 363 364 362 362 363 363 361 361 361 362 365 361 360 360 360 359 358 358 358 359 357 354 355 356 357 352 349 351 352 359 360 359 358 357 356 357
352 354 357 358 359 363 365 363 363 362 362 362 361 361 360 360 360 361 361 363 360 360 359 359 358 358 358 357 354 356 355 357 350 349 352 354 360 359 358 357 358 358 357
352 354 354 354 354 355 357 363 363 362 362 362 361 360 359 358 358 359 363 364 361 359 358 357 358 359 359 358 356 354 353 359 348 348 349 354 360 359 359 358 358 358 357
349 351 352 351 351 352 353 357 361 362 362 362 361 361 357 354 353 356 358 362 359 358 358 358 362 364 361 357 357 356 355 347 351 348 350 358 359 358 357 357 358 358 357
344 347 348 349 349 351 354 353 353 355 354 353 353 338 339 346 353 357 359 364 360 361 363 363 357 360 357 349 353 358 351 347 347 348 352 360 360 355 357 355 357 358 357
342 344 344 348 350 349 350 351 352 350 349 351 348 345 338 354 353 352 351 350 334 346 350 352 350 350 350 350 349 353 353 348 346 348 356 360 362 357 356 354 352 355 357
340 340 343 347 348 346 348 348 349 349 349 347 350 347 338 349 341 348 351 346 345 346 349 351 349 349 348 350 349 347 351 348 345 349 357 362 362 358 358 357 354 351 352
338 338 342 346 347 348 346 344 345 346 349 349 352 350 351 348 344 352 353 348 347 349 347 352 350 347 342 340 343 340 346 343 344 347 349 360 361 360 358 356 356 355 354
339 338 344 345 348 348 351 348 344 352 347 354 356 354 351 352 349 351 349 351 352 348 342 351 349 350 347 345 341 339 341 342 342 345 349 352 360 360 360 358 356 356 356
339 342 344 345 350 349 348 349 351 350 346 344 355 354 354 351 350 351 352 350 349 350 347 352 350 345 340 344 338 335 340 342 343 344 346 349 354 360 360 361 359 359 357
342 344 345 347 349 351 348 350 351 348 350 348 353 353 353 355 355 348 347 350 351 353 352 348 349 346 340 344 338 336 337 338 342 344 345 347 348 349 358 361 359 360 357
342 345 345 345 346 350 349 351 349 349 349 350 354 353 353 354 357 350 348 345 339 352 352 350 344 346 342 344 338 338 333 335 339 344 341 345 344 347 347 359 359 359 358
341 344 343 346 346 348 352 351 348 346 349 349 349 353 355 356 358 355 350 346 347 349 353 351 342 337 336 336 337 337 334 335 336 338 341 346 343 343 346 349 350 351 357
343 345 343 346 348 346 351 348 347 343 345 346 347 356 356 356 357 354 349 349 351 349 346 350 342 340 338 336 335 334 332 335 335 336 338 345 343 343 346 346 349 345 350
343 344 345 347 349 348 350 348 346 347 346 347 347 353 358 357 358 357 353 352 352 350 349 349 344 341 337 337 333 330 323 328 331 333 337 341 342 342 342 345 344 344 344
343 344 345 347 352 350 351 350 349 348 347 346 345 344 354 355 356 358 355 354 349 353 349 348 344 343 332 335 338 328 325 323 328 331 329 335 336 333 336 343 345 343 344
343 347 346 349 354 351 352 350 347 345 342 344 343 345 351 356 358 358 357 355 353 353 350 349 349 343 337 329 330 340 337 335 324 321 331 330 333 331 333 337 341 343 340
344 347 348 349 352 353 352 350 349 345 344 342 344 343 348 351 354 361 357 356 353 354 350 350 351 346 341 339 329 330 332 334 333 326 322 326 332 333 335 335 335 337 336
345 347 350 348 350 353 352 352 348 346 342 342 339 341 347 352 355 358 359 357 357 355 353 352 351 347 347 345 340 333 329 325 329 328 328 327 329 334 335 334 335 335 335

GFSSE_sfc_thetae_048.txt.gz
Theta_e
344 351 362 363 362 363 363 362 363 364 364 363 363 363 362 362 363 363 363 362 363 361 360 358 359 360 358 353 355 358 358 358 358 360 360 361 360 360 361 360 359 355 359
347 353 362 365 363 363 364 363 364 364 363 362 364 364 362 361 362 362 363 362 361 361 361 358 360 359 358 355 356 356 358 359 358 357 359 361 361 360 361 360 360 356 359
349 355 358 364 364 363 365 363 364 361 362 363 362 362 362 362 362 361 362 361 361 360 360 359 359 359 358 356 355 358 357 356 358 355 358 351 353 360 359 361 359 359 359
352 356 360 364 364 363 364 364 364 362 363 362 362 362 363 362 361 363 362 361 360 360 359 359 359 357 358 357 355 356 356 356 356 355 348 347 350 359 360 360 359 358 358
353 356 358 366 366 363 363 364 363 363 363 361 361 362 362 363 361 361 361 360 360 360 359 358 357 357 356 356 355 355 355 357 356 352 346 343 348 356 358 359 359 358 358
354 356 363 365 363 363 364 362 363 361 363 361 362 363 363 362 361 361 361 360 360 360 359 358 358 357 357 356 355 356 354 355 355 348 347 352 347 357 359 358 357 358 357
354 357 359 367 366 364 363 362 361 362 362 361 362 362 363 363 362 361 361 361 360 360 359 359 358 358 357 356 356 357 357 357 350 350 348 350 353 361 359 358 357 358 357
354 357 359 365 366 364 362 362 362 361 361 361 361 361 362 363 362 362 361 360 360 359 358 358 358 358 357 357 355 357 358 357 352 350 351 351 359 358 356 355 357 357 357
356 356 357 357 359 362 363 363 361 361 361 361 361 361 361 361 361 361 361 360 359 359 359 359 359 358 356 356 356 356 360 357 349 350 353 353 360 359 358 357 357 356 357
354 355 354 353 353 355 357 363 362 362 362 361 361 361 360 359 358 359 361 364 359 358 358 357 358 358 357 357 356 356 355 358 348 350 352 355 360 358 358 358 357 357 357
352 353 352 351 352 352 354 357 361 362 362 362 360 361 357 351 352 355 357 359 357 357 357 355 357 359 358 357 357 358 353 347 347 348 351 359 360 359 358 358 358 357 357
346 350 351 350 350 350 356 353 352 355 354 353 351 341 342 347 351 355 357 360 357 358 358 358 357 357 355 347 350 357 347 347 346 348 351 359 360 357 356 357 357 357 357
347 349 348 348 349 349 350 350 350 351 350 349 342 339 342 351 350 350 350 344 334 344 348 351 349 344 348 347 348 351 353 345 346 348 354 360 358 357 354 356 357 356 357
345 346 346 347 348 345 350 349 349 348 347 347 347 341 343 343 345 344 347 343 343 343 344 347 349 349 347 347 347 347 347 347 344 350 355 361 360 357 355 352 353 355 356
341 343 344 347 346 346 345 345 346 346 347 347 348 345 347 341 338 344 346 347 345 347 346 347 348 347 344 339 340 344 347 344 345 350 351 361 361 360 357 356 352 351 352
340 340 343 346 345 346 343 340 342 344 346 347 349 349 349 347 347 348 348 348 347 347 347 343 347 347 343 341 337 343 342 341 342 347 348 354 361 361 359 356 356 355 354
338 339 342 344 346 345 343 342 342 346 347 348 351 352 349 343 347 348 347 348 348 347 346 346 346 342 337 342 333 339 340 339 342 344 347 348 354 361 360 357 357 357 356
338 337 342 346 347 343 347 346 347 345 343 346 352 353 351 348 351 348 348 347 349 349 349 346 345 341 337 342 334 336 337 340 340 343 346 348 349 351 359 361 360 359 356
337 339 341 343 347 344 346 345 346 346 346 346 349 350 352 353 350 344 346 347 344 345 350 347 343 342 339 342 337 335 334 340 339 343 342 343 345 346 348 358 358 359 357
340 341 341 342 347 345 347 344 344 343 344 346 349 349 350 353 352 348 347 342 341 348 347 346 341 340 339 336 341 335 331 336 338 338 341 343 342 343 345 349 350 351 357
341 341 341 341 345 346 345 342 340 338 340 343 345 350 351 353 355 350 348 347 346 347 346 343 336 336 331 334 332 329 332 335 335 339 339 340 340 341 343 345 346 345 349
340 341 341 341 342 346 346 346 342 340 341 343 344 351 353 353 355 352 348 347 347 348 344 345 340 339 332 333 331 326 320 326 331 331 336 341 339 340 342 343 343 342 344
339 341 342 343 343 344 347 344 344 344 342 341 341 345 352 354 355 354 352 351 349 349 346 345 342 337 329 334 332 324 323 319 323 328 331 336 337 337 338 342 342 343 342
338 342 343 345 344 344 348 345 344 343 342 341 340 341 350 353 354 355 353 352 348 349 348 347 343 341 328 327 329 338 329 330 319 318 328 329 332 333 334 339 341 341 342
340 341 343 347 345 346 348 346 343 341 342 340 341 340 344 351 352 354 354 352 349 350 349 347 348 343 336 328 325 330 330 331 331 322 319 324 330 329 331 335 340 339 339
341 341 343 346 346 347 348 347 344 342 340 340 338 338 340 346 349 354 354 352 350 349 349 346 349 344 342 336 334 329 327 325 326 327 324 324 325 328 331 333 334 337 335

GFSSE_sfc_thetae_051.txt.gz
Theta_e
343 350 363 363 363 362 362 363 362 362 363 362 363 363 363 363 362 363 362 362 360 359 357 359 359 355 353 356 356 357 358 358 359 360 360 360 361 362 359 359 359 355 358
347 352 364 364 363 361 363 363 364 363 363 364 363 362 362 362 361 361 361 360 361 359 359 359 358 357 353 355 357 357 357 356 359 359 360 360 361 360 360 359 359 356 359
349 355 360 364 363 362 363 362 362 362 363 363 363 362 361 361 361 361 361 361 361 360 358 359 358 356 355 356 355 357 358 356 356 359 360 352 354 359 360 360 360 358 357
352 355 357 363 364 361 364 361 364 363 360 362 362 362 361 361 361 361 361 361 360 360 360 358 358 357 356 355 356 356 357 358 355 356 346 348 353 360 360 360 359 358 357
353 356 356 363 364 362 363 362 362 363 360 361 362 363 361 361 361 361 361 361 360 359 358 357 357 358 356 355 355 356 356 357 354 349 345 346 350 356 359 358 357 357 357
355 356 360 362 361 363 361 363 361 362 361 362 362 363 361 361 360 360 360 360 360 359 357 358 358 358 357 354 354 353 354 355 355 343 346 351 348 358 359 357 358 358 357
352 355 357 364 362 363 361 361 362 361 361 361 362 363 362 362 361 361 361 361 360 360 359 359 358 358 357 356 355 355 357 357 348 347 347 349 352 360 359 358 358 357 357
353 355 357 361 362 361 362 360 361 361 361 361 362 362 362 362 362 361 361 360 359 358 358 358 358 358 357 356 357 358 359 356 351 349 350 350 357 358 356 356 357 357 357
355 355 356 354 357 361 361 361 361 360 361 361 361 361 361 361 361 361 361 361 360 360 359 358 358 356 356 356 357 356 358 356 348 349 352 352 358 357 355 358 357 357 356
353 355 352 352 352 353 355 361 361 361 361 361 360 360 360 359 360 360 360 362 359 359 359 358 358 357 358 357 357 357 358 357 349 350 351 352 359 357 357 356 356 356 356
352 351 349 350 351 352 353 356 361 362 361 361 360 360 357 350 350 354 357 359 359 359 358 358 358 358 358 358 358 358 358 346 347 349 352 357 359 356 357 357 357 356 356
347 349 348 349 350 350 356 352 352 355 354 353 352 347 344 346 349 354 354 357 358 359 360 359 356 358 353 345 350 353 346 347 346 349 351 359 359 356 355 357 357 356 356
346 350 348 348 348 348 351 350 350 351 351 349 344 337 343 349 350 351 349 343 335 346 345 349 347 344 346 346 347 351 346 346 346 348 354 358 359 355 355 355 357 356 355
345 347 348 347 347 346 347 348 348 348 347 346 342 337 345 344 345 344 344 340 342 342 342 344 346 347 346 347 346 347 349 346 345 347 353 359 358 355 353 356 356 356 356
343 346 346 346 346 346 344 345 346 346 346 347 345 341 340 339 342 342 343 345 343 345 344 344 346 346 341 337 344 346 347 344 345 349 350 359 359 358 353 351 353 354 355
344 344 345 344 346 344 343 341 343 344 345 346 345 346 343 341 340 342 345 346 345 345 345 342 344 340 342 340 338 343 343 342 345 348 350 353 360 360 357 354 351 350 350
343 343 342 344 345 342 342 340 341 344 345 345 346 347 347 346 346 347 345 345 346 346 346 342 345 341 337 337 333 339 339 340 342 346 348 349 355 359 357 356 356 355 354
341 340 341 346 344 342 341 339 341 342 343 345 347 349 349 345 346 347 346 346 346 346 346 345 343 337 336 333 331 336 337 338 340 343 345 346 349 352 357 356 356 356 356
339 338 338 343 343 342 341 342 344 343 341 345 348 349 349 347 350 347 346 345 347 342 347 346 342 340 336 338 334 333 334 336 338 343 342 345 345 347 348 355 359 359 355
337 337 339 341 342 342 343 342 343 343 343 344 347 348 349 351 348 344 346 344 337 345 345 344 341 339 337 340 337 331 330 335 336 337 339 341 342 343 345 348 349 350 356
337 335 338 339 341 343 342 340 337 338 339 342 345 348 349 352 349 346 346 343 343 345 344 343 333 333 328 332 329 327 330 332 334 336 336 338 340 340 341 344 345 345 347
336 336 338 338 340 344 343 344 339 338 338 340 343 347 349 351 352 349 346 345 346 346 343 343 337 336 330 332 327 322 322 325 328 330 334 338 337 339 341 342 342 342 342
337 337 338 338 340 344 344 342 341 340 339 338 339 343 348 351 353 351 348 346 347 346 343 342 340 335 327 332 331 324 320 317 321 326 329 336 336 336 337 339 340 341 341
337 340 340 339 340 344 344 342 340 337 335 335 337 339 348 351 352 353 350 349 347 347 345 344 342 337 329 328 330 335 327 326 319 319 326 329 333 334 335 336 339 341 340
339 340 341 340 340 342 344 343 341 336 337 339 338 339 343 348 351 354 352 349 347 347 347 345 342 338 329 326 326 330 329 329 325 320 319 323 329 329 329 334 338 340 339
339 340 341 340 340 341 343 343 341 340 338 337 338 337 338 345 349 350 352 349 348 348 347 345 346 342 336 330 326 328 327 325 325 324 320 320 324 326 328 331 334 338 338

GFSSE_sfc_thetae_054.txt.gz
Theta_e
344 350 361 363 361 363 361 361 362 363 363 363 362 362 361 361 362 362 361 361 360 358 358 359 355 353 356 356 357 358 357 360 361 361 361 362 360 360 359 359 359 354 359
347 351 362 364 361 362 361 361 362 363 363 361 362 361 361 360 359 361 361 360 359 358 359 357 355 353 356 356 357 356 358 359 359 359 361 361 360 360 359 359 359 356 358
349 355 358 364 362 361 361 362 363 362 362 362 362 362 361 361 361 360 361 359 358 359 359 357 356 356 355 355 357 357 356 359 360 359 361 357 356 360 360 360 359 357 358
352 355 356 362 363 362 361 361 363 361 362 362 362 361 361 361 361 360 360 361 360 358 358 358 356 356 356 356 356 358 356 356 358 356 352 355 355 359 360 360 359 358 358
352 354 357 363 363 362 362 363 362 361 362 362 361 361 359 360 360 361 361 360 358 358 358 357 357 356 356 355 355 354 356 356 355 351 351 354 357 358 359 358 359 358 357
353 354 361 362 362 361 362 362 360 361 362 362 362 360 361 361 360 361 360 360 358 357 358 358 358 356 354 354 354 356 356 356 353 349 353 356 355 359 357 356 357 358 358
351 352 356 363 363 361 361 363 360 361 362 362 362 361 361 360 360 360 360 359 360 359 359 359 358 356 355 355 355 356 357 356 349 350 351 353 357 359 357 358 357 357 357
352 353 355 361 363 361 360 362 360 361 361 361 360 361 362 362 361 361 360 359 359 359 359 359 357 356 356 356 357 357 357 354 351 351 353 355 358 358 358 357 357 357 357
354 354 352 354 358 361 360 361 360 361 361 361 362 362 362 362 361 361 361 360 359 359 357 356 356 356 357 357 357 358 358 355 352 353 354 355 358 356 356 357 357 356 356
352 353 350 351 352 353 355 361 360 360 360 360 360 361 361 361 360 360 359 359 360 359 357 357 356 356 358 358 357 359 357 357 353 354 356 354 358 353 357 356 357 356 356
351 350 350 349 350 351 354 356 360 361 361 360 359 360 357 353 353 356 358 360 359 359 358 358 358 359 358 357 359 358 357 352 352 353 355 356 358 356 355 356 356 356 356
346 349 348 349 350 351 356 353 354 356 355 354 354 351 349 351 353 354 356 359 359 358 359 358 358 358 352 351 356 356 350 351 352 354 355 357 357 353 356 357 356 356 355
345 350 348 348 349 350 352 351 352 352 352 351 348 345 347 351 354 353 351 344 341 349 348 351 349 348 349 350 351 349 349 350 351 353 355 358 357 355 356 356 355 356 355
343 347 348 348 347 348 349 350 350 350 350 349 346 341 348 349 349 349 348 345 346 347 346 349 351 352 350 350 350 349 348 350 350 352 356 357 358 353 353 356 356 355 355
343 347 347 347 346 347 346 348 348 348 349 349 346 340 347 346 346 345 347 348 348 349 349 347 351 349 346 342 349 351 348 348 350 351 354 355 357 355 352 353 354 355 355
344 345 346 346 346 345 343 345 346 346 347 348 347 347 341 343 345 346 348 349 350 350 349 347 350 347 344 342 346 349 349 347 349 351 354 358 358 358 353 350 350 351 352
343 345 344 344 345 343 343 343 344 346 347 347 347 348 344 347 346 347 348 350 350 351 349 348 350 346 343 338 343 346 346 347 349 351 353 353 357 355 355 355 353 352 351
343 343 344 346 344 342 342 342 342 344 346 346 348 349 349 349 348 349 349 351 351 351 351 350 348 340 342 338 339 343 343 345 346 350 351 352 355 357 355 356 357 356 355
343 342 341 343 342 342 342 341 341 343 344 345 348 349 350 351 349 351 349 350 351 350 351 350 347 345 341 341 338 340 341 341 343 345 347 349 351 353 354 357 358 357 355
342 341 340 342 341 341 341 342 343 344 344 344 348 350 351 351 352 350 348 350 345 349 349 351 346 343 343 342 336 335 337 342 342 343 344 347 348 350 350 352 355 356 357
340 338 339 339 340 341 341 339 341 340 343 345 347 350 351 353 353 348 349 347 345 349 349 348 340 338 337 338 336 334 336 338 340 342 342 343 344 346 347 349 351 352 350
338 336 338 339 339 343 342 342 342 341 342 345 346 350 352 353 353 349 350 347 349 349 347 346 344 340 337 338 333 331 329 334 334 335 340 342 343 344 345 346 349 349 348
338 335 337 339 339 343 343 342 341 341 341 342 344 347 350 352 355 353 350 349 349 352 348 349 345 340 336 338 335 332 327 327 329 333 336 340 343 343 344 345 346 346 347
337 338 337 339 339 342 343 342 341 339 337 338 341 344 349 352 353 354 352 351 351 352 349 349 348 343 339 337 338 335 334 333 330 330 333 336 340 341 343 343 345 345 347
339 338 338 338 339 341 343 343 342 340 338 339 341 342 346 350 353 355 354 353 351 351 351 351 347 344 337 336 336 337 337 334 330 329 328 332 336 339 340 341 342 345 347
340 339 339 338 338 340 343 343 342 341 337 339 338 339 341 348 350 353 355 353 353 352 351 349 350 346 340 337 335 337 337 335 334 330 327 329 331 337 337 338 340 343 346

GFSSE_sfc_thetae_057.txt.gz
Theta_e
351 355 361 362 363 362 361 363 364 364 362 363 363 361 360 360 360 360 361 361 359 357 359 355 354 356 357 359 359 358 360 361 361 363 362 360 360 361 361 360 361 356 359
352 356 362 365 363 363 362 363 363 364 363 362 362 361 361 361 362 362 361 360 357 360 357 355 353 356 356 358 358 358 360 361 361 362 362 361 360 359 358 358 360 358 359
350 357 358 364 362 362 362 363 364 363 362 362 362 362 361 359 361 361 360 358 358 359 357 357 357 355 356 357 357 357 359 360 359 360 360 358 358 359 360 359 359 359 357
351 356 356 364 363 362 362 362 363 363 362 362 361 362 361 360 360 360 360 359 358 359 359 357 357 356 356 357 358 356 358 360 359 360 358 357 356 358 359 359 359 358 358
353 357 357 364 363 362 362 361 363 362 362 362 361 361 360 360 360 361 360 358 357 358 357 358 357 357 356 356 355 357 358 357 356 357 359 359 357 359 359 358 358 357 358
353 355 360 363 361 363 363 360 362 362 363 362 361 360 360 360 361 360 358 358 357 358 357 357 357 357 356 356 355 357 355 355 354 357 357 357 359 359 357 357 357 358 358
351 356 357 365 362 362 362 360 362 362 362 362 362 363 362 362 361 361 359 359 356 358 357 359 356 356 356 356 356 356 357 354 354 356 356 358 358 359 359 358 357 358 357
352 353 356 363 362 363 362 360 362 362 362 362 361 361 363 362 361 360 360 360 359 359 357 357 356 356 356 357 358 359 356 352 352 354 357 358 357 360 358 357 358 357 357
352 353 355 361 360 361 362 361 361 362 362 361 361 362 363 362 361 361 360 360 358 357 356 356 357 357 357 358 358 357 357 353 354 355 354 356 358 357 357 356 357 358 356
350 352 354 359 355 356 357 360 361 361 361 362 362 362 362 362 361 359 359 359 358 357 356 356 357 358 358 358 358 358 358 356 354 355 353 354 358 356 357 357 357 357 357
349 352 354 355 357 360 359 358 360 361 361 361 360 361 360 361 359 357 359 359 358 359 358 357 358 358 358 359 359 359 355 353 353 352 354 355 357 356 356 357 357 356 356
347 350 353 355 355 357 355 360 361 360 359 359 361 361 359 360 360 357 358 359 359 359 359 358 357 358 355 355 355 356 354 354 353 352 352 357 358 355 357 357 357 355 355
348 348 352 355 357 357 357 358 358 359 359 360 362 358 359 360 361 358 358 354 354 354 354 353 354 356 352 354 354 354 354 354 353 351 354 357 358 356 357 356 356 355 355
346 348 352 355 356 358 357 357 358 357 358 357 357 354 360 359 359 357 356 353 354 356 358 359 359 360 358 357 355 354 354 354 351 351 354 356 357 353 352 357 356 355 354
343 348 351 356 356 358 359 357 357 358 356 356 357 351 358 359 360 356 356 356 357 359 358 359 357 354 353 353 355 355 354 354 352 351 353 354 357 353 353 355 355 356 355
344 349 352 354 356 357 356 359 357 357 356 356 357 351 354 358 359 354 355 356 358 360 360 359 357 354 351 352 356 356 355 354 353 352 355 354 354 353 351 350 352 353 352
348 350 351 353 354 355 356 356 355 354 354 355 357 358 353 354 357 359 359 358 359 361 360 363 358 356 348 350 355 355 355 355 352 352 355 357 354 354 355 352 350 349 348
348 350 352 350 351 352 352 353 352 352 353 355 357 357 356 358 360 362 359 359 360 360 361 365 358 351 349 348 351 352 354 354 351 351 354 357 357 355 354 354 355 355 354
348 350 351 352 350 351 353 352 352 352 353 355 356 357 360 359 357 361 360 360 362 359 359 359 356 354 348 346 348 351 351 349 349 348 352 355 357 357 358 355 355 355 354
348 350 351 350 352 352 352 353 351 349 351 354 355 356 360 359 360 360 362 360 360 361 363 360 358 355 351 345 343 346 349 351 353 349 351 351 354 355 355 357 357 356 356
349 349 350 350 352 350 348 347 348 347 351 353 355 359 360 360 361 362 360 360 359 360 363 358 353 351 349 344 343 342 345 350 351 351 352 352 351 352 353 356 355 355 354
347 349 350 350 352 352 349 351 351 352 353 356 358 359 361 361 363 361 360 358 358 357 360 357 354 344 347 346 343 342 335 340 345 348 350 350 350 353 352 351 354 355 355
346 348 349 352 352 354 355 352 352 353 353 352 354 357 360 362 363 363 360 360 359 368 363 360 353 350 343 347 345 343 334 332 340 345 346 348 351 350 352 353 352 353 354
346 348 351 352 353 353 356 353 355 348 347 350 353 356 360 362 363 364 363 361 361 364 366 359 357 354 350 343 344 344 346 344 334 332 343 347 349 349 351 351 350 351 353
345 347 347 352 354 356 356 356 351 352 351 352 352 357 361 362 362 362 364 362 362 363 364 361 360 358 350 346 343 344 348 346 344 339 334 340 345 347 350 350 349 349 353
344 346 347 351 352 355 354 355 356 356 353 349 351 350 352 355 358 362 363 364 364 362 362 361 362 360 355 349 347 348 343 340 339 340 337 341 338 345 347 349 349 348 350

GFSSE_sfc_thetae_060.txt.gz
Theta_e
355 359 361 362 360 362 362 361 362 362 363 363 363 362 360 360 360 360 362 360 358 360 356 355 357 358 360 360 359 360 361 362 363 362 361 360 361 361 360 358 362 354 359
355 357 361 362 362 363 364 363 362 361 362 362 361 361 361 362 363 363 361 358 361 358 356 354 357 357 359 359 358 360 360 360 362 362 362 361 360 359 359 360 363 358 359
353 356 360 364 364 363 363 363 363 363 362 362 362 361 361 362 362 361 360 358 360 358 357 357 356 358 358 356 358 359 361 360 360 360 361 357 359 359 360 360 359 358 358
354 354 359 364 364 363 364 363 363 363 363 362 362 361 360 361 361 361 359 359 359 359 358 358 357 357 358 358 358 359 360 361 360 359 357 354 355 359 359 359 358 358 358
351 352 362 364 364 364 363 363 362 362 363 363 362 361 360 360 360 360 359 358 358 358 359 358 358 357 357 357 358 359 358 358 357 358 357 360 356 359 359 359 358 358 359
351 352 362 363 362 364 362 363 363 363 363 362 362 361 362 360 360 359 359 358 358 358 358 358 358 357 356 356 357 356 357 354 357 355 356 359 358 359 358 358 358 359 356
349 352 361 364 363 363 361 362 363 363 363 362 361 361 362 361 361 359 358 357 358 358 358 357 356 356 357 357 357 357 355 351 353 353 356 357 357 361 359 357 359 358 356
347 350 360 362 364 364 361 363 363 363 362 362 362 362 362 362 362 362 361 360 359 358 358 356 356 357 357 359 358 357 353 352 352 355 357 358 358 359 359 358 358 358 353
348 350 358 356 363 362 361 363 363 363 362 362 361 361 363 363 362 361 360 358 357 357 356 356 357 357 358 359 359 357 353 351 354 354 354 354 359 359 358 358 357 356 356
348 350 356 355 356 362 358 362 362 363 363 362 360 362 363 362 360 359 360 358 357 357 356 357 358 357 358 359 359 358 357 355 350 350 351 353 357 358 357 357 357 356 356
346 349 354 351 355 358 359 361 362 362 362 363 362 363 362 356 356 358 360 357 358 357 356 357 357 357 360 359 359 357 359 350 349 350 351 356 359 357 357 357 357 356 356
343 346 350 351 354 356 353 360 360 358 358 359 359 361 358 359 359 357 360 360 358 359 358 358 358 357 359 353 354 357 350 351 349 350 352 355 359 357 357 357 356 355 355
344 346 349 352 356 355 355 356 356 356 357 359 362 360 359 358 356 356 355 356 356 358 354 356 357 354 354 352 353 351 353 351 348 349 353 357 357 356 357 356 356 355 354
343 345 349 352 355 356 356 355 355 354 355 354 357 363 361 358 358 357 354 355 357 358 358 360 354 359 359 359 354 352 351 350 349 348 352 355 356 355 357 356 356 355 356
343 345 348 353 357 359 359 355 355 355 355 356 359 359 361 358 358 356 357 357 359 357 355 356 354 354 356 358 355 354 353 352 351 349 351 355 354 353 356 356 355 355 355
344 345 348 352 356 358 358 361 357 357 357 357 357 356 363 368 361 356 357 356 357 359 356 354 354 351 352 353 356 355 353 352 353 356 350 355 355 352 351 352 353 354 352
345 347 348 352 354 358 359 360 358 357 355 355 357 361 359 362 363 364 357 357 357 360 361 359 358 356 347 349 353 355 354 353 352 353 355 353 354 355 353 350 349 349 348
346 348 350 349 351 355 357 358 355 355 355 356 357 358 359 361 364 366 360 357 360 358 356 354 353 348 347 347 349 349 351 351 352 353 353 356 356 353 355 355 355 354 354
348 350 350 351 350 352 356 355 355 358 357 357 358 358 363 362 363 366 358 361 367 362 353 352 350 352 346 346 346 349 351 349 351 349 352 355 354 355 353 356 355 354 353
349 351 352 350 352 354 353 354 352 353 356 358 358 359 365 362 363 364 362 367 360 355 354 354 356 353 351 349 342 346 349 350 350 350 350 349 351 354 355 358 356 356 356
348 350 352 351 354 352 349 347 349 349 353 355 357 362 364 364 366 366 361 364 366 355 355 359 357 355 345 348 348 344 345 349 350 350 352 352 349 349 352 354 353 353 354
346 349 352 353 355 354 349 352 350 353 353 355 358 363 365 365 366 364 365 362 365 354 358 359 357 347 349 348 344 340 334 339 344 344 348 350 351 353 352 352 354 354 354
346 349 351 355 355 356 357 351 355 356 357 356 357 358 362 365 366 366 366 365 368 359 354 359 356 353 343 349 352 347 335 332 334 340 347 346 351 350 354 353 353 354 354
346 350 354 356 357 356 357 356 359 352 348 350 354 355 358 366 365 366 367 365 364 358 364 357 355 354 353 345 346 346 351 348 333 331 341 345 349 348 351 351 350 352 353
347 349 353 357 361 361 360 360 353 356 349 351 352 361 365 367 366 364 368 367 368 358 362 361 362 361 350 347 343 342 347 342 347 338 335 339 344 346 348 350 350 350 352
348 348 352 358 361 362 359 356 361 361 358 351 355 354 354 356 360 366 366 368 368 364 361 360 363 364 359 355 348 348 340 338 339 339 338 341 340 346 348 349 349 349 350

GFSSE_sfc_thetae_063.txt.gz
Theta_e
354 357 360 359 360 360 362 362 362 363 363 363 362 362 360 359 360 361 361 359 360 357 356 358 358 360 360 360 361 362 363 363 363 361 360 362 361 360 360 359 363 355 359
355 358 361 362 361 362 362 362 362 362 363 363 362 360 360 361 361 359 359 361 359 357 355 358 357 359 359 359 360 359 361 361 363 362 363 361 360 361 360 362 363 357 358
353 356 359 363 363 362 362 362 362 361 362 362 362 361 363 361 362 360 358 360 358 359 357 357 359 358 357 360 360 359 361 360 360 358 362 356 358 361 360 359 360 359 359
353 355 356 364 365 363 363 363 363 363 363 363 362 361 361 361 360 360 359 360 358 359 358 358 358 358 358 359 360 361 361 358 359 357 355 355 354 360 360 360 358 358 356
351 352 358 364 364 364 364 363 363 362 362 362 362 361 360 360 360 360 359 359 359 360 358 359 358 358 359 357 360 359 357 356 358 358 356 360 355 358 359 359 358 358 360
350 352 361 363 363 363 363 363 363 362 362 362 361 361 360 360 360 359 359 359 358 359 359 359 358 358 357 357 356 356 355 354 359 357 357 357 357 359 359 360 360 355 359
349 352 359 365 363 363 363 363 363 363 361 362 361 361 361 361 359 359 359 359 358 358 358 358 358 358 357 358 357 353 351 353 357 357 355 356 357 360 358 360 359 357 357
347 351 355 363 363 363 362 362 363 362 362 362 362 362 361 361 362 362 361 359 359 359 357 357 357 357 358 357 357 352 352 353 354 355 356 355 358 360 359 358 357 355 354
347 350 354 359 363 362 363 362 363 363 362 362 363 362 363 362 361 360 359 359 357 356 358 357 356 358 359 359 357 353 351 354 355 353 350 352 359 360 359 357 355 356 357
347 349 351 355 359 357 362 362 363 363 362 361 361 362 363 361 358 357 361 360 357 356 358 356 357 358 359 359 356 355 356 358 351 353 349 354 361 359 358 358 357 357 356
344 348 349 351 357 357 361 362 362 363 363 362 362 362 361 355 357 357 360 359 358 357 356 356 357 359 360 359 357 357 359 349 348 348 351 358 360 358 358 358 357 356 356
341 345 347 350 352 354 352 361 361 360 357 358 356 361 358 358 360 354 358 359 358 358 358 357 357 356 359 354 355 357 353 348 347 349 353 357 359 358 358 357 356 356 354
342 345 345 350 353 351 355 356 354 357 354 357 359 358 356 354 357 352 355 355 356 360 354 355 355 357 356 353 354 351 347 346 347 348 354 361 357 358 357 357 356 355 356
341 344 345 350 353 353 351 352 355 352 351 352 356 360 360 359 355 358 356 356 357 353 354 355 353 355 355 352 352 349 348 345 345 348 355 360 358 357 356 356 356 356 355
340 343 346 351 356 358 360 365 353 351 350 354 357 360 357 358 357 360 355 352 362 355 352 353 351 354 356 353 352 349 348 348 348 348 350 355 355 356 356 356 356 355 355
342 343 348 351 356 357 361 368 355 352 361 356 357 357 363 359 361 356 362 358 354 350 353 356 358 354 358 351 353 353 350 350 354 354 350 354 354 353 353 354 356 355 352
342 344 348 351 354 357 365 358 355 355 355 357 358 362 361 365 363 366 360 350 355 359 362 357 356 349 348 350 351 353 349 351 351 355 352 352 354 355 353 351 350 349 349
344 344 348 348 352 355 358 358 355 353 355 356 357 359 360 362 363 366 357 356 356 353 353 350 349 351 344 347 349 348 348 349 351 351 353 354 356 354 356 356 354 353 353
345 346 347 350 351 355 359 358 359 360 358 358 363 360 363 364 363 364 357 360 361 358 355 350 344 351 346 343 344 345 354 346 352 348 350 353 353 353 355 359 358 356 354
345 348 349 349 357 360 357 358 354 355 358 360 358 360 364 363 363 364 358 360 359 356 348 357 354 354 353 346 345 345 347 346 346 347 346 347 349 351 353 357 356 354 357
345 348 350 353 363 356 352 350 350 350 353 359 359 363 364 363 364 365 359 361 360 358 352 356 352 351 345 352 346 341 343 345 346 345 346 346 345 347 347 350 350 353 355
345 349 355 357 363 358 353 356 354 356 352 354 355 362 364 362 365 363 367 362 361 358 358 360 356 348 343 350 340 344 338 341 343 343 343 343 347 347 348 349 349 351 350
345 348 355 360 363 360 361 357 357 358 357 352 357 356 361 363 364 366 365 359 362 360 353 358 357 360 347 346 355 345 338 334 335 338 342 344 349 347 350 350 350 350 352
344 348 357 360 363 361 364 355 361 351 347 349 354 354 358 364 364 364 367 366 364 360 365 361 356 360 356 346 343 345 357 350 339 331 340 343 347 346 350 350 350 351 352
345 347 351 361 364 363 363 362 354 357 350 351 351 367 373 371 365 362 366 367 365 359 364 361 361 363 352 350 341 340 347 337 346 343 336 339 344 346 348 350 348 349 354
347 347 352 360 364 366 364 362 364 360 360 348 352 355 353 357 360 365 364 371 366 364 363 362 365 363 367 358 352 344 338 338 339 339 337 341 341 344 345 346 348 347 348

GFSSE_sfc_thetae_066.txt.gz
Theta_e
351 354 359 359 359 359 361 360 361 362 364 362 361 361 358 358 361 361 360 360 357 358 359 359 361 360 361 362 362 364 364 365 365 363 362 361 360 360 361 362 361 354 360
351 355 360 362 362 361 362 362 362 364 362 361 362 360 359 361 360 359 360 359 357 357 359 358 359 360 360 360 360 362 362 365 365 363 362 363 361 359 362 362 360 356 360
352 356 358 362 362 363 363 362 362 363 363 362 361 362 363 361 360 359 360 359 360 358 358 360 359 359 361 361 360 361 360 360 361 359 362 355 356 360 361 361 360 359 358
353 355 356 362 363 363 362 364 363 362 362 362 362 362 362 360 360 360 360 359 360 360 358 359 358 359 360 360 361 361 359 360 358 358 355 351 353 360 360 358 357 358 358
350 353 357 366 365 364 364 363 363 363 363 362 361 361 360 360 360 359 360 360 360 359 359 359 359 360 358 360 359 359 359 358 358 358 354 353 350 358 358 358 358 359 358
346 352 361 366 363 365 363 363 363 363 363 362 362 361 361 362 361 360 360 359 360 359 358 359 358 358 358 356 357 357 357 358 360 354 352 356 355 358 359 356 358 359 358
348 353 357 365 364 363 363 363 363 362 363 362 361 362 362 362 360 360 360 359 359 359 358 359 359 358 358 356 354 353 355 363 355 354 354 355 356 359 359 357 359 358 354
347 351 356 362 364 364 363 364 363 362 363 361 364 363 362 363 361 360 359 360 360 359 358 358 358 358 357 356 353 351 352 357 356 353 354 354 358 361 359 355 358 353 352
346 349 355 356 361 363 364 364 363 363 363 365 364 365 366 365 363 362 362 359 358 358 357 358 359 359 358 357 353 354 354 354 352 352 351 354 359 360 358 355 357 358 356
346 349 355 355 355 359 359 363 363 363 363 364 365 366 365 363 359 360 363 362 358 358 357 358 359 359 359 357 356 356 357 357 348 348 352 356 358 359 358 357 357 357 357
344 347 349 351 354 362 361 362 363 363 362 362 361 362 360 356 357 356 363 362 358 359 358 358 358 357 357 356 358 357 357 352 347 350 353 360 360 359 359 358 357 357 357
341 342 347 353 352 358 354 362 362 360 358 359 359 360 363 355 360 354 360 363 359 360 360 358 349 354 357 355 353 358 355 349 350 350 354 361 361 358 358 357 356 355 354
342 342 346 353 355 353 355 360 359 358 359 359 367 359 362 358 361 354 356 356 357 359 353 355 355 352 354 353 353 354 349 346 349 350 357 361 362 358 357 356 356 356 355
341 340 347 350 358 352 356 356 354 357 355 355 358 362 359 351 351 358 352 361 352 352 356 349 354 352 352 352 352 347 349 346 348 350 358 361 361 358 358 357 356 356 355
339 343 347 350 365 352 355 352 354 350 352 357 358 356 358 362 354 360 349 353 352 357 354 348 355 352 347 353 353 352 346 351 347 350 352 360 360 359 357 357 355 356 355
341 344 349 350 362 363 361 367 352 360 352 357 360 358 354 363 364 363 354 353 352 357 355 356 357 354 353 347 350 349 352 352 353 348 349 353 360 360 358 357 357 355 354
343 347 349 350 355 362 357 360 365 359 357 349 362 368 360 359 365 359 352 353 356 362 361 358 361 354 349 351 352 348 352 354 349 350 349 349 352 358 357 356 356 354 351
343 349 349 345 351 357 362 367 365 360 361 358 357 364 366 358 369 354 355 354 357 354 359 347 357 352 346 347 346 343 343 351 353 352 353 352 351 350 356 357 356 355 352
346 350 349 352 353 355 361 363 360 359 363 357 364 360 368 368 368 361 352 358 356 362 362 356 344 358 349 349 346 348 352 347 346 348 352 355 355 352 352 358 358 358 357
347 349 350 353 358 359 361 366 357 362 359 359 365 365 369 364 368 357 358 364 363 348 352 358 344 350 347 346 343 345 341 348 348 349 348 352 353 355 355 352 355 355 358
346 348 351 355 359 357 356 355 353 352 359 352 353 359 368 365 365 359 361 363 363 351 351 360 359 355 346 352 341 344 348 344 347 349 348 345 346 349 352 357 353 353 352
345 347 353 355 359 356 358 359 358 354 356 353 356 362 366 367 368 363 359 363 352 362 362 357 347 347 343 346 345 345 333 339 347 341 346 345 345 345 347 349 351 351 354
345 348 352 355 358 357 361 358 363 367 361 356 361 361 366 367 369 365 365 363 366 355 356 360 360 343 343 350 348 346 337 332 342 342 342 347 348 348 351 351 350 352 350
345 350 353 356 360 357 362 355 360 354 351 355 356 361 362 369 368 368 367 369 368 361 357 364 362 351 344 346 354 353 348 348 339 333 342 348 348 348 349 353 349 351 352
347 349 352 355 359 356 357 361 357 355 354 359 357 362 363 371 371 366 371 369 365 364 365 364 362 364 360 353 348 347 346 348 350 337 336 342 347 348 352 352 351 351 353
347 348 353 354 356 358 356 357 359 354 360 357 358 354 359 362 364 371 368 367 368 367 364 364 368 366 365 363 355 350 342 343 341 343 339 341 338 346 350 352 348 348 353

GFSSE_sfc_thetae_069.txt.gz
Theta_e
346 349 357 358 359 359 360 361 362 365 361 362 361 359 360 362 362 361 361 356 357 360 359 362 361 362 363 363 364 364 364 367 366 363 362 360 360 361 363 360 358 353 360
349 352 359 360 360 362 362 362 363 364 362 362 360 360 362 361 361 361 359 357 358 359 358 360 360 361 361 362 363 363 364 366 366 364 362 361 360 360 361 359 359 357 359
350 354 358 363 362 363 363 364 363 362 362 362 361 361 361 360 361 360 360 360 357 360 359 359 360 361 361 361 362 362 361 362 362 363 361 354 355 361 360 359 358 359 357
352 353 355 362 363 363 362 364 364 363 363 362 363 362 361 361 361 361 360 361 359 359 359 359 359 360 361 361 362 360 361 360 361 362 352 351 353 359 357 359 357 358 358
351 353 355 363 365 362 363 363 365 362 363 362 361 361 361 361 360 359 361 360 360 359 360 359 359 359 360 359 359 359 359 360 362 357 348 347 351 356 361 359 358 355 358
350 354 362 363 364 363 363 364 364 363 363 363 363 362 362 361 361 361 360 361 360 359 359 358 358 359 357 358 359 358 360 361 360 352 353 355 351 359 358 359 359 359 359
349 356 360 366 366 363 363 364 363 363 363 362 363 362 363 361 361 361 360 361 359 360 360 358 358 357 357 356 356 357 359 361 351 351 352 351 352 360 357 359 358 353 350
350 355 357 363 364 364 363 363 363 363 363 362 362 361 362 360 360 360 360 361 360 359 359 358 357 357 356 355 353 356 356 361 353 351 351 352 357 360 358 358 351 354 358
351 354 356 357 360 364 363 363 363 363 362 363 362 363 363 363 361 360 360 360 359 358 358 358 358 357 356 355 353 356 359 361 350 351 352 352 359 357 355 355 355 356 356
349 353 350 354 355 355 357 363 363 363 363 363 363 362 361 361 361 360 363 362 359 358 358 358 358 358 355 354 355 356 361 361 351 351 352 354 359 358 357 357 358 358 358
347 349 348 350 353 354 356 359 364 363 363 364 363 361 361 350 352 355 360 362 359 358 358 358 358 356 356 356 356 356 355 350 349 351 353 358 360 358 358 357 357 356 354
343 346 345 347 353 353 357 355 355 356 355 353 355 353 352 351 347 354 359 363 359 359 359 353 356 357 356 351 351 353 354 348 349 351 354 360 361 359 358 356 357 353 355
342 343 345 349 351 349 351 355 354 352 352 353 354 351 354 349 348 349 350 351 350 357 352 351 348 349 350 349 350 348 349 347 348 351 358 361 360 357 357 357 356 356 355
337 344 346 347 350 347 352 354 353 352 352 349 348 352 347 341 343 350 348 351 345 349 350 350 346 347 347 347 349 347 346 346 348 351 356 361 360 357 356 356 356 355 354
338 343 344 346 346 347 349 350 348 349 350 350 350 348 348 349 347 349 349 347 347 348 348 347 348 347 348 346 349 346 345 346 348 351 351 361 361 360 357 357 356 355 354
340 340 341 348 346 346 345 347 348 347 352 352 348 341 345 348 353 348 346 347 346 347 349 347 348 347 346 346 344 345 344 344 346 347 348 353 361 361 358 357 356 355 354
341 340 342 346 348 349 349 349 348 346 350 350 352 347 351 350 351 351 347 349 345 348 345 346 349 349 345 343 345 341 345 345 343 345 345 348 355 360 359 358 358 356 354
341 340 341 346 349 348 346 353 348 347 347 354 355 354 354 352 351 349 347 347 350 349 349 339 346 343 344 342 340 341 342 344 344 344 345 346 346 349 356 358 358 357 352
341 340 338 340 346 347 347 348 348 344 351 351 354 354 354 356 355 349 346 346 348 347 348 348 341 346 340 341 340 340 342 344 347 347 347 348 345 347 347 356 357 357 354
342 341 342 343 346 348 349 346 349 352 350 354 354 353 358 355 355 351 350 349 352 346 343 346 338 341 336 341 341 341 341 340 340 342 344 350 348 348 347 348 351 353 358
342 340 343 344 346 350 349 346 345 343 345 348 353 356 357 357 347 342 349 351 348 344 340 347 345 338 339 343 338 336 336 339 338 341 342 345 346 350 350 347 349 349 351
340 339 342 346 347 349 348 348 345 345 350 347 349 351 357 357 352 352 350 351 348 346 348 344 341 338 335 336 334 335 326 329 338 338 339 341 336 347 348 348 349 347 345
338 340 341 349 348 349 347 346 349 350 349 344 348 349 355 357 357 355 351 352 350 349 347 347 345 341 336 338 341 334 325 323 331 333 329 336 336 339 340 341 342 348 345
338 343 342 349 348 347 350 343 344 344 342 346 349 352 355 355 357 357 355 352 352 347 347 348 351 341 337 335 344 346 336 335 329 321 331 336 337 340 340 341 341 342 342
340 342 345 350 348 347 349 345 344 342 345 346 350 352 352 355 357 358 356 355 352 348 349 349 349 349 345 341 340 334 336 334 336 329 328 333 337 337 340 339 342 343 342
342 341 346 349 346 346 347 349 344 343 343 347 346 348 352 354 356 357 361 355 353 353 352 351 351 348 349 348 347 342 330 329 330 333 332 333 330 334 341 342 339 343 344

GFSSE_sfc_thetae_072.txt.gz
Theta_e
343 348 358 359 360 360 360 360 363 363 361 360 359 361 363 361 361 358 356 359 359 360 361 362 362 362 363 363 363 363 362 363 365 362 360 360 360 360 359 357 358 354 358
346 352 359 360 361 361 360 362 363 362 362 360 360 362 361 361 361 357 356 357 358 358 361 360 361 361 362 362 363 364 363 365 366 363 361 362 361 359 358 357 357 354 357
346 353 358 363 362 361 362 362 361 362 362 360 362 361 361 361 361 359 358 359 359 359 359 359 360 360 361 361 362 361 361 362 364 361 361 353 353 359 357 359 357 356 358
350 354 357 363 364 361 363 363 363 362 362 362 362 361 360 361 360 360 359 357 359 359 358 360 360 360 360 361 360 360 360 360 362 359 350 351 350 359 357 357 357 358 357
351 353 356 362 363 362 362 362 363 363 362 361 362 362 360 361 359 360 360 359 359 359 359 359 359 360 360 359 359 358 359 361 359 352 349 348 350 356 359 356 357 356 357
351 353 360 363 362 362 363 362 362 362 362 361 361 362 361 360 360 360 360 360 359 359 359 358 359 359 358 359 358 360 361 361 358 352 352 354 351 360 359 358 357 356 351
350 355 357 365 365 363 362 362 363 362 362 362 362 362 361 360 360 360 360 359 359 359 358 358 357 357 359 359 359 360 361 360 351 351 350 350 351 359 358 357 352 349 351
354 357 358 364 365 365 363 363 363 363 362 362 362 361 360 360 360 359 360 359 359 359 358 358 356 357 357 357 358 361 363 359 353 350 350 350 357 360 357 351 354 355 354
355 354 355 357 360 364 363 363 362 363 363 362 362 361 360 360 360 360 360 360 358 358 358 357 356 356 356 356 356 358 361 358 349 350 352 352 358 357 353 352 355 354 353
352 354 352 353 355 355 357 364 363 363 363 362 363 362 361 361 360 359 362 361 358 358 358 357 357 357 356 357 357 362 361 358 350 349 351 353 357 357 358 357 356 356 356
350 350 351 352 352 353 354 359 363 363 363 362 361 361 359 350 351 353 358 360 358 358 358 358 358 358 357 358 360 361 356 348 350 350 351 357 359 357 357 356 357 356 354
344 345 350 351 351 353 357 355 353 356 354 353 355 353 349 349 349 352 357 360 358 358 356 357 358 358 354 348 349 353 349 347 349 351 352 359 360 357 356 356 354 352 355
344 344 347 350 351 351 353 352 352 352 351 350 349 349 349 349 349 351 349 349 349 354 349 347 347 347 347 347 349 348 349 348 349 351 356 361 361 357 355 354 353 355 354
343 342 346 351 349 345 350 352 352 351 350 350 350 349 343 342 346 345 347 347 345 347 347 345 344 346 345 346 346 345 346 347 347 350 355 361 359 356 356 355 355 353 354
340 342 344 349 347 345 350 349 349 348 350 347 348 349 343 342 344 348 346 345 346 349 346 344 344 344 344 346 346 343 345 346 348 350 351 359 360 358 355 355 356 354 353
340 342 345 345 346 346 347 346 346 346 347 349 344 347 347 348 345 345 343 339 341 346 345 345 343 345 343 344 343 343 344 346 348 349 349 352 360 360 357 355 356 354 354
341 343 342 343 345 345 345 345 346 346 350 347 342 341 347 350 349 343 344 344 344 344 346 344 346 346 343 342 341 342 343 344 345 346 347 349 355 359 358 357 356 355 354
341 340 344 347 347 345 346 348 345 344 348 350 346 347 349 352 349 346 343 343 346 345 344 340 344 346 340 341 339 341 341 341 341 343 345 348 350 351 357 359 359 357 354
337 342 341 346 343 343 348 345 344 345 348 350 351 350 350 351 351 347 345 345 344 345 346 338 342 339 338 339 338 337 340 340 340 343 342 343 344 345 346 355 359 358 353
338 340 341 344 342 343 346 345 345 345 347 350 350 350 352 351 351 348 346 346 347 342 344 343 338 338 337 337 339 337 338 339 341 342 344 345 343 345 343 344 348 351 357
338 336 339 341 340 343 344 342 341 342 345 350 350 352 353 352 349 346 348 349 348 340 340 341 342 333 335 337 333 333 334 337 335 338 341 345 346 346 344 345 345 347 349
337 337 338 342 341 344 344 343 343 342 343 350 350 353 353 352 344 346 347 348 344 340 343 342 338 333 333 333 332 329 324 326 333 336 338 342 342 346 348 347 346 346 345
336 338 340 343 342 345 345 345 344 345 344 344 344 347 353 354 350 352 349 349 346 345 343 341 339 335 330 334 335 332 322 319 327 330 331 336 337 337 344 346 347 347 345
336 340 342 344 343 346 344 342 342 343 340 341 343 346 350 355 353 352 350 351 347 346 345 345 346 336 333 332 340 341 332 330 326 318 327 331 333 336 338 338 341 344 345
338 338 344 345 344 346 345 341 343 339 340 343 344 346 349 350 353 353 352 351 350 345 344 346 347 343 336 337 337 332 335 331 331 326 322 327 334 335 337 337 339 339 339
339 338 345 344 343 345 345 340 340 340 339 343 344 347 348 349 351 352 353 352 349 347 346 346 347 346 346 344 343 340 330 324 327 328 328 327 328 331 335 338 337 339 340

GFSSE_sfc_thetae_075.txt.gz
Theta_e
342 346 357 358 359 360 361 361 360 360 358 358 360 360 359 360 357 357 358 358 361 361 361 361 362 363 362 362 361 362 362 361 361 361 361 360 359 358 359 358 356 351 357
343 350 358 359 359 360 360 362 362 360 358 358 361 361 361 360 356 355 356 357 359 359 359 360 361 361 362 363 362 363 362 361 364 362 361 360 358 356 356 357 357 351 355
344 352 356 362 361 361 362 362 361 361 359 360 362 360 361 359 358 357 359 358 357 359 358 359 360 361 361 362 362 362 362 362 361 361 360 351 352 357 358 357 357 353 353
349 352 356 363 362 361 362 362 362 361 360 361 361 360 359 360 359 357 358 359 358 358 359 359 359 359 360 360 360 360 361 361 359 359 350 349 352 357 356 357 357 357 351
350 353 356 362 362 362 363 362 362 361 361 361 361 360 361 360 359 359 359 358 359 359 358 359 358 359 359 359 359 359 359 359 358 353 348 348 347 356 356 357 355 356 353
351 353 360 362 362 361 361 362 362 361 361 361 360 359 360 359 359 359 358 358 358 357 358 359 358 358 359 359 359 359 360 358 357 350 351 353 350 357 356 356 352 353 354
348 353 357 363 362 362 363 362 362 361 361 361 361 360 359 359 360 359 359 359 358 357 357 357 357 358 358 358 360 360 359 359 350 349 349 348 350 359 359 353 349 355 352
351 354 356 362 363 362 362 362 361 361 361 361 361 360 359 360 360 360 359 358 359 357 356 356 357 357 357 359 361 362 361 358 351 348 349 349 358 357 352 352 352 351 353
355 354 355 356 359 363 362 362 362 361 362 361 361 360 359 359 358 360 359 359 358 357 357 356 357 357 357 357 357 360 359 357 348 349 350 350 359 353 351 357 356 355 355
352 353 352 353 354 354 356 362 362 362 362 361 360 359 359 359 359 359 361 360 358 357 357 357 357 357 356 358 358 360 358 357 348 349 350 350 357 354 354 356 355 355 351
350 349 350 351 352 352 354 357 362 362 362 361 358 360 358 350 350 351 358 359 359 358 357 357 356 356 357 359 361 360 356 349 348 349 350 356 359 357 357 356 356 355 351
346 347 349 350 350 351 357 354 353 355 353 353 352 349 348 348 348 352 356 358 358 359 358 357 357 357 353 347 351 355 346 348 349 349 350 358 359 356 355 355 351 352 353
345 349 348 349 350 351 352 351 351 351 351 350 350 348 346 347 349 350 349 348 349 352 346 348 347 347 346 345 347 346 346 348 348 350 354 359 359 355 354 355 352 355 353
341 346 348 349 349 347 350 350 349 349 348 347 346 347 344 343 344 345 346 345 346 345 344 343 343 343 344 345 345 345 345 347 346 350 353 359 359 355 353 355 354 353 353
339 341 346 348 346 345 349 348 349 348 349 348 347 346 342 343 343 344 345 342 343 345 344 342 342 342 343 343 343 344 344 345 347 349 349 357 359 357 354 354 355 353 352
340 339 344 346 345 345 347 347 347 346 348 346 346 345 342 342 344 345 343 341 342 343 344 343 342 343 342 340 341 342 343 345 348 349 349 350 358 358 355 355 355 354 353
340 340 342 344 344 344 346 347 346 346 348 346 343 345 346 347 344 344 342 338 340 343 343 343 343 344 342 341 340 342 343 344 346 347 348 348 351 357 356 355 355 354 353
340 340 342 347 344 343 344 344 344 345 347 346 342 342 347 349 349 342 343 342 342 342 342 340 342 341 339 339 336 339 339 341 343 344 345 347 349 352 354 357 358 357 354
340 340 340 342 343 342 344 344 342 344 346 346 344 344 347 351 348 344 342 343 344 343 340 338 341 338 336 337 336 338 338 338 338 342 342 344 346 348 346 353 360 360 356
340 341 342 344 341 344 344 342 341 343 346 347 347 347 348 350 349 345 342 343 345 342 342 337 338 337 336 336 337 336 337 338 339 339 340 342 341 343 342 343 344 350 356
339 340 341 341 339 342 340 340 340 340 343 346 348 349 351 350 349 345 345 347 344 337 340 338 337 333 334 334 332 331 331 336 336 338 340 342 343 342 343 342 341 344 345
338 339 341 341 339 342 341 341 341 342 343 344 346 349 351 350 346 346 346 346 343 337 342 341 335 332 332 333 330 326 323 324 330 334 336 339 341 344 345 345 345 344 344
337 338 341 340 340 342 341 342 342 343 343 343 343 347 350 350 344 347 346 347 342 340 342 338 336 331 329 332 333 329 321 319 324 329 328 334 337 337 341 345 346 346 344
335 338 342 341 341 341 341 341 340 339 338 341 342 343 349 353 348 348 348 348 345 344 341 340 341 334 330 329 337 338 329 326 324 317 323 328 332 335 334 338 342 344 345
336 336 338 341 340 342 342 341 340 339 340 340 342 342 345 349 350 351 349 349 345 344 343 344 343 337 334 333 335 330 332 330 329 323 322 323 331 333 334 336 337 337 340
336 337 339 340 340 342 341 339 340 339 338 339 340 341 343 346 349 350 350 348 348 345 344 344 344 343 341 340 339 337 330 325 325 327 325 326 325 329 332 335 335 337 338

GFSSE_sfc_thetae_078.txt.gz
Theta_e
338 345 358 359 360 360 361 359 359 358 359 360 359 359 359 357 357 358 359 361 361 361 362 362 363 362 362 362 363 362 361 362 361 361 360 360 359 358 356 357 357 351 354
342 349 359 359 359 360 361 360 359 358 358 361 360 361 360 355 354 356 357 359 360 360 361 361 362 362 360 361 361 362 361 360 360 361 358 356 357 357 357 356 355 353 355
344 351 356 362 360 360 361 362 360 358 358 361 360 360 359 357 357 358 357 357 359 359 361 360 361 361 361 362 361 362 360 360 361 359 360 354 354 357 357 356 353 357 357
349 352 355 362 361 361 361 361 360 359 360 360 359 360 359 359 357 360 359 359 358 359 360 360 360 360 361 361 361 361 361 359 360 358 352 353 352 357 358 357 354 351 352
350 352 355 362 361 361 361 361 360 359 360 360 359 359 358 359 358 357 359 358 358 359 360 359 359 359 358 359 359 361 360 359 357 353 351 352 355 356 357 357 354 356 355
351 354 360 361 361 362 361 361 360 359 360 359 359 359 359 359 359 359 359 358 358 358 358 359 359 359 358 358 358 360 359 358 357 354 355 355 354 356 355 353 354 353 352
349 353 356 363 361 360 360 361 360 360 360 358 359 359 359 359 359 358 358 358 357 357 358 357 358 358 358 359 359 360 360 358 352 352 350 352 356 358 353 349 357 351 354
350 353 355 361 361 361 361 361 361 360 359 359 359 358 358 358 358 359 358 357 356 356 356 357 358 357 358 360 361 361 359 357 353 350 351 355 357 354 350 350 351 354 355
353 352 354 356 358 362 361 361 361 360 361 360 360 358 358 359 357 357 357 358 356 354 356 358 357 358 359 359 360 360 358 356 351 352 352 355 355 352 356 357 356 355 353
351 353 352 354 356 354 356 361 361 361 360 359 359 359 359 358 357 356 359 360 356 356 357 357 357 357 359 360 360 359 357 357 352 352 352 354 356 352 355 355 354 351 354
350 349 350 351 352 353 355 358 361 362 360 359 358 359 356 351 353 356 357 359 357 356 357 357 356 356 359 360 360 359 356 352 351 352 353 355 357 356 356 357 356 352 355
345 348 349 350 351 352 357 354 354 356 355 354 353 350 350 350 351 354 357 359 358 357 356 355 356 357 353 352 358 358 350 351 352 352 354 357 359 356 357 354 352 352 353
345 349 348 349 350 352 352 352 352 352 352 352 350 349 349 349 351 350 352 351 352 354 351 350 349 350 349 348 351 349 350 351 352 353 354 358 358 352 355 351 353 354 353
343 347 348 349 349 350 352 350 350 350 350 349 349 349 347 347 349 349 349 350 349 348 345 347 347 348 348 349 349 348 349 351 351 353 356 358 359 353 352 351 353 352 352
342 345 346 348 348 348 350 349 350 350 349 349 348 349 347 346 346 347 348 346 347 349 346 347 347 346 348 347 347 348 348 349 351 353 355 355 356 354 352 353 352 350 352
340 340 345 347 346 347 348 348 348 349 350 350 349 348 346 346 346 348 346 345 346 349 348 348 347 348 346 344 346 347 348 349 351 352 353 354 355 354 353 353 353 352 351
338 339 342 345 345 345 347 348 348 348 350 348 348 348 346 346 347 348 347 344 345 348 347 348 347 348 345 345 344 347 348 349 350 352 353 353 355 357 356 355 354 354 353
338 338 342 349 344 344 346 347 347 348 349 348 346 347 348 350 349 347 346 345 346 348 347 345 347 347 344 343 343 344 344 347 348 350 351 352 352 354 355 357 358 356 355
339 339 341 345 343 343 345 346 345 348 347 349 346 344 349 351 351 346 347 347 349 349 345 344 346 344 342 343 341 343 343 343 345 345 346 348 349 353 352 352 356 359 357
340 340 342 343 343 343 344 344 344 345 347 348 347 346 350 351 350 348 348 349 349 348 346 343 345 341 342 342 341 341 342 343 344 342 343 344 346 348 349 348 349 349 355
340 339 340 341 342 342 341 340 340 341 345 349 349 350 351 352 350 347 347 346 349 347 346 344 342 341 340 340 340 338 338 341 342 344 345 346 346 347 347 347 347 347 347
338 339 340 342 340 343 343 342 343 344 346 349 350 351 353 353 350 349 349 350 348 343 347 346 343 338 338 339 336 333 331 333 335 340 341 343 345 347 349 350 350 350 350
337 339 340 341 341 344 343 343 343 345 345 346 347 349 352 353 350 349 349 350 347 345 345 346 342 341 338 339 340 337 330 327 329 337 337 338 342 343 346 347 350 352 352
337 340 341 342 341 343 342 342 342 341 341 344 346 348 352 354 350 348 351 351 349 346 347 345 344 341 340 338 342 341 336 335 332 330 334 335 338 339 342 344 345 347 351
337 339 341 342 341 343 342 343 342 341 342 344 345 346 349 352 352 351 352 352 350 349 349 349 347 344 341 341 341 338 340 337 336 331 331 335 339 341 342 342 344 345 347
337 338 341 341 340 342 343 340 341 341 341 341 342 344 345 349 352 352 352 351 351 348 349 350 351 347 346 345 344 343 341 337 335 334 332 334 333 339 340 343 343 344 345

GFSSE_sfc_thetae_081.txt.gz
Theta_e
348 355 359 361 362 360 360 359 360 360 360 359 359 358 358 358 359 361 362 362 362 362 364 363 363 363 363 363 363 362 361 360 362 361 360 360 358 358 358 357 356 354 357
351 356 360 361 361 362 360 360 358 360 362 360 362 360 355 355 358 358 361 361 361 361 362 362 362 360 362 362 362 362 361 360 362 358 357 358 358 358 357 356 356 355 358
350 356 357 363 361 362 361 360 359 359 361 361 361 359 358 357 358 357 359 360 360 361 360 362 362 362 362 362 362 360 360 362 361 359 358 356 357 358 353 357 358 356 356
351 354 356 363 362 362 363 361 359 360 361 360 361 360 361 358 360 358 359 359 359 361 360 361 361 361 363 362 362 361 360 360 359 356 356 350 355 359 356 351 354 351 352
353 355 358 362 362 362 361 361 360 361 360 360 360 359 359 358 358 359 358 359 360 360 360 361 361 360 359 358 362 360 360 359 358 353 355 355 356 356 357 354 357 357 355
353 355 361 361 362 362 362 362 361 361 360 360 359 359 359 359 359 359 359 359 359 359 360 359 360 358 358 357 360 360 359 358 356 357 354 354 355 355 355 355 352 353 354
351 356 358 363 362 362 363 360 361 361 358 358 359 359 359 359 359 359 359 357 359 358 359 359 359 358 356 357 357 359 359 358 356 357 356 357 357 355 354 356 353 356 356
352 355 358 362 361 360 361 361 360 361 359 359 358 359 359 358 358 357 358 357 358 358 359 359 359 357 359 359 360 360 358 357 353 353 356 355 355 353 352 353 357 356 355
354 356 359 357 361 361 361 361 361 360 361 360 360 359 359 358 359 357 357 357 356 357 359 359 359 359 361 360 360 360 359 356 353 354 355 350 356 358 358 357 356 354 356
355 355 356 360 360 360 361 361 361 361 360 359 359 359 359 358 357 358 358 359 357 358 358 358 358 360 359 358 359 358 357 355 354 353 353 349 357 356 355 354 351 355 354
352 355 356 357 360 362 362 361 362 361 361 359 360 360 359 358 358 357 358 359 357 358 358 357 357 360 359 360 360 358 353 353 353 351 349 355 357 356 357 357 352 355 355
348 352 356 359 357 359 357 362 362 361 360 360 360 361 358 359 359 357 359 358 358 358 357 357 358 358 357 357 363 356 354 353 353 353 352 355 357 357 356 354 352 354 354
348 351 355 358 358 357 359 358 358 359 358 359 360 358 358 357 359 360 359 356 356 357 354 355 355 355 354 355 358 356 355 352 353 354 354 356 356 353 356 351 355 353 353
347 350 354 356 358 360 358 355 357 356 357 355 358 360 357 354 357 357 356 354 355 353 352 355 354 357 357 357 356 355 355 351 352 353 355 355 356 353 352 352 354 353 353
346 350 353 356 358 360 360 358 357 356 356 356 357 358 356 354 355 355 356 354 355 355 354 356 355 356 356 355 356 355 353 352 352 353 355 356 355 355 353 353 352 351 352
346 349 353 355 357 359 358 359 357 356 356 358 357 358 357 355 356 353 353 352 356 359 358 358 356 355 354 354 355 355 354 354 354 355 354 356 355 354 353 353 353 353 353
347 350 351 354 355 358 358 357 356 355 357 358 358 359 357 357 358 359 356 353 356 359 359 360 359 358 353 353 354 354 356 353 352 354 355 355 357 356 356 355 355 355 354
346 348 352 351 353 356 357 357 355 356 357 359 359 358 357 358 358 360 357 353 355 359 357 358 357 353 352 352 352 353 353 352 353 353 355 355 356 353 355 356 357 357 356
346 347 350 352 352 353 356 356 356 357 359 360 358 357 358 359 360 358 357 356 358 356 355 356 354 354 351 352 351 354 354 353 352 350 352 352 354 353 355 352 353 356 357
346 346 350 352 353 355 355 355 354 355 356 358 357 356 358 361 360 357 358 358 360 355 354 352 355 352 353 353 348 350 354 354 354 353 352 352 353 353 354 356 355 354 352
345 345 348 351 354 353 351 349 351 351 354 356 358 359 359 360 360 360 356 358 359 357 357 354 353 352 350 353 351 349 350 350 351 352 353 353 353 354 354 355 356 356 356
343 346 348 351 354 354 352 353 354 354 355 358 359 359 358 360 361 359 359 358 359 355 357 356 353 348 351 353 347 346 336 342 347 349 352 351 351 353 353 355 357 358 359
344 345 348 352 354 355 356 354 354 355 356 355 356 357 359 361 361 361 360 360 359 357 353 356 353 351 346 349 351 345 338 333 340 349 348 349 350 351 352 354 355 357 359
344 347 350 352 353 354 356 354 354 350 348 352 355 358 359 362 360 357 360 361 360 355 357 355 352 351 352 345 350 351 350 347 337 335 346 346 348 348 352 352 351 353 356
344 346 348 352 353 356 355 357 353 355 352 355 355 358 361 363 362 358 359 362 360 358 359 359 356 355 351 348 348 349 352 349 349 342 336 343 351 351 354 353 352 353 355
344 345 347 350 352 354 355 355 356 357 355 353 355 354 355 358 360 362 360 361 362 360 359 359 361 357 355 355 354 355 351 344 346 346 343 344 344 349 351 353 353 354 355

GFSSE_sfc_thetae_084.txt.gz
Theta_e
352 354 360 361 360 359 360 361 360 360 360 359 359 359 360 360 362 363 362 362 363 365 365 364 364 364 364 362 361 361 362 361 361 361 359 360 360 359 357 355 362 354 356
354 356 361 364 360 360 359 360 360 361 360 362 360 356 357 358 359 362 360 362 362 363 363 362 361 364 362 362 361 361 360 362 361 359 359 359 358 359 357 360 359 356 354
353 356 359 364 363 360 360 359 360 363 361 363 359 358 357 357 357 359 360 361 361 361 363 363 362 363 362 363 361 361 361 361 360 359 362 354 350 357 359 359 357 356 354
354 354 356 363 364 361 361 360 360 362 361 362 361 362 359 361 359 358 360 360 360 362 362 362 362 362 361 362 362 361 361 358 356 358 351 351 353 353 355 352 352 353 356
353 355 360 362 363 363 362 361 362 362 361 361 361 360 359 360 360 359 360 359 360 361 361 362 361 359 359 360 360 360 360 357 353 357 354 351 357 355 357 357 357 355 358
353 355 361 362 363 362 362 361 362 361 361 361 360 360 360 360 360 359 358 360 361 360 360 360 360 357 357 360 360 359 356 354 360 351 354 354 351 355 355 354 354 357 357
351 355 359 365 363 363 362 362 361 360 359 360 359 360 359 360 359 358 359 359 359 360 360 360 359 357 358 359 360 360 358 355 353 355 354 354 348 357 354 357 357 356 357
351 353 358 362 363 363 363 361 362 359 360 360 359 360 359 359 358 358 359 359 359 360 360 359 358 358 360 361 360 359 357 355 352 354 351 346 354 354 355 357 357 356 357
352 353 358 358 361 361 362 361 361 360 360 360 360 360 359 359 359 358 357 358 359 360 359 360 360 362 360 361 360 359 357 352 352 352 346 349 355 357 357 355 356 355 355
352 354 355 356 359 360 359 360 361 359 359 360 360 360 359 359 359 358 360 360 360 359 359 359 359 360 361 360 358 357 357 357 350 350 346 352 359 355 355 352 356 355 356
351 352 353 357 360 362 360 361 361 361 360 360 361 359 359 355 356 357 360 359 360 360 358 357 362 362 362 360 358 357 358 350 350 348 353 354 356 357 358 353 355 355 356
347 349 353 356 357 358 355 362 363 360 357 356 356 359 357 357 359 356 358 360 360 359 358 360 358 358 359 355 357 357 348 350 350 349 354 355 357 356 353 353 355 356 353
347 349 354 356 358 356 356 355 357 355 355 358 359 358 357 356 357 353 354 356 357 359 355 358 357 356 357 353 351 348 349 348 349 349 356 356 354 357 352 355 355 354 354
346 350 353 355 357 356 354 354 354 352 352 352 356 359 358 354 353 352 352 356 356 354 356 358 355 359 359 358 354 349 347 347 347 348 354 356 355 353 353 354 353 353 352
346 349 351 356 359 357 358 354 355 353 351 353 354 357 355 353 354 353 353 353 354 355 355 356 357 358 358 356 356 353 347 348 348 349 351 356 355 355 353 354 353 351 352
347 349 353 355 359 358 358 361 363 356 355 353 353 356 359 355 356 354 355 355 356 358 357 357 358 356 355 355 356 355 352 352 352 353 349 353 355 353 353 353 353 353 353
347 350 352 354 356 358 360 362 364 356 355 355 355 360 360 360 361 359 355 356 356 360 363 361 361 357 352 352 356 355 352 353 353 354 356 354 355 355 356 355 354 354 354
347 350 353 351 353 355 356 359 357 356 356 357 356 358 360 361 362 363 356 355 358 360 359 358 358 351 351 351 352 352 352 352 353 354 355 357 355 354 354 355 356 357 356
347 351 352 353 352 356 360 358 358 361 360 362 359 357 361 361 363 361 356 357 361 357 357 356 355 355 350 350 348 351 353 351 353 350 354 357 355 356 354 356 353 355 356
346 350 353 353 354 358 358 360 356 357 359 361 359 358 363 362 361 361 359 360 358 355 355 355 356 355 353 352 346 347 352 353 356 355 353 352 355 358 357 360 358 354 356
345 347 352 353 356 356 354 352 354 353 357 357 359 361 361 362 363 364 358 357 359 356 359 358 356 354 349 355 346 344 345 348 349 353 354 354 353 355 358 361 359 356 356
344 345 350 354 357 356 353 355 356 357 357 358 359 363 362 362 362 362 362 356 359 355 360 360 358 350 350 353 343 341 337 340 344 348 351 351 352 354 356 355 359 362 360
342 347 350 355 357 358 359 358 360 361 362 359 359 359 360 363 363 363 362 363 362 359 353 360 358 355 346 353 354 345 337 333 340 345 348 348 352 352 354 356 357 359 363
345 347 351 355 357 358 361 359 360 352 349 352 355 357 361 364 363 363 364 364 365 359 360 359 357 356 355 344 350 352 354 350 337 336 344 345 348 346 350 353 352 353 360
348 347 349 355 359 359 361 362 356 357 352 354 353 361 364 365 365 360 363 364 364 359 362 360 360 359 352 349 348 349 353 350 353 342 335 340 343 347 350 354 352 355 358
348 349 350 354 359 360 361 361 361 359 357 353 355 355 355 357 360 364 364 365 365 362 362 361 363 362 359 356 351 351 347 344 343 346 342 342 342 346 350 352 353 354 357

GFSSE_sfc_thetae_087.txt.gz
Theta_e
351 357 361 361 362 363 362 362 361 361 360 360 360 360 361 363 364 362 363 365 364 365 364 364 363 362 362 362 361 361 361 361 363 360 361 360 359 357 357 358 359 352 357
352 356 363 362 360 360 361 361 360 360 362 359 357 358 359 360 362 361 363 363 363 365 362 363 362 363 362 361 360 360 359 361 362 362 359 360 358 359 360 360 358 354 358
351 355 359 363 361 360 359 362 362 361 363 360 358 356 357 357 360 360 362 362 362 363 363 363 362 362 362 361 362 361 358 358 359 360 359 350 357 358 356 356 354 359 357
351 353 358 364 362 361 359 360 362 361 361 362 360 360 360 359 358 358 361 360 362 362 362 362 361 362 363 362 361 360 357 355 355 356 353 344 345 354 354 355 356 357 357
350 353 359 363 363 361 360 361 362 361 362 361 360 359 361 360 360 360 359 359 362 362 362 360 360 359 361 361 361 359 356 354 356 355 350 349 351 356 357 355 357 358 359
350 353 361 363 362 362 362 362 362 361 362 360 359 360 360 360 360 359 360 360 361 360 359 360 359 360 360 360 357 355 355 357 361 352 347 348 354 354 356 358 358 358 358
350 354 359 365 363 362 361 362 362 361 361 361 361 360 360 360 359 360 360 360 361 361 360 360 357 360 361 361 359 356 356 357 353 352 346 347 355 357 358 357 357 357 357
349 355 358 362 363 362 361 362 360 360 361 360 360 360 359 359 359 361 360 360 360 360 358 359 359 361 362 361 359 357 357 358 350 348 346 346 355 358 358 357 357 357 356
349 352 357 358 361 363 361 362 361 361 360 360 359 360 359 359 359 360 359 360 360 360 360 360 361 360 361 360 359 356 356 357 351 347 351 353 357 357 354 357 354 355 356
348 351 353 354 357 359 360 361 361 361 361 360 360 360 360 360 359 358 362 361 360 358 358 360 361 361 360 359 358 356 357 358 348 345 349 354 358 356 353 356 356 357 354
347 350 354 354 356 360 358 361 360 359 361 361 359 359 360 357 355 356 362 361 359 358 359 358 361 361 361 359 358 358 359 352 346 350 352 358 357 357 353 354 355 357 354
345 346 351 354 354 357 352 361 361 356 358 356 355 357 361 358 355 353 359 360 360 360 359 359 360 358 358 354 354 358 350 347 348 350 353 360 357 353 355 356 357 354 352
345 348 352 354 357 354 355 354 358 354 351 351 359 360 356 352 353 350 356 356 357 360 354 358 357 355 354 348 346 344 346 346 348 351 354 357 358 353 355 357 354 356 352
346 348 349 352 354 352 352 351 351 349 349 351 355 359 359 351 350 358 354 354 352 354 356 351 353 358 355 353 347 345 345 345 346 348 356 357 355 354 354 353 352 352 352
345 347 350 353 356 355 364 356 353 350 350 352 354 358 358 352 351 351 354 355 355 356 356 359 356 355 354 354 349 346 345 347 348 348 349 356 356 355 354 354 353 351 351
346 347 351 353 355 356 361 363 358 353 351 351 352 355 359 358 361 353 356 354 353 356 353 355 355 354 349 351 354 350 348 348 350 349 350 350 356 355 353 353 352 352 352
346 349 350 352 353 357 358 360 361 351 353 351 355 359 359 359 361 360 358 356 357 358 360 358 355 355 348 352 352 350 349 351 351 352 352 354 354 356 356 355 354 353 353
347 350 351 349 351 355 360 360 362 358 357 358 354 358 360 361 362 365 356 356 355 359 358 361 355 352 351 352 351 350 349 350 352 353 351 354 352 355 356 356 356 356 356
348 351 351 352 351 354 359 359 363 363 362 364 359 359 361 361 360 361 354 357 361 355 356 351 352 351 353 351 348 347 348 347 352 348 350 352 350 352 354 358 357 356 357
348 352 353 351 354 358 356 362 362 357 362 363 359 358 361 360 359 366 361 358 360 354 356 354 362 360 349 352 344 344 346 347 349 348 349 350 352 354 353 355 358 356 359
345 350 353 353 357 356 353 351 358 353 361 364 363 362 362 362 361 364 359 359 358 353 358 357 354 355 348 350 347 347 343 346 348 347 350 350 350 351 351 354 356 354 356
343 347 353 355 358 358 355 359 354 354 357 357 359 361 365 360 361 361 363 357 358 356 360 359 358 355 350 349 349 343 335 339 342 344 346 346 348 350 350 353 352 356 357
343 345 351 355 358 358 362 357 358 361 358 354 356 356 359 361 360 362 361 353 361 362 354 360 358 355 344 345 353 346 341 335 339 344 346 344 348 347 349 350 350 354 358
341 345 351 356 357 357 363 360 365 352 351 352 360 358 359 361 362 361 361 361 364 362 361 359 355 361 357 345 343 347 354 352 343 335 341 341 344 345 347 348 348 352 356
343 345 350 357 360 363 363 366 357 360 352 352 355 361 365 365 362 360 363 363 361 359 363 362 362 361 353 349 350 345 352 345 349 345 335 338 342 345 348 350 349 351 355
344 346 349 356 361 361 361 362 363 360 357 351 355 353 354 356 358 362 362 365 366 363 363 360 363 362 362 361 354 351 351 343 344 345 339 343 341 345 348 349 351 353 355

GFSSE_sfc_thetae_090.txt.gz
Theta_e
350 355 363 362 361 362 363 362 364 363 362 361 361 361 363 363 365 366 366 367 366 365 366 363 364 364 362 362 361 361 360 362 364 362 361 359 358 358 361 361 359 352 359
352 356 363 363 362 363 363 362 362 362 360 359 359 359 361 362 362 364 365 366 366 366 363 364 364 362 362 361 359 361 360 361 364 363 360 360 360 358 357 359 359 355 358
351 354 357 363 362 361 363 361 363 363 360 360 359 359 358 361 360 362 364 363 363 363 363 362 362 361 362 362 360 360 359 359 362 362 364 352 348 355 355 359 358 357 358
349 350 354 363 363 361 362 363 364 362 362 361 361 361 360 360 359 362 362 362 362 364 363 363 363 363 362 361 360 359 358 359 357 356 342 344 348 358 357 358 357 356 356
350 353 357 365 364 361 361 361 362 362 361 361 361 361 361 362 360 359 360 362 362 364 363 361 362 361 361 360 358 358 359 360 360 352 351 352 352 356 357 357 358 356 355
353 356 363 364 363 361 362 361 360 361 361 361 361 361 362 360 361 361 361 362 360 361 361 361 361 361 358 356 359 360 362 363 357 344 351 352 350 358 358 358 358 357 357
351 355 358 365 363 361 361 362 362 362 361 360 362 362 361 360 361 361 361 361 361 361 359 361 360 361 359 357 358 358 359 361 349 342 351 349 354 359 357 358 357 358 354
350 352 356 363 364 363 362 361 361 361 361 362 362 360 361 362 360 360 361 361 361 361 361 360 361 362 359 357 358 357 355 362 347 346 347 351 357 359 358 358 357 356 353
351 353 356 358 362 362 363 361 361 361 360 360 361 360 362 362 360 360 363 360 360 360 360 362 361 361 359 357 356 355 357 361 346 351 352 353 358 356 357 355 357 354 353
348 351 354 355 356 356 357 362 362 361 361 360 361 360 359 360 359 360 363 361 359 360 361 361 360 359 358 357 356 356 356 361 346 348 349 353 358 354 357 357 358 353 353
348 350 352 353 356 360 360 359 360 361 361 361 360 358 358 356 355 357 363 361 360 360 361 360 352 355 356 357 358 358 358 354 347 350 352 359 360 354 354 356 356 354 352
345 348 352 355 355 356 352 360 356 356 356 355 356 354 360 358 355 354 359 361 360 363 361 354 347 343 353 353 355 359 355 351 349 350 354 360 357 354 356 358 354 352 353
345 350 350 357 357 355 355 359 355 357 354 357 358 363 360 351 352 354 358 358 356 360 354 355 348 346 346 350 352 346 346 346 348 349 356 360 357 354 357 354 355 353 351
346 348 349 354 352 357 351 353 354 355 354 350 356 349 362 361 356 348 354 349 345 350 344 352 354 354 356 352 347 348 343 344 349 350 357 360 358 354 355 351 352 352 351
345 346 347 356 361 363 364 360 354 350 354 353 357 361 355 361 354 348 352 346 351 351 350 354 352 353 356 350 348 347 346 348 346 350 352 360 359 357 355 355 351 351 351
346 345 352 353 360 355 368 363 352 351 354 355 355 358 364 363 364 360 359 348 350 350 354 345 355 348 357 354 351 348 348 349 353 345 348 355 360 359 356 355 353 351 351
346 349 352 351 353 359 366 368 367 354 355 354 357 361 360 363 353 347 357 355 350 355 357 351 354 354 357 354 354 351 350 350 350 352 347 347 354 360 359 359 355 354 354
348 350 353 347 350 358 364 368 362 358 357 361 358 362 364 368 366 365 357 353 364 359 359 354 357 353 346 354 351 350 353 351 353 352 353 353 350 349 358 360 359 358 357
351 351 354 352 351 358 365 367 356 360 357 360 355 359 365 366 364 356 354 356 367 360 347 356 345 355 354 350 346 352 352 350 353 349 351 354 349 353 353 358 360 360 358
350 353 358 351 358 364 362 364 360 362 356 363 360 353 370 365 361 354 358 362 353 358 354 354 359 348 354 346 344 345 347 349 352 351 351 351 352 353 355 356 355 355 359
349 352 356 356 360 359 358 354 359 353 363 365 351 355 365 367 360 354 359 364 355 351 359 364 360 358 355 353 353 352 348 348 348 351 350 348 352 353 353 355 358 356 353
347 352 357 359 361 363 359 363 361 357 364 361 360 366 367 365 367 358 352 356 359 354 365 363 360 351 356 345 349 350 337 343 346 343 349 347 349 351 352 354 355 356 356
346 350 355 360 360 362 366 361 348 349 348 350 361 361 363 365 367 366 361 351 359 362 358 364 361 354 347 355 352 350 338 336 346 346 346 347 347 351 350 350 352 356 357
344 349 356 361 359 358 367 367 359 349 346 356 360 354 362 366 366 366 366 356 361 355 352 363 361 349 350 352 354 351 353 346 343 337 345 343 349 345 347 353 349 355 356
345 346 354 359 361 359 363 366 361 358 351 349 353 355 363 366 367 365 367 364 359 360 353 358 363 365 361 353 342 353 352 354 346 346 339 340 346 349 348 352 351 352 356
341 344 352 358 361 364 362 363 360 358 348 353 358 360 358 361 362 367 365 368 367 354 358 358 366 366 365 363 360 353 349 344 342 345 342 342 342 345 352 353 353 355 357

GFSSE_sfc_thetae_093.txt.gz
Theta_e
347 355 363 363 362 363 363 362 361 360 360 360 362 364 365 364 365 367 366 366 365 365 365 365 365 363 363 362 361 361 363 364 364 360 359 359 359 361 361 359 358 353 358
351 357 363 365 363 361 361 360 360 358 358 359 359 362 362 363 363 364 366 365 364 366 365 363 362 363 361 361 360 361 362 364 365 361 360 359 356 360 359 358 359 355 359
353 357 359 364 362 359 359 363 361 359 358 358 358 359 362 362 362 364 363 364 363 364 363 362 362 362 360 361 360 359 359 362 362 359 353 345 349 359 359 356 359 359 358
352 353 356 362 363 363 362 364 363 362 361 362 361 360 360 360 363 363 363 363 364 365 364 363 362 362 361 360 359 358 360 353 352 356 346 350 350 358 358 356 356 358 357
347 353 355 363 363 362 362 362 362 361 360 361 361 361 361 360 360 362 362 362 362 364 364 361 360 360 360 359 359 358 358 358 361 354 349 348 349 356 359 357 355 358 358
349 354 362 362 362 362 362 361 361 361 361 361 361 361 361 360 361 362 362 362 362 361 362 361 360 358 358 359 360 362 365 363 357 347 348 354 350 358 359 358 355 355 354
352 355 358 365 364 361 361 362 362 361 361 361 362 362 361 361 362 362 361 361 361 361 361 361 360 358 357 357 360 365 361 359 347 345 348 350 352 360 358 356 356 353 353
351 355 356 362 363 363 362 362 362 362 361 362 360 361 361 361 361 361 360 361 360 359 361 361 360 359 356 356 360 363 362 357 346 347 350 350 358 360 358 358 354 353 353
351 352 355 356 360 363 361 362 362 361 361 361 361 361 362 360 361 361 360 360 360 361 361 361 359 358 357 357 358 360 362 357 348 349 352 350 358 356 356 358 353 353 353
350 353 352 355 354 354 356 362 361 361 361 361 360 360 361 360 361 360 361 364 360 360 360 359 359 358 355 355 357 361 364 356 345 347 349 351 358 357 358 357 353 354 355
348 348 352 351 352 352 354 358 360 361 361 360 360 359 359 349 351 355 359 361 360 360 361 360 358 357 356 355 356 357 359 347 348 350 352 357 357 354 357 357 353 352 352
343 346 348 350 351 352 354 353 353 354 352 353 353 349 349 349 348 354 356 360 359 359 357 351 350 352 354 351 349 357 351 347 349 350 353 358 357 356 358 354 352 353 352
345 347 349 350 350 348 350 352 350 350 351 348 349 349 347 348 349 350 350 352 350 354 349 342 349 344 343 344 346 348 350 346 347 349 355 357 358 358 354 354 354 352 351
345 347 348 349 351 351 352 352 347 349 349 347 351 349 348 347 336 342 345 347 344 341 343 343 346 347 340 343 348 345 346 346 346 348 356 359 357 357 355 353 353 351 351
341 344 346 347 353 350 348 348 348 348 345 348 348 347 350 349 342 347 347 339 346 346 344 346 345 347 351 343 337 341 344 344 346 350 349 358 358 358 354 353 352 351 351
341 345 345 349 350 351 353 345 347 346 346 348 346 350 351 348 343 346 345 345 346 345 338 346 344 345 346 341 337 339 340 343 344 346 349 352 360 360 358 357 355 353 352
341 345 342 345 347 353 353 353 348 347 349 347 351 350 351 346 348 349 346 344 346 346 348 346 345 349 345 344 344 341 339 341 342 343 346 349 356 360 356 356 357 355 354
343 341 340 349 349 351 350 353 349 349 349 347 349 352 352 350 353 352 349 346 347 349 350 342 349 346 340 340 340 339 343 344 343 341 341 345 348 349 358 361 361 359 356
344 343 341 342 347 351 351 353 351 345 348 350 352 352 351 355 351 351 347 346 352 344 344 346 340 343 343 340 342 343 342 341 342 346 343 344 343 346 348 356 360 360 358
342 342 343 342 349 351 351 349 351 348 349 352 350 352 354 354 350 347 348 351 350 344 345 347 343 342 342 338 342 344 339 342 342 341 341 346 344 347 347 347 352 354 360
342 342 345 343 348 346 349 347 346 344 350 348 349 349 354 350 346 343 348 350 352 345 344 345 348 343 345 342 338 339 338 338 340 342 342 343 343 348 349 349 349 349 350
342 342 348 345 348 344 347 350 349 349 349 350 349 352 354 353 350 352 346 349 347 347 348 349 346 344 343 338 336 338 329 332 337 337 340 342 341 345 347 347 349 350 348
342 344 348 348 347 349 347 347 346 346 341 347 347 351 355 355 354 350 351 346 346 346 345 347 342 339 335 342 339 338 331 329 335 334 334 337 334 340 343 344 347 346 346
342 347 350 349 347 348 351 344 344 335 334 343 348 350 351 353 355 354 346 343 351 346 344 348 351 344 340 338 342 344 340 338 332 327 334 332 335 338 338 340 342 345 346
343 345 350 349 347 344 349 347 342 341 345 343 346 348 352 352 354 356 353 351 348 345 345 346 350 348 349 346 340 344 340 342 339 335 327 327 334 337 338 339 343 344 347
342 345 348 350 348 347 349 349 347 343 342 343 344 347 348 351 352 354 355 352 351 344 342 349 348 350 348 347 350 345 338 335 335 338 333 332 330 335 338 342 339 343 346

GFSSE_sfc_thetae_096.txt.gz
Theta_e
345 355 363 363 362 362 363 361 361 360 362 364 364 362 365 364 364 364 364 363 363 364 364 363 363 361 362 358 360 362 361 361 361 360 358 359 359 359 359 358 357 354 358
351 357 363 364 363 362 360 359 359 359 360 362 362 363 362 363 363 363 364 363 363 364 363 362 361 361 361 360 360 361 360 363 363 359 357 358 359 358 358 358 358 355 358
353 357 360 364 361 359 362 359 358 357 358 358 362 361 362 363 363 363 363 363 363 362 363 361 360 361 359 359 359 359 359 362 358 355 357 350 352 356 359 358 358 357 355
354 355 357 362 362 361 364 361 361 363 362 359 360 360 362 363 363 363 363 362 363 363 362 361 362 361 359 358 358 358 359 357 355 355 348 350 352 357 354 357 357 358 358
351 352 354 363 364 362 362 363 361 361 362 360 360 360 361 362 362 362 363 362 363 363 362 360 361 361 358 357 357 357 356 360 358 352 347 348 350 357 355 358 357 359 358
350 352 359 361 362 362 362 361 362 361 361 361 361 361 360 361 361 362 362 362 361 361 360 360 359 359 358 358 357 359 361 358 354 349 350 353 349 357 356 354 354 356 355
350 354 356 364 363 361 361 361 361 361 361 362 362 361 361 361 362 361 362 361 361 361 361 358 357 359 359 361 364 364 359 355 347 348 348 349 353 357 359 353 353 353 354
351 354 357 362 362 362 362 362 361 361 362 361 361 361 360 361 362 361 361 361 360 360 361 360 358 358 358 360 362 361 358 353 350 349 349 351 358 357 355 353 353 354 355
355 353 353 355 360 362 361 362 362 361 361 360 361 360 360 360 360 361 361 360 360 360 361 359 357 356 357 358 362 362 355 354 347 349 349 350 357 358 355 353 353 353 354
351 353 352 353 354 352 355 361 361 361 361 361 360 360 360 360 361 360 363 362 360 359 358 359 357 357 355 356 360 360 359 356 345 345 346 351 358 359 355 352 354 355 352
350 350 352 351 351 351 353 357 360 361 360 360 359 360 357 350 352 354 360 363 361 360 360 356 357 355 354 355 357 362 354 346 347 349 349 355 357 358 359 352 351 352 351
344 348 349 348 349 351 356 352 350 353 350 350 349 349 348 347 350 353 357 361 360 361 355 351 353 354 350 348 347 355 346 346 348 349 351 356 358 356 354 352 353 352 351
344 345 347 348 349 348 350 350 350 350 349 348 346 346 346 348 349 349 346 346 349 352 341 345 347 344 341 341 345 346 346 346 346 349 352 357 357 355 354 354 351 351 350
343 345 346 347 347 346 350 349 347 347 345 345 346 347 342 341 343 342 342 343 341 339 340 341 343 346 348 346 342 344 345 344 344 348 349 357 359 357 352 354 354 351 351
343 345 346 347 347 348 349 347 345 346 344 345 345 345 345 337 341 343 343 339 344 342 340 341 343 343 344 347 341 344 343 344 345 349 349 354 357 358 352 352 352 352 352
343 345 344 348 350 347 346 346 345 346 345 344 343 345 347 340 340 338 342 337 343 341 335 340 340 339 343 339 338 343 342 343 345 348 347 349 357 357 355 354 352 352 353
343 343 345 345 349 349 344 344 344 344 345 346 348 348 346 343 342 342 342 342 343 344 345 342 343 346 345 340 338 337 340 342 343 345 347 348 353 358 356 356 357 355 353
342 343 345 347 349 349 347 345 345 345 345 347 349 350 345 346 346 344 342 341 343 344 345 342 343 342 339 338 337 337 338 339 340 341 343 346 350 351 355 358 360 359 356
340 339 342 345 347 348 349 347 345 346 346 347 347 348 349 350 350 346 344 344 345 344 344 342 339 340 340 340 339 340 341 339 340 341 339 341 343 346 345 353 360 361 357
340 338 344 343 347 348 346 347 346 346 345 351 352 350 352 350 348 347 345 347 346 342 343 344 340 341 338 336 340 342 339 339 339 340 339 342 341 342 342 344 347 353 360
341 337 338 344 345 346 344 342 343 341 345 345 347 351 352 349 344 345 346 348 346 343 341 342 345 339 341 339 335 336 336 335 338 340 339 341 342 344 344 345 345 347 348
339 337 340 344 343 344 345 345 346 344 345 346 346 346 351 348 344 347 345 345 345 345 345 345 343 340 339 336 333 334 327 328 333 337 339 340 339 343 346 347 347 347 346
339 342 340 344 340 342 347 346 344 341 341 343 345 346 350 351 351 345 347 346 343 343 342 344 340 335 334 339 339 334 328 325 331 331 332 337 337 337 341 344 345 347 348
340 345 343 344 343 346 345 342 341 338 335 340 342 347 348 352 351 349 349 344 347 343 342 345 345 342 339 339 336 342 337 334 330 324 330 332 331 334 338 340 342 344 344
342 345 344 344 342 346 346 343 339 334 337 342 345 345 347 346 351 352 344 344 345 343 342 343 347 345 345 343 340 341 337 338 335 330 323 326 330 333 335 336 338 340 342
342 346 345 343 340 342 347 344 340 339 340 341 341 344 346 347 348 351 351 348 345 344 343 345 343 347 345 346 347 342 338 336 335 333 329 329 326 330 335 337 338 340 341

GFSSE_sfc_thetae_099.txt.gz
Theta_e
346 352 362 361 361 362 361 360 362 362 362 360 362 362 363 363 363 363 362 362 361 362 362 360 361 357 356 357 359 359 359 359 359 358 359 359 359 358 357 357 357 353 358
349 354 360 361 362 361 359 359 359 360 361 362 361 362 363 363 362 363 362 361 362 362 361 361 361 357 359 360 360 360 359 362 361 359 359 360 360 359 358 358 358 354 358
352 355 355 361 361 359 358 357 357 358 359 361 362 360 362 362 361 362 362 361 362 362 360 361 359 360 360 360 359 359 360 358 357 359 358 350 350 359 358 358 356 354 356
354 355 356 362 360 362 358 358 358 357 357 360 360 361 362 362 362 361 362 362 362 363 361 360 359 359 359 359 359 357 353 354 356 356 349 351 349 356 358 357 358 357 355
351 353 353 360 362 362 361 361 361 361 359 359 359 361 362 362 361 362 362 363 362 361 361 360 359 358 357 357 357 356 357 357 356 353 348 348 349 354 357 357 357 358 358
350 350 361 362 361 362 361 360 360 361 360 360 360 360 361 361 362 362 363 362 360 360 360 360 359 357 356 357 357 358 359 357 356 350 349 352 349 354 354 354 357 355 355
347 351 355 363 362 361 362 360 361 361 360 361 359 359 360 361 361 362 361 362 360 359 359 359 358 357 358 359 360 359 357 356 348 348 349 350 350 355 353 353 353 355 358
351 352 355 362 361 361 361 361 361 360 359 360 359 359 359 361 361 361 362 361 361 360 358 359 359 358 361 361 361 359 355 355 350 348 350 351 356 354 353 352 353 355 356
353 353 353 354 357 360 361 360 360 360 359 360 359 359 361 361 361 360 360 360 362 361 359 358 357 358 357 359 358 356 354 355 347 348 350 348 359 353 352 352 353 352 352
351 352 350 350 352 353 354 360 360 360 359 359 359 360 360 361 361 360 361 363 360 359 359 358 357 357 357 358 358 355 355 355 345 344 347 350 359 354 352 353 353 352 351
349 347 348 349 349 351 352 355 358 360 359 359 358 359 356 348 350 354 358 361 360 360 358 357 356 357 356 356 358 357 355 344 345 346 346 356 358 358 352 351 353 352 351
343 347 348 348 348 350 355 351 349 352 349 350 349 347 346 348 348 353 357 360 360 356 355 353 357 353 348 345 346 354 346 345 347 347 348 356 356 355 351 351 350 349 348
344 347 346 347 348 349 350 349 349 347 346 345 346 346 346 347 348 346 346 349 349 349 340 346 345 345 342 340 342 345 344 345 345 348 350 356 357 357 352 350 350 350 349
343 344 345 347 347 345 349 348 347 346 344 343 343 344 344 343 342 341 342 343 339 337 339 340 343 345 345 347 341 342 344 343 344 346 346 355 357 353 351 354 352 350 350
342 343 345 346 346 345 347 346 345 345 343 344 346 343 341 341 340 341 340 338 342 340 337 339 341 341 342 342 345 344 342 342 344 346 345 353 356 357 352 351 351 351 351
342 343 345 346 346 346 345 344 343 345 344 343 342 344 340 338 340 339 338 333 340 339 334 338 338 339 343 337 339 342 341 342 343 346 348 347 354 355 354 353 352 352 352
342 344 343 346 347 346 344 344 343 344 343 341 343 344 344 339 339 337 339 339 341 342 342 341 342 343 340 338 336 339 340 340 342 345 346 345 348 356 356 356 356 355 354
341 341 344 349 348 345 344 343 343 342 343 345 346 345 344 341 344 341 340 340 342 342 342 341 339 341 338 336 334 335 337 339 340 341 343 344 346 349 353 357 358 357 357
341 342 341 346 345 345 344 343 342 343 344 346 346 345 346 346 348 343 341 341 342 342 341 343 339 338 338 337 337 338 339 340 338 340 338 340 341 346 344 349 358 360 359
341 340 342 344 345 347 344 343 343 342 344 345 348 347 349 348 348 344 343 345 345 342 340 342 338 339 338 334 338 339 338 338 338 338 337 339 338 339 340 341 342 347 357
338 339 341 342 343 344 343 341 341 340 344 347 348 349 349 347 345 344 344 344 344 340 340 342 344 337 338 337 334 335 334 335 336 337 339 338 341 342 341 342 342 344 345
336 337 339 342 343 342 343 342 343 343 344 343 344 346 349 347 341 345 343 344 344 343 343 343 342 337 335 335 333 330 325 327 332 334 337 338 337 340 343 344 344 345 344
335 336 340 341 342 342 344 343 341 341 341 343 343 343 347 347 346 347 344 344 343 342 341 342 338 334 333 337 338 333 326 323 328 328 330 336 337 337 338 341 344 345 346
336 339 341 341 338 343 344 342 340 338 336 339 341 344 346 349 349 346 347 345 343 341 340 343 343 341 338 336 335 341 335 332 329 322 327 330 332 333 333 337 340 342 343
339 339 342 340 339 342 342 341 339 336 337 339 342 343 344 346 348 350 347 341 345 342 340 342 345 343 343 341 339 338 334 333 333 327 322 325 328 330 333 334 337 337 338
341 340 342 340 340 342 342 341 338 335 336 338 339 342 343 344 346 349 345 342 343 341 341 343 342 344 342 343 344 340 340 336 334 331 327 328 326 330 332 334 336 337 339

GFSSE_sfc_thetae_102.txt.gz
Theta_e
344 351 358 361 362 361 362 362 359 359 361 362 362 362 362 361 361 362 362 361 361 363 361 359 358 358 357 358 358 358 358 359 360 359 359 359 357 356 358 358 357 353 357
348 353 360 361 361 360 359 360 362 361 359 361 361 361 362 361 361 361 361 360 361 363 359 358 360 360 359 359 359 359 359 361 360 359 359 359 359 359 359 358 358 356 358
350 353 356 359 361 358 358 358 358 360 360 361 361 361 360 360 361 361 361 361 362 362 360 359 360 360 360 360 359 358 357 358 359 357 357 353 354 358 357 355 356 358 358
353 353 354 361 360 358 356 355 356 358 360 361 360 360 361 362 360 361 361 362 360 361 362 360 361 359 359 357 354 355 355 358 357 357 353 350 353 358 358 359 356 358 358
352 353 354 358 361 358 358 359 359 356 358 359 358 360 361 360 361 361 361 361 361 360 361 359 359 358 359 359 357 355 356 357 357 354 352 351 352 355 358 359 358 358 358
350 351 357 361 360 360 359 360 359 359 358 360 358 361 361 361 360 361 361 362 361 360 358 358 358 357 357 357 356 358 357 357 356 352 353 354 351 354 357 357 355 356 355
346 352 356 362 361 361 360 360 359 358 359 359 359 360 361 362 362 361 361 360 361 360 359 359 357 357 358 359 359 358 357 357 350 352 352 352 353 354 353 354 357 358 357
348 351 355 360 360 361 360 360 359 359 358 357 359 358 361 360 362 362 361 360 359 359 359 358 357 359 360 359 359 355 355 355 352 352 353 354 355 353 353 353 355 356 356
351 352 353 355 357 360 359 359 359 358 358 358 359 360 360 360 361 361 361 361 360 360 358 358 357 358 358 358 357 355 356 356 351 352 350 353 356 352 352 353 353 352 352
350 351 350 352 353 353 353 359 358 359 358 358 359 359 359 359 360 360 361 360 360 359 358 357 357 357 358 358 356 354 355 355 347 349 351 353 356 352 353 353 352 352 352
349 348 348 350 350 352 353 355 357 358 358 358 358 359 353 351 353 355 362 360 360 358 357 356 357 358 358 357 357 357 354 348 346 349 351 357 359 353 351 353 354 351 351
344 347 348 348 349 351 355 350 350 352 350 351 350 348 349 350 354 357 359 361 358 353 355 357 356 353 349 349 350 356 348 347 348 349 350 356 357 354 350 350 349 349 348
343 347 347 348 349 350 349 349 349 347 347 347 348 348 349 351 350 349 350 350 348 347 346 346 346 348 346 346 347 349 347 348 350 351 351 354 354 352 350 349 349 349 349
343 346 346 348 348 347 348 348 347 346 345 344 346 347 347 346 345 344 345 344 341 341 343 345 346 348 348 350 346 347 348 348 348 351 350 353 354 352 351 353 351 350 350
342 344 345 347 347 346 348 347 347 346 345 345 346 346 346 344 343 343 342 341 345 343 341 344 344 344 347 344 349 345 347 346 347 350 348 352 355 357 353 351 351 351 352
342 343 345 346 346 345 345 345 345 347 345 346 347 345 344 344 342 344 342 336 345 341 340 344 346 346 345 341 345 346 346 346 347 349 350 351 353 353 355 353 353 353 353
342 343 344 345 346 345 345 345 345 346 345 344 346 346 343 342 342 342 343 344 345 347 347 347 347 347 343 343 344 345 346 345 345 347 350 350 350 354 355 355 356 356 356
342 342 343 348 347 345 345 345 345 345 345 344 346 347 347 344 345 342 343 344 346 347 347 347 344 345 343 343 342 342 344 344 345 345 346 347 348 349 352 354 357 358 358
342 342 343 347 346 345 345 344 344 345 346 348 348 347 346 345 348 346 344 346 347 347 346 346 345 345 344 343 342 344 344 344 345 344 344 344 345 348 349 348 351 354 357
342 343 343 345 345 345 344 343 344 344 346 346 348 348 348 350 351 347 348 349 349 346 346 347 346 344 344 341 341 342 344 345 344 344 344 343 344 344 345 346 347 347 351
341 341 342 343 345 344 343 342 341 341 347 349 348 350 349 351 350 347 349 350 348 346 347 348 348 345 344 342 342 344 341 341 342 343 344 344 345 346 347 347 348 349 349
337 341 341 343 344 343 343 343 344 344 346 348 348 350 351 349 347 348 349 349 350 349 349 349 347 343 341 343 341 336 333 336 339 339 342 343 344 345 346 348 350 352 352
337 339 340 342 343 343 345 344 343 344 345 345 347 347 350 349 346 350 348 348 349 348 348 349 344 343 342 344 344 341 335 332 334 337 339 340 344 344 346 346 347 349 352
337 339 341 342 343 343 345 345 343 340 339 343 345 347 350 352 351 349 350 349 348 347 347 351 347 346 346 344 343 344 342 341 336 334 337 338 339 341 344 344 344 347 350
338 337 340 341 340 344 344 344 342 341 341 342 346 348 350 352 353 352 351 348 350 347 348 350 351 349 350 348 345 344 342 340 339 334 333 336 340 339 340 341 343 344 346
338 338 341 340 339 342 342 342 341 341 340 341 342 345 347 349 351 352 350 346 349 347 346 349 351 351 350 349 350 347 347 343 341 339 334 336 336 341 343 346 347 347 349

GFSSE_sfc_thetae_105.txt.gz
Theta_e
350 355 359 360 360 362 359 359 360 362 363 363 362 361 362 362 361 361 361 362 362 363 361 361 361 361 358 358 359 359 358 359 359 359 359 358 359 359 359 359 359 355 358
351 356 360 361 359 361 361 362 361 359 362 362 363 362 362 361 362 361 360 361 361 361 358 361 361 360 359 359 359 359 359 358 359 359 359 359 359 359 359 359 359 356 358
350 356 357 361 360 358 358 360 360 360 360 361 361 362 361 362 361 361 361 361 361 360 360 361 361 360 360 360 360 358 359 359 357 358 358 356 356 356 356 359 360 359 358
353 356 356 361 360 357 357 357 358 359 358 361 361 361 361 361 362 361 360 361 361 361 360 361 360 359 357 356 356 357 358 359 358 353 354 354 354 358 359 357 359 359 358
355 356 359 360 359 357 358 358 356 358 360 359 361 361 361 360 360 361 361 361 361 361 360 360 359 360 359 358 357 357 358 358 357 352 356 356 357 358 359 359 358 359 359
354 355 356 361 361 361 359 358 359 357 359 357 360 360 361 359 360 361 362 361 360 359 359 359 358 359 358 358 359 357 358 358 356 355 352 352 353 357 356 356 356 355 355
351 350 358 362 361 361 359 359 358 359 358 359 361 361 359 361 361 360 362 361 360 360 360 359 358 358 360 360 358 357 358 356 355 354 355 351 352 356 355 359 358 357 355
350 356 358 361 361 360 360 359 359 358 359 360 359 360 360 363 361 364 360 361 360 359 359 359 359 360 360 359 357 355 356 354 354 353 357 350 355 354 354 355 356 355 354
356 356 358 357 360 360 359 359 359 358 359 360 358 361 360 360 360 362 362 360 359 358 358 359 359 358 359 358 355 356 356 356 356 354 354 351 356 353 353 354 353 352 353
353 356 358 359 359 358 358 359 360 359 359 359 360 360 360 360 360 360 360 362 360 359 358 358 358 358 358 357 355 355 356 352 352 348 355 355 356 353 355 353 352 353 354
352 355 357 357 358 360 359 359 359 359 359 360 360 359 359 360 359 357 359 361 360 359 357 357 358 358 358 357 356 357 352 347 346 352 356 356 357 352 352 355 351 351 351
349 351 356 356 356 357 356 360 360 359 359 359 358 360 358 358 361 359 360 359 355 356 358 357 355 353 352 357 359 358 354 349 348 350 352 354 357 351 351 351 350 350 349
349 351 354 355 358 357 358 357 356 356 357 357 358 357 359 359 359 360 358 351 351 354 351 351 354 356 352 354 356 355 354 353 351 349 349 353 356 353 351 350 350 350 350
347 351 353 354 356 358 359 355 353 352 353 353 356 358 358 354 355 356 352 352 350 351 354 356 356 357 357 358 356 354 353 352 350 350 349 351 355 354 351 352 353 351 351
345 349 352 355 357 357 356 354 353 353 353 354 355 357 355 353 352 352 352 351 351 351 354 356 355 355 355 354 356 355 356 355 350 351 350 349 354 356 356 352 351 352 352
346 348 352 353 356 356 356 357 356 355 354 356 356 355 356 354 353 351 348 350 348 352 354 357 358 356 351 352 354 355 355 355 352 352 353 354 352 353 353 354 355 356 356
347 350 351 352 354 355 355 356 356 355 354 354 356 356 354 355 353 354 352 352 354 358 359 359 359 354 351 352 353 355 356 355 352 352 355 355 354 351 354 356 356 356 357
348 350 353 350 352 352 355 356 356 357 355 353 354 355 353 354 354 353 353 353 355 359 359 357 354 350 351 352 353 353 355 354 354 353 354 354 355 353 353 352 353 355 357
350 352 352 354 354 354 356 355 355 356 356 356 355 355 357 355 358 356 354 355 358 356 358 355 355 356 354 352 351 354 354 352 354 351 354 356 355 354 355 357 352 352 354
350 352 353 354 357 357 355 355 354 354 358 358 357 357 357 355 359 358 357 359 360 355 356 357 356 356 355 352 347 350 355 356 357 355 354 354 356 355 355 356 357 357 353
350 351 352 354 358 355 353 351 351 350 354 356 359 358 358 359 359 358 359 360 358 356 358 359 358 355 351 354 352 353 352 353 354 354 354 353 354 356 356 357 358 357 358
348 351 353 355 357 356 354 354 353 354 354 360 360 360 360 359 358 358 361 359 360 357 360 360 357 351 353 354 349 350 341 343 350 350 352 352 354 355 355 355 356 359 360
347 350 352 355 356 356 357 355 354 355 356 356 357 357 359 358 355 358 359 360 362 360 355 358 357 356 349 353 355 349 342 337 346 348 349 351 353 355 355 355 353 355 359
347 350 353 355 357 356 357 356 356 351 355 362 363 357 357 359 357 357 358 359 361 358 359 360 359 358 358 352 355 352 354 352 345 339 347 348 350 348 351 351 351 353 357
347 348 351 354 357 356 357 358 353 353 354 359 356 359 358 363 360 358 359 359 359 357 360 362 361 361 358 354 353 355 354 353 353 346 339 344 349 350 354 355 353 354 358
347 347 349 352 354 357 356 356 357 355 354 351 353 354 361 358 363 360 360 359 360 359 358 359 363 360 359 358 357 355 351 348 348 347 344 347 345 350 354 358 359 358 360

GFSSE_sfc_thetae_108.txt.gz
Theta_e
350 354 358 360 360 359 359 361 361 362 363 363 362 362 362 362 363 362 363 361 361 361 362 360 360 360 358 360 360 360 359 359 359 360 359 360 359 359 358 357 360 356 357
352 355 361 361 361 362 362 360 360 362 362 362 363 363 362 362 362 361 362 360 362 361 360 360 360 360 360 360 360 359 360 360 359 360 361 360 359 359 359 359 362 357 359
351 355 358 361 360 360 361 361 360 361 362 362 362 362 362 362 362 362 361 361 361 360 361 361 361 361 360 359 361 360 359 359 358 357 359 353 355 359 359 360 359 359 359
352 354 356 362 359 358 358 360 360 359 361 362 361 361 361 361 362 362 361 361 361 361 360 360 358 357 357 357 359 359 359 356 353 355 354 354 355 358 360 359 359 359 359
353 356 359 360 358 357 357 357 359 360 360 360 362 362 359 360 362 362 361 362 362 362 361 359 359 360 358 358 358 359 359 358 354 358 355 359 359 358 359 359 360 359 359
355 357 361 360 360 360 359 358 358 359 358 361 361 361 360 360 359 362 362 361 360 360 359 359 360 359 361 359 358 359 358 356 361 350 348 353 358 357 358 358 356 356 359
350 350 359 361 360 361 360 360 358 357 359 361 361 360 361 361 359 362 361 360 360 361 360 360 360 361 360 359 358 358 356 356 353 352 348 349 355 358 359 359 358 356 357
344 350 356 359 360 360 360 360 359 360 360 360 361 360 362 363 362 362 361 361 360 360 360 361 361 361 360 357 356 357 356 357 352 350 349 348 356 356 356 356 356 355 354
352 353 354 357 361 361 360 359 359 360 360 360 360 360 360 361 362 362 362 360 360 360 360 360 359 359 358 356 357 357 356 355 351 353 347 347 356 354 354 354 354 355 355
351 354 355 357 358 360 358 360 360 360 360 359 362 361 359 359 360 361 362 363 360 360 358 359 358 359 358 356 356 356 352 352 349 352 351 354 357 357 357 354 354 354 353
350 352 353 354 358 360 360 360 360 360 360 360 359 360 360 356 357 359 363 361 360 358 358 359 359 358 358 358 358 354 355 345 347 349 353 357 355 352 352 351 350 350 349
346 349 354 354 357 355 353 360 360 357 356 356 357 360 357 358 361 358 360 357 358 358 359 358 355 353 356 352 355 358 346 347 344 347 350 357 354 352 351 351 351 350 350
347 350 352 354 355 353 355 353 352 353 355 357 360 358 358 355 355 353 352 351 355 358 353 356 355 355 354 352 349 346 348 347 345 345 349 355 357 354 352 352 350 350 351
347 349 350 353 355 356 354 350 350 352 352 353 357 359 356 354 354 352 350 351 353 355 357 359 355 359 360 357 353 352 351 348 346 346 348 352 355 356 352 351 352 352 352
345 348 350 354 356 357 356 351 351 351 352 353 354 356 354 353 354 352 354 353 354 358 356 359 357 357 356 354 353 353 352 352 351 347 345 351 353 353 355 353 352 352 353
347 348 350 353 358 357 356 356 354 353 354 354 352 356 358 354 355 352 351 351 352 358 358 359 358 353 352 351 353 353 353 352 354 354 349 351 353 353 352 353 355 356 356
348 349 351 354 356 357 357 357 354 353 353 353 353 359 359 356 359 357 353 352 355 360 362 361 356 356 350 349 353 352 353 354 352 353 353 351 353 352 354 355 356 357 357
349 349 351 351 353 356 357 359 357 355 353 352 353 355 358 358 358 358 352 354 358 361 360 357 353 349 351 351 352 353 353 354 354 354 354 356 355 352 353 354 353 354 355
351 351 351 353 353 355 360 357 357 360 355 354 355 356 361 360 361 357 355 357 362 358 357 355 353 355 351 352 349 352 352 352 353 349 353 357 354 357 356 356 354 355 356
352 354 355 354 357 358 358 359 356 355 356 358 356 356 361 360 363 359 357 360 360 356 354 354 358 356 354 352 346 347 351 352 354 354 352 352 355 358 357 360 360 357 359
352 354 356 355 359 357 354 351 351 350 353 355 356 360 361 363 363 363 357 361 360 357 360 362 357 356 349 355 350 345 346 351 352 352 354 357 353 356 356 358 359 360 360
350 353 356 357 360 362 355 355 353 354 353 354 357 359 361 362 363 362 362 359 361 355 356 362 361 350 352 357 348 347 338 340 345 347 352 354 355 357 357 358 360 362 362
349 353 355 358 358 360 360 358 357 364 363 362 360 354 357 361 361 362 361 362 360 361 353 360 359 359 347 355 360 350 337 337 341 344 348 349 355 356 358 359 358 359 362
349 354 357 359 359 358 363 358 359 354 354 350 352 355 358 362 359 360 362 362 365 361 361 360 359 360 361 350 356 356 360 358 341 335 343 346 349 350 354 354 356 357 362
350 352 356 360 361 360 363 363 360 353 350 352 353 359 361 362 360 359 362 363 363 358 363 364 365 364 359 355 353 358 358 356 356 343 337 341 345 354 358 358 357 358 362
349 351 353 358 360 360 361 359 359 356 355 358 354 360 353 354 357 361 362 364 365 362 362 360 366 362 363 361 357 357 352 349 347 347 343 346 346 351 357 358 360 359 360

GFSSE_sfc_thetae_111.txt.gz
Theta_e
350 354 360 358 359 361 362 361 361 363 363 362 363 362 363 362 363 362 364 361 362 362 361 361 361 360 361 361 361 361 361 361 361 361 361 360 358 358 357 356 362 354 358
351 355 361 362 363 361 359 362 362 363 363 362 362 362 363 362 362 361 362 361 362 361 361 361 361 361 361 361 360 360 360 359 361 360 360 361 360 360 360 360 362 357 358
350 355 359 362 362 362 362 360 362 362 362 363 363 362 362 362 362 361 361 361 361 361 361 361 360 360 361 360 360 359 358 357 357 357 359 351 358 361 360 360 359 359 358
350 353 357 361 358 360 361 361 360 362 362 362 362 362 361 362 363 361 361 361 362 362 360 358 357 356 359 360 360 358 355 353 352 359 356 350 354 360 359 359 359 358 358
352 355 359 358 357 356 357 360 360 360 360 361 362 359 360 363 361 362 361 361 362 361 360 359 360 359 358 359 359 358 358 358 360 358 356 358 358 357 358 358 360 359 358
352 353 358 359 361 360 358 358 359 358 361 361 361 360 360 362 362 360 360 359 359 360 360 360 360 360 359 359 358 357 357 358 363 348 354 355 357 360 359 356 358 360 359
349 353 357 361 361 360 360 358 358 359 362 361 361 361 362 362 362 360 357 361 361 361 361 362 362 361 358 358 356 356 357 360 349 347 348 351 357 358 358 359 356 358 358
345 352 355 360 360 360 360 360 360 361 361 361 361 363 361 361 362 362 361 361 361 361 361 361 360 359 357 357 356 354 357 360 349 346 347 350 357 356 356 355 355 354 354
351 349 353 357 360 361 360 360 361 360 361 361 362 361 364 364 362 362 361 361 361 361 360 360 359 358 357 357 356 352 354 357 350 347 345 348 357 354 354 355 356 357 358
350 353 353 355 357 357 358 360 360 359 361 359 360 360 362 362 362 360 362 364 361 359 359 359 359 359 357 357 355 353 353 357 350 348 347 350 357 359 354 352 351 351 351
347 349 351 352 354 358 356 359 359 359 361 362 359 361 361 356 357 360 362 361 359 359 359 359 359 359 358 360 359 358 357 346 346 349 353 357 354 351 350 350 350 350 350
344 348 351 351 353 354 352 359 358 354 354 352 355 356 361 357 362 355 360 359 359 359 359 358 357 360 361 357 355 359 345 344 345 344 353 357 352 351 350 350 350 350 349
346 346 352 352 357 350 352 351 354 354 353 353 359 356 358 355 354 348 351 354 356 360 353 354 355 353 351 346 344 344 345 344 342 342 350 357 356 352 351 351 350 350 351
344 347 347 350 355 356 349 349 352 352 352 354 359 362 356 356 351 350 348 354 355 359 355 351 349 354 351 352 348 347 346 344 343 343 348 354 354 354 351 350 350 351 352
343 344 348 351 358 354 352 350 352 351 352 352 353 354 354 353 351 352 354 352 359 356 352 356 352 352 352 350 349 349 347 348 346 342 342 353 352 353 355 353 352 354 355
345 347 348 353 357 355 353 357 354 351 351 355 351 354 360 352 359 352 353 351 352 359 358 357 358 351 349 347 351 350 349 348 351 348 345 348 352 351 351 352 353 355 356
346 348 350 353 352 353 354 354 355 350 353 351 354 358 359 357 359 357 351 351 352 356 360 356 353 352 346 346 350 351 349 350 349 351 349 348 351 354 355 355 355 356 357
348 348 351 348 350 351 354 356 354 355 359 354 353 356 358 359 359 361 352 351 355 359 355 350 351 346 347 345 348 349 348 349 350 352 351 352 352 351 356 357 355 354 356
349 350 351 351 350 354 358 359 361 359 353 357 356 355 361 360 360 357 352 357 361 353 351 352 349 363 345 345 346 348 349 347 351 349 351 352 352 354 353 359 360 359 359
349 351 352 351 356 359 356 358 353 356 357 354 359 359 360 359 360 361 357 357 362 355 350 357 364 353 351 347 344 346 348 349 350 350 349 350 352 354 353 357 359 358 362
349 351 353 356 358 356 353 353 352 357 353 356 356 360 360 361 361 363 359 358 362 353 357 357 355 355 350 350 349 344 346 350 350 349 350 352 350 351 351 352 359 359 359
348 352 354 357 359 361 355 359 354 352 358 356 356 360 360 362 362 360 364 359 358 354 358 360 362 348 347 352 352 342 337 341 345 346 349 348 351 351 352 355 358 361 362
346 350 353 359 359 360 359 359 358 360 362 355 358 355 358 360 361 363 360 365 361 363 353 359 357 360 351 350 361 354 340 337 339 345 348 348 352 351 354 355 355 356 360
347 350 355 357 360 358 364 361 361 351 352 352 353 355 361 360 359 360 361 361 364 354 367 358 356 364 365 350 350 352 360 357 346 335 342 345 348 348 352 352 352 355 360
348 349 352 357 361 361 361 360 356 356 353 352 358 361 362 362 361 359 362 361 362 359 364 364 361 367 357 360 355 349 356 348 350 343 341 341 344 349 353 353 352 354 359
346 348 351 356 359 361 360 359 359 356 356 354 355 354 354 356 357 361 360 364 365 363 362 360 364 363 366 366 361 361 356 346 347 348 343 343 346 348 351 354 355 355 356

GFSSE_sfc_thetae_114.txt.gz
Theta_e
349 353 362 361 361 362 362 362 362 364 364 364 364 365 364 363 363 364 365 364 363 363 363 360 361 361 361 362 362 361 361 361 361 361 360 359 358 359 360 360 361 353 357
350 354 364 363 359 360 362 363 362 363 364 364 365 365 364 364 364 364 364 363 362 362 362 362 362 362 361 361 361 360 360 359 359 361 361 361 360 360 360 360 359 355 358
348 355 359 363 362 362 361 364 362 363 363 362 363 364 364 364 364 362 362 362 362 362 362 361 361 361 361 358 358 358 357 358 358 355 364 354 356 361 360 360 360 359 359
349 354 355 363 362 362 361 362 363 363 362 362 363 362 365 362 365 362 362 362 363 362 359 357 358 359 361 359 358 359 357 358 358 358 354 352 352 359 359 359 358 359 359
352 353 354 359 358 360 360 361 361 361 363 362 362 362 365 362 362 362 362 362 361 361 361 360 360 358 360 359 358 358 359 358 361 356 352 353 354 357 359 361 359 359 359
351 350 357 360 360 358 360 361 360 362 362 364 364 364 363 365 362 361 360 359 360 361 361 361 360 358 359 356 356 357 360 363 362 351 353 356 355 358 357 360 360 360 358
350 349 358 361 361 361 358 359 359 362 362 364 364 363 363 363 359 360 361 362 361 362 361 361 359 358 357 354 356 357 360 365 347 347 351 354 355 361 358 356 359 359 359
348 351 355 360 362 361 360 360 361 362 363 362 363 362 364 365 362 362 363 365 362 361 361 359 357 357 357 354 354 356 358 361 347 346 348 350 357 356 355 355 355 355 354
348 350 353 355 359 361 362 362 361 362 363 363 362 362 364 363 362 365 366 364 361 361 360 359 358 357 356 353 352 355 357 365 346 346 346 352 357 355 356 357 356 357 356
351 351 353 354 354 355 356 360 360 360 362 362 362 362 366 365 362 362 365 364 360 359 359 359 359 358 357 355 353 354 356 359 346 344 346 351 360 353 352 351 350 350 350
349 350 351 352 353 359 358 357 360 360 362 360 360 362 365 357 356 358 361 363 360 359 359 360 360 359 358 358 357 356 357 352 348 348 348 355 355 351 351 351 350 350 351
345 346 351 351 352 352 350 359 358 356 354 350 346 343 353 358 362 356 360 360 359 359 359 360 362 361 359 354 356 360 353 345 345 350 352 356 355 351 351 350 350 350 350
345 352 350 349 354 349 353 356 352 352 349 345 340 341 349 354 353 353 357 355 357 360 350 351 357 357 358 357 348 345 344 345 340 343 354 360 355 352 352 352 351 350 351
344 347 348 352 353 357 353 356 353 352 345 340 343 339 346 353 355 349 352 356 361 345 339 345 350 358 352 351 346 346 344 342 340 342 353 358 354 353 351 350 350 351 352
343 346 350 354 360 362 351 354 352 353 351 352 347 343 353 352 360 356 360 350 348 351 346 351 351 352 355 353 349 349 347 348 342 341 345 357 357 354 354 353 352 353 355
345 346 352 354 359 360 359 359 351 357 357 353 352 348 347 354 364 359 358 359 346 348 351 351 360 350 356 349 353 351 350 350 353 342 343 349 357 356 353 353 354 355 356
345 351 350 353 355 358 362 353 355 355 355 356 357 366 363 363 368 358 356 358 355 363 364 362 360 354 351 350 351 354 351 351 352 353 344 346 350 359 358 357 358 358 358
346 353 353 349 349 353 351 362 362 355 350 358 357 361 363 364 367 366 361 352 357 357 364 361 356 352 350 352 351 353 353 350 353 353 353 350 349 348 359 362 361 361 360
349 352 350 352 351 356 360 350 356 360 358 360 357 358 365 363 365 365 358 363 365 357 358 357 349 354 343 347 348 351 352 349 354 349 353 355 353 354 353 358 361 361 362
349 352 351 350 354 361 360 362 364 353 362 353 357 361 367 364 366 361 365 360 359 357 346 355 349 356 360 348 344 346 351 353 353 351 352 352 353 354 355 358 357 357 361
348 352 356 351 363 358 357 347 354 357 357 351 362 364 366 364 367 368 364 354 339 348 360 356 356 359 358 345 361 350 351 353 352 352 352 350 351 353 352 354 358 361 356
349 352 356 358 362 360 361 355 352 359 353 358 365 366 355 364 368 364 360 355 350 350 364 361 356 358 358 353 351 352 342 347 348 347 352 349 350 351 351 353 359 359 360
350 351 355 357 362 363 362 359 349 353 360 356 358 359 361 364 366 370 364 359 353 354 358 365 364 360 356 351 358 353 341 338 344 347 348 352 350 354 354 354 355 359 360
350 352 356 359 362 360 363 362 352 352 353 359 358 359 357 365 361 365 368 357 340 341 354 364 363 360 361 355 354 352 339 347 342 341 347 347 350 350 351 353 352 358 359
345 351 356 359 362 364 367 358 359 364 360 361 360 357 370 368 361 361 366 367 351 351 357 365 365 363 361 350 352 359 348 352 345 347 341 341 348 351 355 357 351 355 360
346 350 353 357 359 361 364 361 364 354 347 357 357 357 356 359 362 366 365 368 368 358 361 365 368 365 362 351 350 358 342 340 335 343 338 336 341 349 352 355 357 355 357

GFSSE_sfc_thetae_120.txt.gz
Theta_e
348 354 361 359 360 361 362 362 362 361 362 362 362 361 362 361 362 361 361 361 362 363 362 362 362 361 362 360 359 359 361 360 360 360 360 360 358 357 357 356 356 351 357
351 355 363 362 362 362 362 363 362 362 362 362 362 362 361 360 360 362 362 362 362 363 362 362 362 361 360 359 358 359 360 361 362 362 362 362 361 361 359 359 359 355 358
352 355 359 364 362 363 363 363 363 363 362 362 363 363 362 362 362 362 362 362 362 362 361 360 360 360 360 360 359 359 358 360 362 361 361 354 355 360 360 360 359 358 358
354 354 356 363 364 362 362 362 363 363 363 362 362 361 361 361 361 361 362 361 360 361 361 359 359 360 359 360 357 359 360 363 360 358 351 351 353 358 358 359 359 359 359
353 355 357 363 363 362 362 362 363 362 362 362 361 362 362 362 361 360 360 359 360 358 360 358 359 360 359 359 358 358 361 360 359 355 350 350 352 358 360 359 358 359 358
350 350 361 362 361 363 361 362 362 362 362 362 362 362 362 362 361 361 361 360 362 359 359 359 359 359 359 359 359 358 361 361 358 351 351 352 351 358 358 357 357 358 357
347 350 354 363 362 361 362 362 362 361 362 362 363 362 362 361 361 361 362 361 361 360 357 357 357 358 358 358 361 360 361 358 351 351 351 350 352 360 360 359 358 357 356
352 354 354 360 361 361 362 362 362 361 363 363 364 361 361 361 363 362 361 361 359 358 357 355 354 355 355 357 361 363 361 357 350 347 348 348 356 356 355 354 354 353 353
352 352 352 352 357 362 363 362 362 361 362 363 362 360 362 363 362 362 360 359 358 356 353 354 352 352 352 354 359 364 357 354 342 345 347 348 357 356 358 356 356 355 351
350 352 350 351 352 352 355 362 361 362 361 363 362 360 362 362 361 361 364 363 359 358 356 354 353 353 353 354 358 362 355 352 343 347 347 349 357 353 352 352 350 350 349
347 347 349 349 349 349 352 356 360 362 362 362 361 362 353 350 351 355 359 360 359 357 356 356 356 356 356 357 357 355 354 339 341 345 347 355 355 351 350 349 349 350 350
342 344 347 347 347 348 354 350 351 349 343 346 343 341 343 346 348 354 356 359 359 358 356 358 359 359 357 351 349 354 349 340 341 342 345 355 354 351 350 350 350 349 350
341 345 345 346 346 345 347 345 347 343 340 341 337 339 342 344 345 351 350 350 349 355 349 349 352 354 352 351 351 347 343 345 343 343 349 356 354 351 350 350 351 351 352
340 344 345 346 343 346 344 343 343 337 336 338 338 340 339 343 343 344 346 347 346 345 337 336 343 348 344 345 347 346 338 338 339 343 349 356 357 353 353 353 353 353 353
340 341 343 344 346 347 345 344 339 337 338 340 339 341 342 341 342 345 344 343 339 343 343 340 341 341 344 344 341 344 333 335 337 345 347 357 358 356 354 353 353 354 355
340 340 343 343 347 347 344 342 338 337 337 341 339 340 340 341 343 344 340 341 341 343 340 343 342 343 339 338 336 336 334 334 336 340 344 347 358 358 357 356 356 357 357
341 342 342 344 347 345 344 345 338 342 343 340 340 340 339 342 344 342 343 343 342 342 343 347 348 344 343 340 337 338 336 335 335 336 339 342 348 359 357 358 360 361 361
342 341 342 347 344 343 343 343 343 344 344 341 341 343 345 347 349 346 342 342 346 346 346 345 346 344 339 340 338 337 338 337 334 334 336 337 341 343 351 360 361 361 361
341 340 339 339 342 344 344 344 343 345 346 344 345 346 346 348 350 347 347 346 345 343 344 344 342 339 338 338 338 338 339 337 338 340 336 336 337 341 340 349 359 361 362
341 340 339 340 343 343 346 346 342 344 347 351 347 346 347 348 351 346 336 334 338 341 340 345 341 346 337 337 340 340 337 337 338 339 337 341 340 341 341 342 344 352 360
342 341 340 342 342 341 343 341 340 340 342 348 348 349 350 349 352 346 337 332 339 339 343 345 339 345 339 340 338 339 336 338 338 340 341 341 341 343 344 344 345 346 348
341 340 341 343 341 342 342 344 342 342 343 347 351 350 351 350 351 347 340 330 341 344 341 346 347 343 343 340 338 338 327 333 336 338 340 342 339 344 345 347 345 346 353
339 341 343 343 343 346 346 343 345 344 345 344 344 346 346 350 351 347 343 337 342 338 336 344 348 346 342 342 335 339 329 326 334 333 336 340 342 342 341 342 346 348 351
341 344 344 345 345 345 346 340 341 338 337 340 343 346 348 350 351 349 345 343 342 330 340 345 353 345 342 337 343 339 337 335 330 329 336 337 334 342 341 339 343 346 353
343 344 345 347 344 345 345 342 338 338 339 343 344 346 346 348 349 351 349 345 334 335 344 348 349 336 338 334 337 341 336 336 335 332 328 332 331 336 342 343 345 345 349
343 344 344 345 342 344 345 345 341 342 340 342 344 344 345 345 347 349 349 347 344 346 345 349 350 341 331 332 339 339 336 335 333 330 327 324 325 333 340 343 343 342 345